[[{"header":{"parameterUnit":"m.s-1","parameterCategory":1,"la1":30.6,"la2":29.2853,"lo1":-89.7004,"lo2":-87.6739,"dy":0.0162,"dx":0.0183,"nx":112,"ny":82,"refTime":"2023-05-15T06:00:00:Z","depth":0,"parameterNumber":2,"parameterNumberName":"U-component_of_WINDS"},"data":[0.0,0.0,0.0,0.0,0.0,0.0,0.0,0.0,0.0,0.0,0.0,0.0,0.0,0.0,0.0,0.0,0.0,0.0,0.0,0.0,0.0,0.0,0.0,0.0,0.0,0.0,0.0,0.0,0.0,0.0,0.0,0.0,0.0,0.0,0.0,0.0,0.0,0.0,0.0,0.0,0.0,0.0,0.0,0.0,0.0,0.0,0.0,0.0,0.0,0.0,0.0,0.0,0.0,0.0,0.0,0.0,0.0,0.0,0.0,0.0,0.0,0.0,0.0,0.0,0.0,0.0,0.0,0.0,0.0,0.0,0.0,0.0,0.0,0.0,0.0,0.0,0.0,0.0,0.0,0.0,0.0,0.0,0.0,0.0,0.0,0.0,0.0,0.0,0.0,0.0,2.3014,2.6423,3.1605,3.4192,3.2729,3.285,2.9916,2.2669,0.0,0.0,0.0,0.0,0.0,0.0,0.0,0.0,0.0,0.0,0.0,0.0,0.0,0.0,0.0,0.0,0.0,0.0,0.0,0.0,0.0,0.0,0.0,0.0,0.0,0.0,0.0,0.0,0.0,0.0,0.0,0.0,0.0,0.0,0.0,0.0,0.0,0.0,0.0,0.0,0.0,0.0,0.0,0.0,0.0,0.0,0.0,0.0,0.0,0.0,0.0,0.0,0.0,0.0,0.0,0.0,0.0,0.0,0.0,0.0,0.0,0.0,0.0,0.0,0.0,0.0,0.0,0.0,0.0,0.0,0.0,0.0,0.0,0.0,0.0,0.0,0.0,0.0,0.0,0.0,0.0,0.0,0.0,0.0,0.0,0.0,0.0,0.0,0.0,0.0,0.0,0.0,0.0,0.0,0.0,0.0,0.0,0.0,0.0,0.0,0.0,0.0,0.0,0.0,2.4433,3.1397,3.4269,3.5596,3.532,3.2771,2.9132,2.431,0.0,0.0,0.0,0.0,0.0,0.0,0.0,0.0,0.0,0.0,0.0,0.0,0.0,0.0,0.0,0.0,0.0,0.0,0.0,0.0,0.0,0.0,0.0,0.0,0.0,0.0,0.0,0.0,0.0,0.0,0.0,0.0,0.0,0.0,0.0,0.0,0.0,0.0,0.0,0.0,0.0,0.0,0.0,0.0,0.0,0.0,0.0,0.0,0.0,0.0,0.0,0.0,0.0,0.0,0.0,0.0,0.0,0.0,0.0,0.0,0.0,0.0,0.0,0.0,0.0,0.0,0.0,0.0,0.0,0.0,0.0,0.0,0.0,0.0,0.0,0.0,0.0,0.0,0.0,0.0,0.0,0.0,0.0,0.0,0.0,0.0,0.0,0.0,0.0,0.0,0.0,0.0,0.0,0.0,0.0,0.0,0.0,0.0,0.0,0.0,0.0,0.0,0.0,2.2561,2.609,3.1972,3.3731,3.4495,3.4493,3.1796,2.8257,2.3968,2.2429,0.0,0.0,0.0,0.0,0.0,0.0,0.0,0.0,0.0,0.0,0.0,0.0,0.0,0.0,0.0,0.0,0.0,0.0,0.0,0.0,0.0,0.0,0.0,0.0,0.0,0.0,0.0,0.0,0.0,0.0,0.0,0.0,0.0,0.0,0.0,0.0,0.0,0.0,0.0,0.0,0.0,0.0,0.0,0.0,0.0,0.0,0.0,0.0,0.0,0.0,0.0,0.0,0.0,0.0,0.0,0.0,0.0,0.0,0.0,0.0,0.0,0.0,0.0,0.0,0.0,0.0,0.0,0.0,0.0,0.0,0.0,0.0,0.0,0.0,0.0,0.0,0.0,0.0,0.0,0.0,0.0,0.0,0.0,0.0,0.0,0.0,0.0,0.0,0.0,0.0,0.0,0.0,0.0,0.0,0.0,0.0,0.0,0.0,0.0,0.0,0.0,0.0,2.5074,2.7887,3.1596,3.2759,3.32,3.3009,3.0859,2.7665,2.3341,2.1455,0.0,0.0,0.0,0.0,0.0,0.0,0.0,0.0,0.0,0.0,0.0,0.0,0.0,0.0,0.0,0.0,0.0,0.0,0.0,0.0,0.0,0.0,0.0,0.0,0.0,0.0,0.0,0.0,0.0,0.0,0.0,0.0,0.0,0.0,0.0,0.0,0.0,0.0,0.0,0.0,0.0,0.0,0.0,0.0,0.0,0.0,0.0,0.0,0.0,0.0,0.0,0.0,0.0,0.0,0.0,0.0,0.0,0.0,0.0,0.0,0.0,0.0,0.0,0.0,0.0,0.0,0.0,0.0,0.0,0.0,0.0,0.0,0.0,0.0,0.0,0.0,0.0,0.0,0.0,0.0,0.0,0.0,0.0,0.0,0.0,0.0,0.0,0.0,0.0,0.0,0.0,0.0,0.0,0.0,0.0,0.0,0.0,0.0,0.0,0.0,0.0,0.0,2.6572,2.9796,3.179,3.2714,3.29,3.2143,3.0506,2.7636,2.3279,2.1425,0.0,0.0,0.0,0.0,0.0,0.0,0.0,0.0,0.0,0.0,0.0,0.0,0.0,0.0,0.0,0.0,0.0,0.0,0.0,0.0,0.0,0.0,0.0,0.0,0.0,0.0,0.0,0.0,0.0,0.0,0.0,0.0,0.0,0.0,0.0,0.0,0.0,0.0,0.0,0.0,0.0,0.0,0.0,0.0,0.0,0.0,0.0,0.0,0.0,0.0,0.0,0.0,0.0,0.0,0.0,0.0,0.0,0.0,0.0,0.0,0.0,0.0,0.0,0.0,0.0,0.0,0.0,0.0,0.0,0.0,0.0,0.0,0.0,0.0,0.0,0.0,0.0,0.0,0.0,0.0,0.0,0.0,0.0,0.0,0.0,0.0,0.0,0.0,0.0,0.0,0.0,0.0,0.0,0.0,0.0,0.0,0.0,0.0,0.0,0.0,0.0,0.0,2.4547,2.7445,3.077,3.0467,3.0348,3.1125,2.9145,2.6269,2.25,0.0,0.0,0.0,0.0,0.0,0.0,0.0,0.0,0.0,0.0,0.0,0.0,0.0,0.0,0.0,0.0,0.0,0.0,0.0,0.0,0.0,0.0,0.0,0.0,0.0,0.0,0.0,0.0,0.0,0.0,0.0,0.0,0.0,0.0,0.0,0.0,0.0,0.0,0.0,0.0,0.0,0.0,0.0,0.0,0.0,0.0,0.0,0.0,0.0,0.0,0.0,0.0,0.0,0.0,0.0,0.0,0.0,0.0,0.0,0.0,0.0,0.0,0.0,0.0,0.0,0.0,0.0,0.0,0.0,0.0,0.0,0.0,0.0,0.0,0.0,0.0,0.0,0.0,0.0,0.0,0.0,0.0,0.0,0.0,0.0,0.0,0.0,0.0,0.0,0.0,0.0,0.0,0.0,0.0,0.0,0.0,0.0,0.0,0.0,0.0,0.0,0.0,2.1847,2.3861,2.6307,2.9497,2.8798,2.8573,2.9775,2.8028,2.5414,2.1988,0.0,0.0,0.0,0.0,0.0,0.0,0.0,0.0,0.0,0.0,0.0,0.0,0.0,0.0,0.0,0.0,0.0,0.0,0.0,0.0,0.0,0.0,0.0,0.0,0.0,0.0,0.0,0.0,0.0,0.0,0.0,0.0,0.0,0.0,0.0,0.0,0.0,0.0,0.0,0.0,0.0,0.0,0.0,0.0,0.0,0.0,0.0,0.0,0.0,0.0,0.0,0.0,0.0,0.0,0.0,0.0,0.0,0.0,0.0,0.0,0.0,0.0,0.0,0.0,0.0,0.0,0.0,0.0,0.0,0.0,0.0,0.0,0.0,0.0,0.0,0.0,0.0,0.0,0.0,0.0,0.0,0.0,0.0,0.0,0.0,0.0,0.0,0.0,0.0,0.0,0.0,0.0,0.0,0.0,0.0,0.0,0.0,0.0,0.0,0.0,0.0,0.0,2.2842,2.5234,2.7147,2.8087,2.812,2.808,2.808,2.729,2.5323,0.0,0.0,0.0,0.0,0.0,0.0,0.0,0.0,0.0,0.0,0.0,0.0,0.0,0.0,0.0,0.0,0.0,0.0,0.0,0.0,0.0,0.0,0.0,0.0,0.0,0.0,0.0,0.0,0.0,0.0,0.0,0.0,0.0,0.0,0.0,0.0,0.0,0.0,0.0,0.0,0.0,0.0,0.0,0.0,0.0,0.0,0.0,0.0,0.0,0.0,0.0,0.0,0.0,0.0,0.0,0.0,0.0,0.0,0.0,0.0,0.0,0.0,0.0,0.0,0.0,0.0,0.0,0.0,0.0,0.0,0.0,0.0,0.0,0.0,0.0,0.0,0.0,0.0,0.0,0.0,0.0,0.0,0.0,0.0,0.0,0.0,0.0,0.0,0.0,0.0,0.0,0.0,0.0,0.0,0.0,0.0,0.0,0.0,0.0,0.0,0.0,0.0,0.0,2.1206,2.3948,2.6226,2.7128,2.6683,2.656,2.7136,2.6379,2.4441,2.1068,0.0,0.0,0.0,0.0,0.0,0.0,0.0,0.0,0.0,0.0,0.0,0.0,0.0,0.0,0.0,0.0,0.0,0.0,0.0,0.0,0.0,0.0,0.0,0.0,0.0,0.0,0.0,0.0,0.0,0.0,0.0,0.0,0.0,0.0,0.0,0.0,0.0,0.0,0.0,0.0,0.0,0.0,0.0,0.0,0.0,0.0,0.0,0.0,0.0,0.0,0.0,0.0,0.0,0.0,0.0,0.0,0.0,0.0,0.0,0.0,0.0,0.0,0.0,0.0,0.0,0.0,0.0,0.0,0.0,0.0,0.0,0.0,0.0,0.0,0.0,0.0,0.0,0.0,0.0,0.0,0.0,0.0,0.0,0.0,0.0,0.0,0.0,0.0,0.0,0.0,0.0,0.0,0.0,0.0,0.0,0.0,0.0,0.0,0.0,0.0,0.0,0.0,2.0939,2.3592,2.5832,2.6713,2.6068,2.5925,2.6734,2.6003,2.4354,2.1662,0.0,0.0,0.0,0.0,0.0,0.0,0.0,0.0,0.0,0.0,0.0,0.0,0.0,0.0,0.0,0.0,0.0,0.0,0.0,0.0,0.0,0.0,0.0,0.0,0.0,0.0,0.0,0.0,0.0,0.0,0.0,0.0,0.0,0.0,0.0,0.0,0.0,0.0,0.0,0.0,0.0,0.0,0.0,0.0,0.0,0.0,0.0,0.0,0.0,0.0,0.0,0.0,0.0,0.0,0.0,0.0,0.0,0.0,0.0,0.0,0.0,0.0,0.0,0.0,0.0,0.0,0.0,0.0,0.0,0.0,0.0,0.0,0.0,0.0,0.0,0.0,0.0,0.0,0.0,0.0,0.0,0.0,0.0,0.0,0.0,0.0,0.0,0.0,0.0,0.0,0.0,0.0,0.0,0.0,0.0,0.0,0.0,0.0,0.0,0.0,0.0,0.0,2.1491,2.3941,2.5924,2.6722,2.6229,2.6112,2.6759,2.6081,2.4865,2.3104,0.0,0.0,0.0,0.0,0.0,0.0,0.0,0.0,0.0,0.0,0.0,0.0,0.0,0.0,0.0,0.0,0.0,0.0,0.0,0.0,0.0,0.0,0.0,0.0,0.0,0.0,0.0,0.0,0.0,0.0,0.0,0.0,0.0,0.0,0.0,0.0,0.0,0.0,0.0,0.0,0.0,0.0,0.0,0.0,0.0,0.0,0.0,0.0,0.0,0.0,0.0,0.0,0.0,0.0,0.0,0.0,0.0,0.0,0.0,0.0,2.3275,2.1004,0.0,0.0,0.0,0.0,0.0,0.0,0.0,0.0,0.0,0.0,0.0,0.0,0.0,0.0,0.0,0.0,0.0,0.0,0.0,0.0,0.0,0.0,0.0,0.0,0.0,0.0,0.0,0.0,0.0,0.0,0.0,0.0,0.0,0.0,0.0,0.0,0.0,0.0,0.0,0.0,2.074,2.4096,2.6597,2.6776,2.731,2.7412,2.6838,2.6625,2.5506,2.3153,2.2659,0.0,0.0,0.0,0.0,0.0,0.0,0.0,0.0,0.0,0.0,0.0,0.0,0.0,0.0,0.0,0.0,0.0,0.0,0.0,0.0,0.0,0.0,0.0,0.0,0.0,0.0,0.0,0.0,0.0,0.0,0.0,0.0,0.0,0.0,0.0,0.0,0.0,0.0,0.0,0.0,0.0,0.0,0.0,0.0,0.0,0.0,0.0,0.0,0.0,0.0,0.0,0.0,0.0,0.0,0.0,0.0,0.0,0.0,0.0,2.7246,2.4741,0.0,0.0,0.0,0.0,0.0,0.0,0.0,0.0,0.0,0.0,0.0,0.0,0.0,0.0,0.0,0.0,0.0,0.0,0.0,0.0,0.0,0.0,0.0,0.0,0.0,0.0,0.0,0.0,0.0,0.0,0.0,0.0,0.0,0.0,0.0,0.0,0.0,0.0,0.0,0.0,2.1604,2.4665,2.7106,2.7912,2.7751,2.7523,2.7427,2.6689,2.5641,2.4283,2.3456,0.0,0.0,0.0,0.0,0.0,0.0,0.0,0.0,0.0,0.0,0.0,0.0,0.0,0.0,0.0,0.0,0.0,0.0,0.0,0.0,0.0,0.0,0.0,0.0,0.0,0.0,0.0,0.0,0.0,0.0,0.0,0.0,0.0,0.0,0.0,0.0,0.0,0.0,0.0,0.0,0.0,0.0,0.0,0.0,0.0,0.0,0.0,0.0,0.0,0.0,0.0,0.0,0.0,3.1437,3.3128,3.5248,3.5093,3.5842,3.6968,3.2042,2.9844,2.9634,2.8326,0.0,0.0,0.0,0.0,0.0,0.0,0.0,0.0,0.0,0.0,0.0,0.0,0.0,0.0,0.0,0.0,0.0,0.0,0.0,0.0,0.0,0.0,2.6411,2.7431,2.9148,2.9761,2.6924,0.0,0.0,0.0,0.0,0.0,0.0,0.0,0.0,0.0,0.0,0.0,2.3203,2.5647,2.7757,2.9159,2.8249,2.7717,2.8094,2.6845,2.5887,2.5544,2.4229,2.3326,0.0,0.0,0.0,0.0,0.0,0.0,0.0,0.0,0.0,0.0,0.0,0.0,0.0,0.0,0.0,0.0,0.0,0.0,0.0,0.0,0.0,0.0,0.0,0.0,0.0,0.0,0.0,0.0,0.0,0.0,0.0,0.0,2.3966,2.3969,0.0,0.0,0.0,0.0,0.0,0.0,0.0,0.0,0.0,0.0,0.0,0.0,0.0,2.9096,3.0771,3.2877,3.4166,3.4704,3.6857,3.8147,3.8628,3.7863,3.8366,3.9733,3.8219,0.0,3.2997,3.212,0.0,0.0,0.0,0.0,0.0,0.0,0.0,0.0,0.0,0.0,0.0,0.0,0.0,0.0,0.0,0.0,0.0,0.0,0.0,0.0,0.0,0.0,3.0227,3.1236,3.1707,3.1857,3.1584,2.8772,2.5848,2.4307,2.3823,2.294,0.0,0.0,0.0,0.0,0.0,0.0,2.4861,2.735,2.9067,2.928,2.9849,2.9641,2.83,2.7938,2.7149,2.5673,2.5374,2.4572,2.306,2.2799,0.0,0.0,0.0,0.0,0.0,0.0,0.0,0.0,0.0,0.0,0.0,0.0,0.0,0.0,0.0,0.0,0.0,0.0,0.0,0.0,0.0,0.0,0.0,0.0,0.0,0.0,0.0,0.0,0.0,2.2928,2.3938,2.3011,2.3817,2.3908,0.0,0.0,0.0,0.0,0.0,0.0,0.0,0.0,0.0,3.1506,3.281,3.4314,3.6003,3.7007,3.8281,3.9783,4.0806,4.1827,4.2816,4.245,4.2629,4.3269,4.2885,4.1222,3.8572,3.5751,3.2955,3.0394,0.0,0.0,0.0,0.0,2.8741,2.8403,3.02,3.0053,2.9112,2.9122,0.0,0.0,0.0,0.0,0.0,0.0,0.0,2.5925,2.9216,3.0969,3.2238,3.3604,3.4751,3.5147,3.3805,3.2567,3.0752,2.7518,2.5357,2.3573,2.211,2.1833,0.0,0.0,0.0,2.4909,2.6649,2.8288,2.9501,3.0032,3.0024,2.9485,2.8307,2.8133,2.7382,2.5718,2.6067,2.577,2.4521,2.3523,2.2302,0.0,0.0,0.0,0.0,0.0,0.0,0.0,0.0,0.0,0.0,0.0,0.0,0.0,0.0,0.0,0.0,0.0,0.0,0.0,0.0,0.0,0.0,0.0,0.0,0.0,0.0,0.0,0.0,2.3434,2.4789,2.2688,2.5259,2.6126,0.0,0.0,0.0,0.0,0.0,0.0,2.989,3.2745,3.4844,3.5893,3.7328,3.8901,4.0581,4.06,4.1643,4.3739,4.3739,4.4393,4.5586,4.5586,4.5568,4.5513,4.5513,4.4652,4.294,3.9128,3.6384,3.4428,3.3054,3.1919,3.1161,3.2095,3.2359,3.2507,3.4093,3.3997,3.3167,3.3148,3.1766,3.0054,2.9707,0.0,0.0,0.0,0.0,2.7992,3.1526,3.301,3.3941,3.5477,3.6938,3.7473,3.5612,3.5251,3.426,3.0714,2.7975,2.5874,2.4807,2.4568,0.0,2.4305,2.5297,2.6685,2.8421,2.9209,2.9901,3.063,3.0114,2.9415,2.8604,2.8275,2.7505,2.6028,2.632,2.6281,2.564,2.4341,2.3456,2.3026,0.0,0.0,0.0,0.0,0.0,0.0,0.0,0.0,0.0,0.0,0.0,0.0,0.0,0.0,0.0,0.0,0.0,0.0,0.0,0.0,0.0,0.0,0.0,0.0,0.0,0.0,0.0,0.0,0.0,2.4561,2.8498,0.0,0.0,0.0,0.0,3.0128,3.1833,3.351,3.5037,3.6863,3.8595,4.0217,4.1116,4.2371,4.4132,4.4064,4.4528,4.547,4.547,4.5509,4.5586,4.5586,4.5495,4.5322,4.5322,4.4973,4.4244,4.212,3.9642,3.7128,3.6342,3.5054,3.3788,3.5229,3.5268,3.4965,3.7192,3.6906,3.5562,3.5681,3.3695,3.1329,3.1858,2.9924,0.0,0.0,3.0201,3.0469,3.4526,3.5612,3.5945,3.7046,3.7471,3.7647,3.7713,3.5984,3.4118,3.3026,3.2667,3.1772,2.9399,0.0,2.871,2.7868,2.7817,2.8472,3.0163,3.0472,3.0591,3.0683,3.0665,3.0315,2.9491,2.8662,2.7815,2.6889,2.6106,2.5659,2.5601,2.5523,2.4715,2.3134,2.3017,0.0,0.0,0.0,0.0,0.0,0.0,0.0,0.0,0.0,0.0,0.0,0.0,0.0,0.0,0.0,0.0,0.0,0.0,0.0,0.0,0.0,0.0,0.0,0.0,0.0,0.0,0.0,0.0,2.8678,3.29,0.0,3.2029,3.2735,3.371,3.4557,3.6158,3.7571,3.8662,4.0361,4.1825,4.2945,4.3814,4.4545,4.5178,4.5161,4.5278,4.5586,4.5586,4.5586,4.5586,4.5586,4.5568,4.5495,4.5322,4.5137,4.4886,4.4037,4.2299,4.0084,3.9306,3.8361,3.7602,3.8597,3.8841,3.8846,4.0146,3.987,3.8814,3.7732,3.6596,3.5628,3.5334,3.4099,3.3108,3.4475,3.4266,3.4363,3.7602,3.8436,3.871,3.9716,4.0024,3.9775,3.886,3.805,3.7255,3.6504,3.4121,3.1939,3.1062,3.1312,3.1146,2.9815,3.0537,3.143,3.2019,3.168,3.137,3.1398,3.0987,3.0354,2.9505,2.9655,2.8981,2.7018,2.7134,2.6771,2.5648,2.5595,2.5313,2.4728,2.4662,2.3544,0.0,0.0,0.0,0.0,0.0,0.0,0.0,0.0,0.0,0.0,0.0,0.0,0.0,0.0,0.0,0.0,0.0,0.0,0.0,0.0,0.0,0.0,0.0,0.0,0.0,3.0292,3.3374,3.1748,3.6278,3.8435,3.5585,3.6772,3.8087,3.8955,4.0269,4.1386,4.2213,4.3333,4.4198,4.4752,4.5315,4.562,4.5654,4.5657,4.564,4.564,4.564,4.564,4.564,4.5622,4.5603,4.562,4.5342,4.5161,4.5118,4.4868,4.3898,4.2585,4.2108,4.1469,4.0851,4.163,4.1788,4.1717,4.219,4.2066,4.1417,3.9958,3.927,3.8908,3.8365,3.766,3.7192,3.8046,3.7896,3.7962,4.0075,4.0681,4.0903,4.1584,4.157,4.1227,4.0564,3.9999,3.958,3.949,3.6479,3.3762,3.3177,3.3732,3.3412,3.0906,3.2211,3.3164,3.2309,3.2213,3.2242,3.2261,3.1576,3.087,3.0277,3.0004,2.924,2.7802,2.7743,2.7371,2.6479,2.5897,2.5595,2.5604,2.5526,2.4671,2.3007,0.0,0.0,0.0,0.0,0.0,0.0,0.0,0.0,0.0,0.0,0.0,0.0,0.0,0.0,0.0,0.0,0.0,0.0,0.0,0.0,0.0,0.0,0.0,2.9782,3.3216,3.5307,3.3741,3.8632,4.0828,3.755,4.0135,4.2377,4.3226,4.401,4.4807,4.5651,4.564,4.5637,4.57,4.5637,4.5654,4.58,4.5722,4.5709,4.5748,4.5709,4.5728,4.5786,4.5659,4.5637,4.5703,4.5362,4.5118,4.4966,4.4624,4.4467,4.444,4.4685,4.4143,4.3334,4.4205,4.4008,4.3332,4.3332,4.3332,4.3182,4.2337,4.1511,4.0872,4.0854,4.029,3.9821,4.0609,4.0835,4.1022,4.1849,4.224,4.2431,4.2473,4.1965,4.1743,4.2763,4.1668,4.0777,4.1795,4.0031,3.7783,3.6026,3.6393,3.5549,3.1448,3.2908,0.0,3.1145,3.22,3.318,3.3189,3.2413,3.187,3.1831,2.9615,2.8532,2.9248,2.784,2.7303,2.8061,2.6548,2.5687,2.5679,2.5571,2.5504,2.543,0.0,0.0,0.0,0.0,0.0,0.0,0.0,0.0,0.0,0.0,0.0,0.0,0.0,0.0,0.0,0.0,0.0,0.0,0.0,0.0,0.0,3.1632,3.3558,3.3093,3.7204,4.0584,4.1371,4.3421,4.4626,4.4327,4.4564,4.4819,4.507,4.5252,4.5452,4.5684,4.5684,4.5684,4.57,4.5684,4.5684,4.5715,4.57,4.6012,4.6629,4.5992,4.6359,4.7535,4.6262,4.6031,4.6587,4.5668,4.5184,4.4985,4.4726,4.4549,4.4411,4.4496,4.4364,4.4186,4.4393,4.4364,4.4177,4.4177,4.4177,4.4045,4.3219,4.2787,4.2487,4.1867,4.1529,4.1398,4.1623,4.168,4.1919,4.2894,4.3108,4.3303,4.4208,4.3694,4.293,4.2756,4.2485,4.2181,4.1851,4.1822,4.1087,3.8769,3.8041,3.7385,3.6203,3.6103,3.6122,3.6041,3.5372,3.4461,3.3265,3.2432,3.1452,3.0134,2.9433,2.9142,2.9295,2.8873,2.848,2.8112,2.766,2.7341,2.7198,2.6606,2.6227,0.0,0.0,0.0,0.0,0.0,0.0,0.0,0.0,0.0,0.0,0.0,0.0,0.0,0.0,0.0,0.0,0.0,0.0,0.0,0.0,0.0,0.0,3.5568,3.8263,3.862,4.1209,4.373,4.5432,4.6051,4.6535,4.7038,4.6308,4.5945,4.6312,4.6321,4.6426,4.6773,4.6796,4.6796,4.6793,4.6796,4.6796,4.6843,4.6808,4.7044,4.7526,4.6696,4.6986,4.824,4.6487,4.6194,4.6982,4.5726,4.5142,4.5052,4.4714,4.4513,4.444,0.0,0.0,0.0,0.0,4.4515,4.4515,4.4515,4.4515,4.4421,4.3951,4.3801,4.3707,4.3219,4.3069,4.3069,4.3069,4.3069,4.319,4.3825,4.3957,4.4102,4.4848,4.4292,4.3525,4.3209,4.2622,4.2183,4.2228,4.2406,0.0,4.1216,4.0314,3.902,3.6867,3.7027,3.7042,3.6123,3.6091,3.5774,3.4801,3.4003,3.2956,3.1514,3.0471,0.0,0.0,0.0,2.8973,2.8133,2.8094,0.0,0.0,0.0,2.7354,2.7847,2.7489,0.0,0.0,2.5953,2.5541,0.0,0.0,0.0,0.0,0.0,0.0,0.0,0.0,0.0,0.0,0.0,0.0,0.0,0.0,0.0,0.0,4.0041,4.404,4.491,4.52,4.5838,4.7231,4.7212,4.7134,4.7231,4.6457,4.6264,4.7038,4.7182,4.7573,4.8269,4.8314,0.0,0.0,0.0,4.8334,4.8392,4.8342,4.8365,4.8462,4.7631,4.767,4.8388,4.6622,4.6271,4.6993,4.5628,4.5074,4.5137,4.4629,4.4468,4.4515,4.4515,4.4515,4.4515,4.4515,4.4515,4.4515,4.4515,0.0,0.0,4.4515,4.4515,4.4515,4.4515,4.4515,4.4515,4.4515,4.4515,4.4515,4.4515,4.4629,4.477,4.4776,4.4251,4.3753,4.384,4.2531,4.167,4.283,4.2497,4.2294,4.3231,4.2704,4.0578,3.5946,3.7017,3.7257,3.4214,3.5621,3.6826,3.664,3.5985,0.0,3.4124,3.1928,3.0607,3.0636,2.9947,2.9188,2.8398,2.8353,2.8229,2.7999,2.8018,2.8682,2.9991,3.0072,3.0087,3.0011,2.7152,2.6535,0.0,0.0,0.0,0.0,0.0,0.0,0.0,0.0,0.0,0.0,0.0,0.0,0.0,0.0,0.0,4.0191,4.3858,4.667,4.754,4.8836,4.9571,4.9243,4.7966,4.7386,4.8082,4.7366,4.6922,4.7096,4.7753,4.8222,4.8357,4.8377,4.8377,4.8377,4.8377,4.8396,4.8392,4.8392,4.8725,4.9421,4.8551,0.0,4.9363,4.7461,4.6696,4.6793,4.5667,4.5052,4.4868,4.477,4.4629,4.4515,4.4515,4.4515,4.4515,4.4515,4.4515,4.4515,4.4515,4.4515,4.4515,4.4515,4.4515,4.4515,4.4515,4.4515,0.0,4.4515,4.4515,4.4515,4.4515,4.4524,4.4595,4.477,4.4687,4.4407,4.379,4.3488,4.3361,4.3485,4.3656,4.3852,4.4001,4.3492,4.2473,4.0788,3.9809,3.9004,3.836,3.7467,3.6377,3.5037,3.4739,3.4041,3.2501,3.128,3.087,3.1516,3.0743,3.0211,3.0037,2.994,2.9817,2.9717,2.9617,2.9677,2.9929,2.9991,2.9991,2.9926,2.9417,2.9265,0.0,0.0,0.0,0.0,0.0,0.0,0.0,0.0,0.0,0.0,0.0,3.3112,0.0,0.0,4.1699,4.4233,4.7492,4.9698,4.9698,5.0399,5.0596,4.9803,4.8933,4.8566,4.901,4.8256,4.7753,4.7753,4.8566,4.9049,4.9049,4.9436,4.9649,4.9649,4.9649,4.9649,4.9649,4.9649,4.9881,5.0287,4.9302,4.9076,4.9423,4.7492,4.6627,4.6589,4.5481,4.4919,4.4776,4.4688,4.4587,4.4515,4.4515,4.4515,4.4515,4.4515,4.4515,4.4515,4.4515,4.4515,4.4515,4.4515,4.4515,4.4515,4.4515,4.4515,4.4515,4.4515,4.4515,4.4515,4.4515,4.4515,4.4524,4.4621,4.4655,4.4429,4.3617,4.3534,4.3611,4.3611,4.3773,4.3981,4.4039,4.4256,4.3858,4.2247,4.1293,4.0288,3.9011,3.847,3.7549,3.5832,3.5615,3.5104,3.3903,3.2174,3.1119,3.101,3.0614,3.0383,3.0352,3.0328,3.0235,3.0114,3.006,3.0007,2.9895,2.9924,2.9924,2.9891,2.9972,2.9972,0.0,0.0,0.0,0.0,0.0,0.0,0.0,0.0,3.1072,3.3469,3.5258,3.7302,4.023,4.283,4.5244,4.7444,5.0387,5.1992,5.0828,5.0758,5.0491,4.9571,4.9301,4.9184,4.9184,4.8701,4.8392,4.8392,4.9359,4.9939,4.9939,5.0558,5.0906,5.0906,5.0906,5.0906,5.0906,5.0906,5.089,5.0822,4.9969,4.9356,4.8933,4.7346,4.6454,4.6129,4.5171,4.4745,4.4739,4.456,4.4515,4.4515,4.4515,4.4487,4.4487,4.4515,4.4515,4.4515,4.4515,4.4515,4.4515,4.4515,4.4515,4.4515,4.4515,4.4515,4.4515,4.4515,4.4515,4.4515,4.4515,4.4515,4.4515,4.4515,4.4515,4.4327,4.367,4.3407,4.3393,4.3718,4.3545,4.3529,4.4012,4.471,4.4509,4.244,4.2201,4.1377,3.8942,3.8999,3.8644,3.7054,3.6672,3.6222,3.5434,3.3407,3.1763,3.0784,3.0605,3.0522,3.0464,3.033,3.0161,3.0026,3.0045,3.0003,2.9893,2.9907,2.9888,2.9888,2.9888,2.9907,2.3995,2.5486,2.7392,2.9474,3.0671,3.2863,0.0,0.0,3.8762,4.0602,4.216,4.3558,4.4723,4.6857,4.8794,4.9789,5.1513,5.1981,4.9798,5.0144,5.0103,4.8705,4.785,4.7386,4.7386,4.8005,4.8392,4.8392,4.9881,5.077,5.077,5.0848,5.0906,5.0906,5.0906,5.0906,5.0906,5.0906,5.0805,5.0625,5.051,4.9546,4.7881,4.7457,4.6442,4.4976,4.4659,4.4524,4.4524,4.4515,4.4515,4.4515,4.4515,4.444,4.4411,4.4487,4.4515,4.4515,4.4515,4.4515,4.4515,4.4515,4.4515,4.4515,4.4515,4.4515,4.4515,4.4515,4.4515,4.4515,4.4515,4.4515,4.4515,4.4515,4.4515,4.4496,4.4402,4.3801,4.3501,4.4242,4.3404,4.3008,4.4539,4.4433,4.381,4.2795,4.2938,4.2419,4.0408,3.9096,3.795,3.6929,3.6113,3.5245,3.4271,3.3978,3.3445,3.2565,3.184,3.1431,3.1372,3.0496,3.0041,3.0094,2.9991,2.991,2.9907,2.9888,2.9888,2.9888,2.9888,2.9888,2.8105,2.9806,3.144,3.2903,3.5334,3.7978,4.031,4.1112,4.1991,4.4208,4.5591,4.682,4.8203,4.9643,5.0907,0.0,5.2459,5.2168,5.0219,4.9834,4.8931,4.6799,4.6259,4.6521,4.7738,4.8643,4.8868,4.8212,4.9856,5.0626,5.0003,5.0552,5.0906,5.0906,5.0906,5.0839,5.0736,5.0736,5.0587,5.0383,5.0206,4.921,4.7514,4.7273,4.625,4.4621,4.4551,4.4515,4.4515,4.4515,4.4515,4.4515,4.4515,4.4487,4.4458,4.4487,4.4487,4.4458,4.4487,4.4515,4.4515,4.4515,4.4515,4.4515,4.4515,4.4515,4.4515,4.4515,4.4515,4.4515,4.4515,4.4515,4.4515,4.4515,4.4515,4.4515,4.4515,4.4252,4.4102,4.4439,4.3691,4.3039,4.3234,4.3209,4.2845,4.1854,4.3312,4.3541,4.0812,4.0352,3.9543,3.7593,3.6176,3.5162,3.4556,3.42,3.357,3.2638,3.2251,3.1848,3.134,3.0966,3.0532,3.0053,2.9991,2.9943,2.9888,2.9888,2.9924,2.9956,2.9839,2.9805,2.979,3.2273,3.4759,3.6112,3.9604,4.2638,4.2484,4.384,4.5556,4.7245,4.8073,4.8879,5.0172,5.0667,5.1162,5.2047,5.2116,5.1457,4.9819,4.8879,4.748,4.5187,4.4748,4.5323,4.7047,4.8205,4.8563,4.7952,4.9486,5.0214,4.9683,5.0441,5.0906,5.0906,5.0858,5.0754,5.0587,5.0527,5.0361,5.0087,4.9891,4.9037,4.7594,4.6939,4.5895,4.4515,4.4515,4.4515,4.4515,4.4515,4.4515,4.4515,4.4515,4.4487,4.4468,4.4487,4.4487,4.444,4.4487,4.4515,4.4515,4.4515,4.4515,4.4515,4.4515,4.4515,4.4515,4.4515,4.4515,4.4515,4.4515,4.4515,4.4515,4.4515,4.4515,4.4515,4.4515,4.4515,4.4515,4.4515,4.3697,4.2904,4.2535,4.2281,4.1886,4.1113,4.3003,4.3598,4.1061,4.0866,4.0159,3.7989,3.6619,3.5696,3.5287,3.4829,3.4162,3.3183,3.2917,3.2517,3.1931,3.1526,3.0991,3.0352,3.0121,2.9956,2.9839,2.9855,2.9874,2.9857,2.9717,2.9663,2.6914,3.0871,3.6002,3.909,4.3037,4.6584,4.8247,4.9926,5.0966,5.0399,5.0087,5.0005,5.0183,4.9423,4.9026,4.9778,4.991,4.934,4.7794,4.6887,4.584,4.4308,4.3444,4.329,4.4134,4.5667,4.6925,4.7649,4.872,4.9702,5.051,5.0789,5.0906,5.0906,5.0718,5.0625,5.0587,5.0342,5.0087,4.9811,4.9784,4.923,4.813,4.6553,4.5341,4.4515,4.4551,4.4551,4.4515,4.4515,4.4515,4.4515,4.4515,4.4458,4.4411,4.4487,4.4515,4.4515,4.4515,4.4515,4.4515,4.4515,4.4515,4.4515,4.4515,4.4515,4.4515,4.4515,4.4515,4.4515,4.4515,4.4515,4.4515,4.4515,4.4515,4.4515,4.4515,4.4515,4.4515,4.4515,4.3182,4.2326,4.3213,4.2033,4.0966,4.1014,4.1755,4.2059,4.1371,3.9948,3.8632,3.7717,3.7433,3.7031,3.6215,3.6198,3.5837,3.4982,3.4182,3.3762,3.371,3.2164,3.1274,3.1174,3.0475,2.9975,2.9717,2.9771,2.97,2.9512,2.9512,2.9512,3.1504,3.5932,4.0772,4.4511,4.7749,5.0325,5.1536,5.1888,5.1717,5.0935,4.8631,4.6758,4.6805,4.6026,4.5664,4.6524,4.7912,4.8342,4.6784,4.6784,4.6146,4.3891,4.3942,4.4022,4.3668,4.493,4.6256,4.7405,4.8531,4.9439,5.003,5.0301,5.0427,5.0427,5.0363,5.0252,5.0068,4.9968,4.9822,4.9585,4.9031,4.8305,4.7408,4.6262,4.5322,4.457,4.4524,4.4515,4.4515,4.4515,4.4515,4.4515,4.4515,4.4487,4.4487,4.4487,4.4515,4.4515,4.4515,4.4515,4.4515,4.4515,4.4515,4.4515,4.4515,4.4515,4.4515,4.4515,4.4515,4.4515,4.4515,4.4515,4.4515,4.4515,4.4515,4.4515,4.4515,4.4515,4.4515,4.4515,4.3659,4.301,4.3363,4.2033,4.0806,4.0268,4.0514,4.0891,4.1319,4.0386,3.9834,4.0158,3.903,3.8169,3.7944,3.6939,3.5951,3.5132,3.4826,3.4318,3.3564,3.3033,3.2392,3.1595,3.0866,3.0453,3.0355,2.9851,2.9832,3.0298,3.0155,3.0368,3.6026,4.0254,4.4497,4.8506,5.0954,5.2419,5.2728,5.2435,5.1567,4.9599,4.6487,4.3973,4.3409,4.2319,4.1825,4.2768,4.4322,4.53,4.4895,4.5028,4.4751,4.3643,4.375,4.3831,0.0,4.4281,4.5379,4.679,4.7905,4.8815,4.9416,4.9915,5.0206,5.023,5.0135,4.9968,4.9784,4.974,4.9683,4.9563,4.8698,4.788,4.7099,4.6224,4.5368,4.4605,4.4551,4.4524,4.4515,4.4515,4.4515,4.4515,4.4515,4.4515,4.4487,4.4458,4.443,4.443,4.443,4.4458,4.4487,4.4354,4.456,4.4776,4.4448,4.4736,4.5129,4.483,4.498,4.5129,4.483,4.4755,4.468,4.4381,4.4325,4.4325,4.4325,4.4325,4.4325,4.4325,4.3699,4.3193,4.3248,4.1983,4.0688,3.9886,3.9851,4.0169,4.0781,4.0363,4.0269,4.0901,3.9886,3.9064,3.8821,3.7566,3.6388,3.5514,3.5172,3.4624,3.384,3.354,3.3025,3.2247,3.1488,3.1054,3.0962,3.0466,3.0445,3.0884,3.0743,3.0967,4.0203,4.3698,4.7156,5.1118,5.2644,5.2996,5.21,5.1826,5.059,4.6552,4.3761,4.1573,0.0,0.0,3.7794,3.8762,3.9719,4.0916,4.2552,4.2115,4.2186,0.0,0.0,0.0,0.0,0.0,4.4505,4.5965,4.698,4.7922,4.8814,4.973,5.0245,5.0275,4.9943,4.9803,4.9803,4.9655,4.9615,4.9617,4.8806,4.7957,4.7135,4.6334,4.5496,4.4605,4.4605,4.4551,4.4515,4.4515,4.4515,4.4515,4.4515,4.4515,4.4487,4.4344,4.4285,4.4285,4.4285,4.4373,4.4411,4.4097,4.4675,4.5307,4.4333,4.5143,4.6238,4.5491,4.5774,4.6164,4.5417,4.5175,4.4952,4.4191,4.4005,4.3986,4.4005,4.4042,4.4061,4.4061,4.3485,4.3007,4.2976,4.19,4.0779,3.9957,3.9882,3.9898,3.9908,3.9987,4.0065,4.0129,4.0129,3.9789,3.8994,3.8118,3.7185,3.6154,3.5322,3.4749,3.4495,3.3687,3.319,3.3036,3.2236,3.1695,3.1421,3.144,3.1359,3.1174,3.1174,3.1192,4.5187,4.8407,5.1061,5.3939,5.3954,5.3061,5.2278,5.0258,4.7529,4.408,3.9981,3.6552,0.0,0.0,0.0,3.7789,4.1178,0.0,4.5133,4.5607,0.0,4.636,0.0,4.6177,4.6353,4.6424,4.6639,4.7004,4.7837,4.867,4.9428,5.0251,5.0458,4.9871,4.9769,4.9731,4.9731,4.9692,4.9343,4.873,4.8523,4.7701,4.6377,4.6005,4.5458,4.4745,4.4632,4.4578,4.4578,4.4578,4.4542,4.4515,4.4515,4.443,4.4344,4.4314,4.4226,4.4067,4.3947,4.4042,4.4128,4.4036,4.4594,4.5239,4.4952,4.5588,4.6368,4.6145,4.5793,4.5472,4.5249,4.4779,4.4309,4.4042,4.4048,4.4048,4.4005,4.4569,4.5028,4.5028,4.5363,4.5065,4.3234,4.3125,4.2828,4.1544,4.1346,4.1005,4.0037,4.1013,4.1857,4.1922,4.1749,4.1321,4.0514,3.898,3.7397,3.5907,3.5684,3.518,3.424,3.4041,3.3784,3.345,3.2713,3.2135,3.1779,3.1147,3.0901,3.1048,3.1048,3.1217,4.9541,5.2071,5.4058,5.5808,5.4505,5.2422,5.0959,4.8094,4.4478,4.0153,3.6549,0.0,3.1552,3.2761,3.4404,0.0,0.0,0.0,4.4322,4.5029,4.5797,0.0,4.7371,0.0,4.7875,4.7939,4.8268,4.9007,4.9097,4.9334,4.9769,5.0505,5.0892,5.0845,5.0438,5.025,5.0279,4.992,4.9504,4.9069,4.8304,4.75,4.6644,4.573,4.51,4.4764,4.4605,4.457,4.4551,4.4393,4.4364,4.4458,4.4229,4.417,4.4207,4.4104,4.4011,4.3952,4.4125,4.4115,4.397,4.3826,4.4624,4.5564,4.5094,4.5814,4.6792,4.6792,4.6734,4.6601,4.6249,4.5578,4.4893,4.4494,4.4105,4.3939,4.4309,4.4804,4.5282,4.57,4.6178,4.6001,4.4234,4.4102,4.3759,4.2377,4.1931,4.139,4.0454,4.1481,4.2148,4.184,4.1642,4.1186,4.0339,3.8957,3.7517,3.6062,3.5677,3.5157,3.4321,3.3762,3.3499,3.3646,3.2634,3.1987,3.178,3.1288,3.1124,3.1272,3.1324,3.1498,5.3364,5.5031,5.6201,5.6786,5.456,5.1477,4.8745,4.5488,4.1461,3.5791,0.0,3.1679,2.9374,3.0925,3.2785,3.3429,0.0,3.9128,4.2588,4.3159,4.4349,4.7384,4.7832,4.823,4.9102,4.9178,4.9784,5.1263,5.0714,5.0298,5.022,5.079,5.1355,5.1972,5.1309,5.0902,5.0847,5.0147,4.9787,4.9709,4.8268,4.7453,4.7188,4.5621,4.4806,4.4693,4.4524,4.444,4.4411,4.4048,4.4048,4.4199,4.3772,4.374,4.3886,4.3697,4.3708,4.3876,4.4435,4.4434,4.4183,4.3834,4.4819,4.5993,4.5114,4.6049,4.7408,4.7408,4.7887,4.8273,4.7571,4.6779,4.5934,4.5164,4.4412,4.4081,4.4816,4.5144,4.5489,4.6242,4.6548,4.6394,4.543,4.491,4.4216,4.2899,4.2236,4.1687,4.1254,4.1712,4.1815,4.1098,4.0858,4.0424,3.9597,3.8674,3.7604,3.6325,3.5533,3.4877,3.431,3.3166,3.2818,3.344,3.2247,3.1593,3.1537,3.1537,3.1499,3.1425,3.1554,3.1608,5.6568,5.722,5.6767,5.6239,5.4188,5.1092,4.6575,4.2477,0.0,0.0,3.0816,2.9356,2.8287,3.0129,3.2914,3.631,3.8441,4.1047,4.5019,4.6133,4.729,0.0,5.0107,5.0865,5.1679,5.1774,5.1888,5.2172,5.2693,5.2693,5.2002,5.2087,5.1575,5.0353,5.0856,5.0818,5.0107,4.9955,4.9557,4.8894,4.8609,4.7738,4.6392,4.598,4.5398,4.4745,4.4345,4.417,4.4121,4.3638,4.3419,4.3385,4.314,4.3032,4.3014,4.2755,4.3093,4.3782,4.408,4.4809,4.5515,4.5052,4.5373,4.593,4.5762,4.6726,4.7871,4.7871,4.7756,4.7571,4.7424,4.6831,4.6131,4.5516,4.5606,4.5745,4.5461,4.6323,4.7178,4.7307,4.761,4.7332,4.5865,4.5767,4.5449,4.4126,4.3816,4.3524,4.2955,4.2608,4.2359,4.221,4.1508,4.0942,4.0732,3.9252,3.7619,3.5994,3.5806,3.4945,3.3158,3.2866,3.257,3.2231,3.1986,3.1627,3.1172,3.1172,3.101,3.0617,3.0617,3.0576,5.6955,5.7408,5.7162,5.6765,5.3524,4.914,4.4197,0.0,0.0,0.0,2.8698,2.8181,2.7412,2.9987,0.0,3.5423,3.785,4.0724,4.444,4.5981,4.7477,4.9372,5.0719,5.1751,5.2329,5.2405,5.2592,5.3042,5.3455,5.3508,5.3091,5.3082,5.2305,5.0637,5.0799,5.0789,5.058,4.9967,4.9533,4.9311,4.8894,4.7943,4.6542,4.597,4.5123,4.4125,4.3767,4.383,4.4094,4.3214,4.3196,4.3597,4.2858,4.2637,4.2714,4.2541,4.3023,4.3778,4.4349,4.5,4.5677,4.5891,4.5917,4.5907,4.5968,4.6495,4.7166,4.7565,4.7743,4.7887,4.7887,4.7242,4.6544,4.6303,4.6303,4.6265,4.6033,4.6941,4.7812,4.7812,4.7915,4.7798,4.6934,4.6226,4.5504,4.4642,4.387,4.3201,4.2727,4.2521,4.2357,4.2194,4.176,4.111,4.0169,3.9168,3.7644,3.5462,3.515,3.441,3.2915,3.2213,3.1925,3.2021,3.1336,3.0874,3.0642,3.0642,3.0393,2.9913,2.9957,2.9826,5.6572,5.7212,5.7338,5.6841,5.2719,4.7439,4.2167,3.7831,0.0,2.8056,2.7171,2.7219,2.6756,0.0,3.1994,0.0,3.605,3.9051,4.2652,4.4706,4.6682,0.0,5.0656,0.0,5.2587,5.2698,5.2958,5.3645,5.3534,5.3345,5.3164,5.3176,5.2402,5.0741,5.0554,5.0554,5.0684,4.9765,4.9408,4.9646,4.9004,4.8087,4.6937,4.5942,4.4851,4.3658,4.3249,4.3451,4.403,4.3044,4.3113,4.3736,4.2775,4.256,4.2687,4.2601,4.3191,4.4049,4.4581,4.4974,4.5388,4.5953,4.6067,4.5918,4.5864,4.5968,4.6194,4.6686,4.7207,4.7659,4.7659,4.7216,4.6848,4.7031,4.6684,4.6385,4.669,4.7415,4.7937,4.7773,4.7783,4.7702,4.7257,4.6173,4.5178,4.4581,4.3489,4.2588,4.2222,4.2187,4.2123,4.1848,4.1596,4.089,3.9446,3.8759,3.734,3.4906,3.4491,3.379,3.2662,3.164,3.1331,3.1782,3.0833,3.0274,3.0274,3.0146,2.9913,2.956,2.9499,2.9273,5.6687,5.7623,5.7173,5.5031,5.1855,4.7548,4.1073,0.0,3.284,2.8656,2.6631,2.5822,2.6497,2.6969,0.0,0.0,0.0,3.6054,4.0472,4.3152,4.5697,4.8494,0.0,0.0,5.3423,5.3571,5.359,5.3683,5.2995,5.2252,5.1452,5.1504,5.0759,4.9086,4.974,4.9777,4.9049,4.8922,4.8885,4.8919,4.8844,4.8206,4.7145,4.6262,4.5239,4.4163,4.3043,4.303,4.3706,4.3255,4.3014,4.2979,4.281,4.2765,4.2765,4.252,4.3495,4.4924,4.4511,4.4583,4.4944,4.4759,4.5264,4.5877,4.5194,4.5421,4.5712,4.505,4.5191,4.5573,4.5573,4.6005,4.6658,4.7502,4.6795,4.6302,4.7579,4.7937,4.7773,4.7025,4.7156,4.6877,4.5444,4.5241,4.4873,4.3632,4.3312,4.2981,4.2376,4.2086,4.1846,4.1586,4.078,4.0042,3.9549,3.8164,3.6474,3.4481,3.43,3.3505,3.1696,3.1517,3.1269,3.0833,3.0725,3.0609,3.0485,2.9941,2.9722,2.975,2.9227,2.8997,5.3369,5.5129,5.5336,5.3423,4.9545,4.4635,3.8552,0.0,3.0427,2.6829,2.5616,2.5491,2.6324,2.7005,2.8452,0.0,0.0,0.0,3.7813,4.1022,4.3941,4.6331,4.9249,0.0,0.0,5.3017,5.3036,5.2969,5.2236,5.1454,5.0652,5.0583,5.004,4.8853,4.8955,4.8974,4.8816,4.8532,4.844,4.8566,4.8512,4.7831,4.6627,4.5747,4.4965,4.4247,4.3208,4.3446,4.4475,4.3376,4.3135,4.3441,4.2956,4.2798,4.2816,4.266,4.3372,4.4255,4.3638,4.3775,4.4278,4.4258,4.4483,4.4668,4.4371,4.4454,4.4597,4.4279,4.4528,4.4869,4.4869,4.5144,4.5576,4.6141,4.5659,4.5471,4.6944,4.6985,4.6722,4.6902,4.7016,4.6758,4.5525,4.5063,4.4485,4.3497,4.297,4.2383,4.1499,4.1292,4.093,4.0088,4.0403,4.0235,3.9161,3.8303,3.6745,3.4241,3.3825,3.2934,3.1202,3.0878,3.0634,3.0401,3.013,2.9913,2.9782,2.956,2.9212,2.8904,2.8748,2.8431,4.9216,5.1688,5.2784,5.143,4.7294,4.2173,0.0,0.0,2.8938,2.5906,2.5178,2.5258,2.5881,2.6768,2.8084,0.0,0.0,3.3115,3.5293,3.8677,4.163,4.3483,0.0,4.9193,5.1067,5.1982,5.2444,5.2387,5.1646,5.0832,5.0071,4.9783,4.9269,4.855,4.8192,4.8114,4.8365,4.7959,4.7838,4.7986,4.7926,4.7393,4.6416,4.5582,4.4979,4.4579,4.3658,4.3803,4.4676,4.388,4.3564,4.3564,4.3346,4.31,4.2871,4.2871,4.3364,4.3891,4.3135,4.3223,4.3656,4.3444,4.3374,4.3265,4.3265,4.3423,4.3535,4.3289,4.3474,4.3817,4.4092,4.4046,4.4153,4.489,4.4582,4.4574,4.6211,4.6195,4.5954,4.6275,4.6417,4.6031,4.468,4.4067,4.3474,4.2579,4.1959,4.1297,4.0394,4.0186,3.9806,3.8877,3.9508,3.9549,3.8443,3.7885,3.6549,3.4082,3.3423,3.2453,3.0975,3.0373,3.0087,3.0087,2.9782,2.956,2.947,2.9289,2.8904,2.8352,2.8271,2.791,4.4656,4.762,4.9676,4.8905,4.5342,4.0946,0.0,0.0,2.9106,2.6688,2.5557,2.5006,2.5013,2.5671,2.6512,2.7409,2.9554,0.0,3.3037,3.6122,3.8709,0.0,0.0,4.4161,4.7709,5.0516,5.2084,5.2084,5.1347,5.0538,4.9747,4.8938,4.8341,4.792,4.7511,4.7302,4.7302,4.7116,4.698,4.7025,4.7025,4.6934,4.6742,4.596,4.5468,4.5235,4.4424,4.4025,4.3974,4.4906,4.4336,4.2996,4.3943,4.3811,4.3103,4.3103,4.3616,4.42,4.3386,4.3103,4.2996,4.2105,4.1797,4.1815,4.1815,4.229,4.2658,4.185,4.171,4.2035,4.2864,4.2572,4.2473,4.4103,4.3898,4.3825,4.563,4.5996,4.5763,4.4993,4.5036,4.447,4.2132,4.1928,4.1583,4.0349,4.0105,3.9887,3.912,3.8799,3.8515,3.8225,3.7902,3.7631,3.7359,3.6603,3.5487,3.3984,3.3134,3.2182,3.1059,3.0226,2.9793,2.9793,2.9793,2.981,2.9793,2.9227,2.8764,2.8463,2.791,2.7473,3.7514,4.0059,4.1538,4.0763,3.8113,3.4871,3.1973,2.9107,2.6683,2.538,2.4982,2.4861,2.4861,2.517,2.6085,2.8074,2.9079,0.0,0.0,0.0,0.0,4.1422,4.6195,4.9707,5.084,5.1128,5.1275,5.1275,5.0538,4.9775,4.9028,4.8695,4.8191,4.7529,4.7363,4.7276,4.7205,4.7088,4.6888,4.6749,4.6749,4.6637,4.6489,4.5262,4.5244,4.6083,4.4135,4.4195,4.5505,4.4212,4.3701,4.3719,4.3554,4.3315,4.3103,4.3103,4.3262,4.3368,4.2607,4.2298,4.2184,4.2065,4.1909,4.1823,4.1934,4.2043,4.2071,4.1929,4.1902,4.1998,4.2288,4.219,4.2346,4.3419,4.3166,4.3233,4.5505,4.5566,4.5158,4.508,4.5237,4.4823,4.3092,4.2919,4.2745,4.1876,4.1311,4.0463,3.8893,3.82,3.7357,3.6038,3.5769,3.598,3.6688,3.6316,3.5258,3.3351,3.2628,3.1684,3.0359,2.9685,2.9303,2.9303,2.9013,2.8748,2.8542,2.8365,2.8171,2.786,2.7386,2.7026,0.0,3.4375,3.5993,3.581,3.3916,0.0,0.0,0.0,2.5518,2.4733,2.4629,2.4689,2.4651,2.502,2.5844,2.7422,2.8499,2.9851,0.0,0.0,0.0,4.1644,4.677,5.0073,5.0073,5.0196,5.0414,5.0737,5.0002,4.9259,4.8533,4.8434,4.8012,4.7205,4.7187,4.716,4.7133,4.6888,4.6542,4.6118,4.6071,4.5864,4.5482,4.464,4.4933,4.6076,4.4233,4.4241,0.0,4.4011,4.3403,4.3342,4.3235,4.3013,4.2789,4.2789,4.2789,4.2736,4.2274,4.2055,4.1995,4.2061,4.2037,4.1952,4.2061,4.1995,4.1884,4.203,4.203,4.2072,4.2115,4.2121,4.2311,4.281,4.2602,4.29,4.5143,4.4836,4.4306,4.4794,4.4431,4.3768,4.2898,4.2391,4.1997,4.1678,4.0888,3.98,3.8333,3.7267,3.6172,3.5021,3.4513,3.4513,3.5235,3.5218,3.4546,3.3028,3.2095,3.1166,3.0131,2.9171,2.8669,2.8669,2.8381,2.8152,2.7905,2.7575,2.7372,2.7152,2.6578,2.619,0.0,3.0161,3.2393,3.3221,0.0,0.0,0.0,0.0,0.0,0.0,0.0,2.45,2.45,2.5167,2.576,2.5945,2.7961,3.0006,0.0,3.4902,0.0,0.0,4.4491,4.6613,4.6418,4.8111,4.9549,5.0281,4.9603,4.8835,4.8139,4.8086,4.7747,4.7015,4.698,4.6998,4.6998,4.6537,4.5993,4.5376,4.5158,4.4753,4.4205,4.4152,4.4587,4.5414,4.4572,4.4289,4.4377,4.4218,4.3377,4.2334,4.2992,4.2899,4.2376,4.2376,4.2376,4.2376,4.2376,4.2341,4.2287,4.2145,4.2103,4.2103,4.2103,4.2055,4.203,4.2121,4.2103,4.2145,4.2287,4.2287,4.2287,4.2287,4.2246,4.2739,4.4444,4.3896,4.3333,4.4041,4.2934,4.1845,4.1746,4.0781,4.0036,4.0138,3.9312,3.8388,3.7535,3.6073,3.5072,3.5004,3.3966,3.3224,3.3171,3.3515,3.3515,3.2977,3.1628,3.0639,3.0164,2.8784,2.8016,2.7955,2.7905,2.779,2.7675,2.6826,2.6457,2.6404,2.5618,2.5175,2.3049,0.0,2.6444,2.6691,2.6405,2.5967,0.0,0.0,0.0,0.0,0.0,0.0,0.0,0.0,2.617,2.7438,2.8649,3.0352,3.2994,0.0,0.0,4.2358,4.6564,4.8657,4.6452,4.7572,4.8532,4.871,4.7997,4.7415,4.7126,4.7109,4.6991,4.6684,4.6778,4.6842,4.6842,4.6035,4.5853,4.6259,4.5156,4.483,4.523,4.4716,4.4582,4.4769,4.3916,4.4192,4.5169,4.3358,4.3127,4.3845,4.2899,4.2798,4.3233,4.3233,4.3233,4.3233,4.3233,4.2763,4.2145,4.2103,4.2145,4.2246,4.2246,4.2246,4.2205,4.2246,4.2246,4.2246,4.2287,4.2287,4.2228,4.1899,4.1839,4.2061,4.2926,4.3144,4.3019,4.2523,4.2425,4.2125,4.1323,4.1,4.0898,4.095,4.0103,3.897,3.7705,3.6179,3.4917,3.3975,3.3271,3.2734,3.2176,3.2788,3.2924,3.228,3.1533,3.0584,2.947,2.8981,2.8318,2.7357,2.673,2.6453,2.64,2.6,2.5783,2.5783,2.5508,2.5189,2.228,2.3377,2.4413,2.4893,2.4985,2.4985,0.0,0.0,0.0,0.0,0.0,0.0,0.0,0.0,0.0,0.0,2.946,0.0,0.0,0.0,4.3021,4.2816,4.5651,4.7293,4.6436,4.6632,4.7023,4.7392,4.6688,4.62,4.6102,4.6102,4.6102,4.6003,4.5702,4.5945,4.6888,4.5829,4.5317,4.5446,4.4032,4.3366,4.343,4.3054,4.31,4.3364,4.2517,4.2851,4.3834,4.2174,4.2016,4.2745,4.2149,4.2078,4.229,4.251,4.2441,4.2246,4.2246,4.2238,4.2212,4.2483,4.2774,4.3014,4.3014,4.3075,4.3002,4.246,4.2287,4.2328,4.2387,4.2205,4.2002,4.1839,4.1622,4.1655,4.2345,4.241,4.2293,4.2174,4.1852,4.16,4.1665,4.0667,4.0022,4.0718,3.9434,3.8156,3.7432,3.5705,3.4366,3.3814,3.2782,3.1936,3.1597,3.1591,3.1448,3.1058,3.0428,2.9486,2.8261,2.7762,2.7229,2.6549,2.604,2.5823,2.5823,2.5412,2.5133,2.5007,2.4624,2.4292,2.2984,2.3934,2.4829,2.53,2.5393,2.5375,0.0,0.0,0.0,0.0,0.0,0.0,0.0,0.0,0.0,0.0,0.0,0.0,3.7232,3.982,4.1669,4.2476,4.3747,4.4899,4.5736,4.5528,4.5579,4.6287,4.5682,4.5303,4.525,4.525,4.5198,4.5095,4.4354,4.4779,4.6404,4.5223,4.4413,4.399,4.2554,4.1639,4.1138,4.1138,4.1415,4.1847,4.1263,4.1401,4.1985,4.1129,4.0871,4.1004,4.13,4.1244,4.1039,4.1499,4.1395,4.1064,4.0896,4.1302,4.202,4.2444,4.305,4.3588,4.3588,4.3769,4.3733,4.2746,4.2459,4.2501,4.262,4.2228,4.1823,4.1894,4.1597,4.1527,4.2228,4.1884,4.1627,4.2311,4.1339,4.0806,4.208,4.0124,3.8812,4.0102,3.8448,3.7042,3.6964,3.5216,3.391,3.3879,3.2436,3.1396,3.1234,3.0455,2.9871,2.9581,2.8971,2.8123,2.7116,2.6188,2.5674,2.5702,2.5439,2.5328,2.5368,2.4791,2.4363,2.4118,2.3616,2.321,2.2977,2.5014,2.6701,2.5077,2.4648,2.4666,0.0,0.0,0.0,0.0,0.0,0.0,0.0,0.0,2.8361,0.0,0.0,3.6729,0.0,0.0,4.3521,4.1091,4.3954,4.5268,4.301,4.4301,4.5354,4.5475,4.5372,4.525,4.5161,4.5108,4.4799,4.4059,4.4027,4.3906,4.3718,4.2878,4.2871,4.3563,4.2044,4.1615,4.2183,4.2183,4.1841,4.1354,4.1799,4.2064,4.2098,4.1177,4.1181,4.1764,4.1155,4.1294,4.1836,4.224,4.2295,4.2108,4.1206,4.0595,4.0271,4.037,4.1212,4.2192,4.2192,4.2757,4.3305,4.311,4.3136,4.3231,4.3249,4.2812,4.2313,4.2004,4.1985,4.2001,4.1799,4.1966,4.2038,4.1788,4.1236,4.0951,4.146,4.0312,3.9422,3.965,3.877,3.7698,3.6631,3.5615,3.4577,3.3468,3.2736,3.1886,3.0702,3.0497,2.9774,2.8296,2.8147,2.7755,2.6905,2.5743,2.5222,2.5346,2.4426,2.4012,2.4185,2.3593,2.3305,2.3305,2.3198,2.3138,2.3398,2.4581,2.5637,2.5556,2.6509,2.7388,0.0,0.0,0.0,0.0,0.0,0.0,0.0,0.0,3.0818,3.4575,0.0,3.8244,3.9763,4.0791,4.1332,4.1087,4.2308,4.3071,4.2682,4.3491,4.4054,4.4226,4.3985,4.3917,4.4169,4.363,4.3225,4.3093,4.2429,4.1963,4.1765,4.1002,4.1289,4.2552,4.116,4.0737,4.116,4.1062,4.0825,4.0419,4.0728,4.0764,4.0595,4.0189,4.007,4.0321,4.0561,4.0626,4.0658,4.1194,4.1388,4.1288,4.0704,4.0488,4.0484,4.0927,4.1608,4.2424,4.2901,4.3365,4.3659,4.3303,4.3049,4.2909,4.2975,4.2586,4.2148,4.2132,4.1913,4.176,4.1649,4.1964,4.2029,4.1007,4.0609,4.0388,4.018,3.8737,3.7696,3.8135,3.7202,3.631,3.5846,3.4502,3.338,3.2849,3.1678,3.0646,3.004,2.9407,2.8608,2.7525,2.6945,2.6351,2.572,2.5118,2.4793,2.4693,2.4205,2.3961,2.4029,2.3838,2.359,2.3405,2.3405,2.3243,2.3692,2.4009,2.4446,2.5509,0.0,0.0,0.0,0.0,0.0,0.0,0.0,0.0,0.0,3.0751,0.0,3.6828,3.81,3.9174,4.0729,4.0037,3.9985,4.1643,4.1338,4.1574,4.2993,4.3007,4.3003,4.3081,4.2673,4.2525,4.2845,4.2014,4.164,4.1873,4.0833,4.0227,4.0171,3.9661,4.0033,4.1321,4.0341,3.9884,3.9867,4.0001,3.9929,3.9771,3.9771,3.9611,3.9412,3.9429,3.9232,3.9044,3.9996,4.0031,3.9634,4.0285,4.0369,4.0204,4.0148,4.0255,4.0491,4.0878,4.161,4.2385,4.2898,4.3246,4.3411,4.3138,4.2711,4.2385,4.2547,4.2206,4.1977,4.2349,4.2172,4.1898,4.1996,4.2005,4.1765,4.0667,3.9994,3.9467,3.9172,3.7477,3.6386,3.6983,3.6064,3.5178,3.5016,3.3536,3.2457,3.2184,3.0694,2.9561,2.9156,2.8225,2.7474,2.6947,2.5986,2.5231,2.4782,2.4718,2.4582,2.4305,2.4166,2.4041,2.4054,2.3979,2.3854,2.3666,2.3726,2.3503,2.3432,2.4075,2.4603,2.4061,0.0,0.0,0.0,0.0,0.0,0.0,0.0,0.0,0.0,3.223,3.3556,3.4536,3.7297,3.9794,4.1063,4.2008,4.2537,4.2548,4.2762,4.2977,4.3096,4.3113,4.2851,4.2272,4.2173,4.1862,4.1238,4.1107,4.0762,4.0123,4.0008,3.9631,3.8942,3.9002,3.9309,3.9848,3.9763,3.9556,3.9276,4.008,4.0304,4.0045,3.9933,3.9877,3.982,3.974,3.9552,3.9405,3.9658,3.9865,4.0046,4.0718,4.0371,3.9612,3.9782,3.9444,3.8898,3.8344,3.9486,4.1017,4.0376,4.0786,4.1559,4.236,4.2219,4.195,4.2386,4.2169,4.195,4.2696,4.3043,4.3284,4.3284,4.2276,4.1316,4.1252,3.9563,3.8357,3.8966,3.8006,3.7143,3.7269,3.6748,3.5896,3.4534,3.3912,3.299,3.1391,3.0729,2.982,2.8276,2.7471,2.6867,2.6501,2.5701,2.518,2.5,2.4782,2.4641,2.4486,2.399,2.3666,2.3552,2.335,2.335,2.3501,2.3863,2.4071,2.3324,2.4462,2.5601,2.5634,0.0,0.0,0.0,0.0,0.0,0.0,0.0,0.0,0.0,0.0,3.6373,3.6006,3.8665,4.1096,4.1973,4.2021,4.207,4.2459,4.212,4.1908,4.2154,4.2077,4.1963,4.1901,4.1171,4.0745,4.0883,4.0132,3.9762,3.9773,3.9331,3.8933,3.8544,3.86,3.8711,3.8876,3.9077,3.9061,3.8952,3.9194,3.9253,3.9159,3.9103,3.9047,3.8967,3.891,3.8723,3.8541,3.9262,3.959,3.9801,4.0499,4.0325,3.9658,3.9275,3.9017,3.8882,3.8771,3.9263,3.9907,4.0203,4.0489,4.0743,4.0754,4.0606,4.0857,4.2463,4.2764,4.2724,4.3125,4.319,4.2982,4.2281,4.1711,4.0812,3.9141,3.8215,3.7496,3.6957,3.647,3.6174,3.6174,3.5606,3.4955,3.4341,3.282,3.1431,3.0583,2.9173,2.8048,2.7416,2.7066,2.6726,2.6577,2.6173,2.5812,2.5567,2.5351,2.5031,2.4484,2.4542,2.4075,2.3147,2.3328,2.3136,2.2564,2.2639,2.2546,2.3719,2.4545,2.5596,0.0,0.0,0.0,0.0,0.0,0.0,0.0,0.0,0.0,0.0,0.0,0.0,0.0,3.9364,4.1403,4.1889,4.186,4.194,4.2199,4.1943,4.1701,4.1659,4.1565,4.1371,4.1113,4.0303,3.9862,4.004,3.9266,3.8939,3.9202,3.8804,3.8488,3.8351,3.8391,3.8391,3.8351,3.8432,3.8528,3.8528,3.8699,3.874,3.8642,3.8642,3.8601,3.8518,3.8518,3.837,3.8291,3.9168,3.9439,3.9328,4.0056,4.0023,3.9463,3.9014,3.8974,3.906,3.8995,3.9134,3.9408,4.0069,4.0069,3.9891,4.0049,3.9928,4.014,4.1727,4.2288,4.261,4.2977,4.2846,4.2378,4.1552,4.0716,3.955,3.7758,3.7085,3.6603,3.5629,3.5359,3.5213,3.4971,3.438,3.3808,3.331,3.1504,3.0019,2.9236,2.7769,2.6807,2.6807,2.6726,2.6658,2.6658,2.6508,2.6302,2.591,2.5535,2.496,2.4123,2.4178,2.3656,2.2364,2.2799,2.2689,2.2015,2.2071,2.1959,2.4624,2.427,0.0,0.0,0.0,0.0,0.0,0.0,0.0,0.0,0.0,3.6059,3.6786,3.5794,0.0,3.667,3.8923,4.048,4.048,4.1849,4.2623,4.189,4.2549,4.2757,4.1873,4.1808,4.1162,3.9648,3.9476,3.9153,3.844,3.8391,3.8351,3.8221,3.8351,3.8335,3.818,3.8351,3.8351,3.818,3.7992,3.7902,3.7902,3.8782,3.9017,3.881,3.881,3.881,3.881,3.881,3.881,3.8829,3.9296,3.9184,3.8782,3.9513,3.9476,3.899,3.9151,3.9194,3.9108,3.8561,3.8877,3.9518,3.9675,3.9056,3.8756,4.05,4.0443,3.992,3.9951,4.0577,4.1362,4.2078,4.1912,4.1578,4.1561,3.9439,3.7527,3.7463,3.6413,3.5504,3.5504,3.5148,3.4624,3.3848,3.3435,3.2593,3.1106,3.0151,2.9023,2.7204,2.6734,2.6533,2.6533,2.6533,2.6533,2.6465,2.6465,2.6327,2.591,2.5087,2.4247,2.3303,2.2715,2.1974,2.1183,2.1618,2.1905,2.2099,2.239,2.2776,2.3336,0.0,0.0,0.0,0.0,0.0,0.0,0.0,0.0,0.0,0.0,3.8025,3.7814,3.7962,0.0,3.7168,3.857,3.9784,3.9784,4.0621,4.1107,4.0896,4.1557,4.172,4.0945,4.088,4.0507,3.9541,3.9007,3.8634,3.8408,3.8391,3.8351,3.8221,3.8237,3.8164,3.7992,3.8049,3.7786,3.7282,3.7222,3.7417,3.7743,3.7907,3.8003,3.8018,3.8018,3.8018,3.8018,3.8018,3.8018,3.8082,3.8842,3.8727,3.82,3.8994,3.8921,3.8428,3.8486,3.8544,3.861,3.8456,3.8537,3.8772,3.8885,3.8683,3.8472,3.8656,3.855,3.819,3.7815,3.8423,3.9297,4.0016,4.0176,3.9847,3.8921,3.8074,3.7213,3.6288,3.5529,3.5082,3.5082,3.4341,3.3602,3.3366,3.2307,3.1093,2.9781,2.8975,2.827,2.7471,2.6818,2.6533,2.6533,2.6533,2.6164,2.5511,2.5441,2.5523,2.5676,2.4933,2.4022,2.3092,2.2761,2.194,2.0713,2.1124,2.0978,2.0247,2.0409,2.0537,2.4982,0.0,0.0,0.0,0.0,0.0,0.0,0.0,0.0,0.0,0.0,3.8794,3.8755,3.8711,3.8486,3.7748,3.8688,3.9379,3.9088,3.9747,4.0188,4.0167,4.0631,4.0639,3.987,3.9806,3.9381,3.8321,3.7875,3.7578,3.7578,3.7578,3.7535,3.7433,3.7476,3.7417,3.7254,3.7298,3.7087,3.6707,3.6662,3.6799,3.7074,3.6952,3.6892,3.6997,3.6997,3.6997,3.6997,3.7238,3.7373,3.7464,3.828,3.836,3.804,3.8531,3.8476,3.8294,3.8294,3.8335,3.8351,3.8091,3.8148,3.8383,3.8264,3.811,3.795,3.7821,3.75,3.71,3.6492,3.6879,3.767,3.8654,3.8811,3.845,3.7683,3.6945,3.622,3.5419,3.4706,3.4274,3.4356,3.3325,3.2437,3.2222,3.093,2.9628,2.8746,2.82,2.7729,2.7299,2.6851,2.6314,2.5955,2.5861,2.5417,2.448,2.4337,2.4337,2.4432,2.3902,2.3161,2.228,2.1891,2.1165,2.0034,2.034,2.0159,1.9563,1.9672,1.9794,0.0,0.0,0.0,0.0,0.0,0.0,0.0,0.0,0.0,4.0173,0.0,3.8967,3.9518,3.8537,3.7806,3.8448,3.8917,3.9021,3.8375,3.9038,3.9569,3.9493,3.9682,3.9508,3.8658,3.8594,3.7991,3.6492,3.6384,3.6384,3.6384,3.6384,3.6337,3.6196,3.6352,3.6337,3.6196,3.6337,3.6322,3.6259,3.618,3.6006,3.5943,3.5928,3.5913,3.5913,3.5913,3.5913,3.5976,3.6585,3.6845,3.6906,3.7551,3.786,3.8049,3.8049,3.8091,3.8205,3.8205,3.8205,3.8148,3.7535,3.7711,3.8129,3.7685,3.7435,3.7288,3.7359,3.6955,3.6306,3.5672,3.5752,3.6333,3.7515,3.7545,3.7244,3.7244,3.5949,3.4787,3.4787,3.3837,3.3115,3.3283,3.2164,3.1053,3.0493,2.9316,2.8409,2.798,2.7651,2.7336,2.6917,2.6536,2.5873,2.5004,2.4755,2.423,2.3441,2.322,2.2936,2.2499,2.2435,2.1897,2.1068,2.0557,1.9942,1.9301,1.9557,1.9645,1.9645,1.9863,2.0001,0.0,0.0,0.0,0.0,0.0,0.0,0.0,0.0,3.8667,3.8714,3.9434,4.0167,4.0479,3.928,3.8542,3.93,3.8114,3.7199,3.7551,3.7824,3.7981,3.7966,3.8449,3.8525,3.7809,3.7747,3.739,3.6492,3.6384,3.6384,3.6384,3.6384,3.6384,3.6337,3.6384,3.6384,3.6337,3.6244,3.5915,3.537,3.5255,3.4824,3.4196,3.5335,3.5991,3.6133,3.6133,3.6133,3.6133,3.6321,3.6368,3.6383,3.6662,3.6768,3.6768,3.6768,3.6829,3.6814,3.6814,3.6814,3.6829,3.6631,3.6707,3.6784,3.6522,3.6321,3.6041,3.5394,3.5103,3.4846,3.4249,3.4317,3.4601,3.4919,3.523,3.5377,3.5112,3.4293,3.3616,3.3782,3.2861,3.2146,3.2146,3.1106,2.9973,2.9094,2.8803,2.8438,2.7681,2.7245,2.6764,2.5955,2.5113,2.4552,2.4337,2.3963,2.3368,2.2403,2.2253,2.1886,2.1088,2.1593,2.1527,2.0712,2.0255,1.9863,1.9557,1.9715,1.9863,1.9863,2.0108,2.0082,0.0,0.0,0.0,0.0,0.0,0.0,0.0,0.0,3.7235,3.7385,3.8328,3.9017,3.8642,3.8038,3.7665,3.7799,3.6878,3.6166,3.6353,3.6171,3.6075,3.6383,3.6572,3.6451,3.5989,3.617,3.5889,3.5154,3.5139,3.5204,3.5204,3.5204,3.5204,3.5204,3.5124,3.5124,3.5204,3.4993,3.4795,3.4505,3.437,3.3977,3.3507,3.4423,3.5088,3.5365,3.5365,3.5365,3.5365,3.5672,3.58,3.5864,3.6275,3.6384,3.6384,3.6384,3.6384,3.6384,3.6384,3.6306,3.6166,3.5867,3.5867,3.5852,3.5109,3.5014,3.4934,3.423,3.407,3.4099,3.3854,3.4005,3.3977,3.352,3.4016,3.4601,3.4414,3.3644,3.2975,3.3241,3.1928,3.0986,3.1589,3.0804,2.9795,2.8931,2.8179,2.751,2.6869,2.5981,2.5256,2.4876,2.4197,2.3599,2.3147,2.2776,2.2253,2.1375,2.1221,2.1001,2.0644,2.0769,2.0702,2.0489,2.0098,1.9863,1.9715,1.9951,2.0098,2.0098,2.0108,1.9984,0.0,0.0,0.0,0.0,0.0,0.0,0.0,0.0,3.5839,3.6013,3.6689,3.7024,3.6213,3.6166,3.6166,3.5806,3.5631,3.5374,3.5245,3.4618,3.4447,3.4999,3.4714,3.4409,3.4259,3.4543,3.4438,3.3744,3.3758,3.3896,3.3896,3.3813,3.3813,3.3896,3.3675,3.3675,3.3896,3.3675,3.3605,3.3827,3.3536,3.3368,3.3269,3.3479,3.3839,3.4196,3.4196,3.4196,3.4264,3.489,3.5139,3.5204,3.5755,3.593,3.593,3.5867,3.5867,3.5867,3.5867,3.5788,3.5518,3.4963,3.5029,3.5014,3.3825,3.3756,3.407,3.3577,3.3452,3.3591,3.3854,3.3839,3.3534,3.2692,3.3143,3.3825,3.3825,3.2918,3.2177,3.2461,3.083,2.9819,3.0932,3.0423,2.9616,2.8852,2.7514,2.6347,2.5778,2.457,2.3776,2.37,2.3415,2.2832,2.2012,2.1634,2.1252,2.0674,2.0381,2.0333,2.0489,2.002,1.9863,2.0108,1.9942,1.9784,1.9784,2.002,2.0108,2.0108,1.9863,1.9747,0.0,0.0,0.0,0.0,0.0,0.0,0.0,0.0,3.5289,0.0,3.4985,3.5995,3.5869,3.5469,3.524,3.5582,3.4795,3.4249,3.4647,3.4235,3.4005,3.4074,3.4005,3.3951,3.3951,3.402,3.3951,3.3896,3.3744,3.3744,3.3896,3.3577,3.3507,3.3896,3.3675,3.3675,3.3896,3.3536,3.3326,3.3396,3.2789,3.2704,3.3058,3.2917,3.3058,3.3479,3.3479,3.3479,3.3479,3.3825,3.4031,3.4031,3.4099,3.4153,3.4085,3.3796,3.3728,3.3728,3.3728,3.3728,3.3659,3.3604,3.3687,3.3785,3.3199,3.3213,3.3368,3.2931,3.2931,3.3058,3.3129,3.2747,3.2304,3.2218,3.1783,3.1402,3.1402,3.0657,3.0152,3.0317,2.934,2.8744,2.9509,2.8758,2.7873,2.7475,2.6989,2.6184,2.4535,2.4199,2.3688,2.2778,2.21,2.1679,2.161,2.1085,2.0801,2.0893,2.0308,1.9942,2.002,1.939,1.9231,1.946,1.9381,1.9311,1.9161,1.9311,1.946,1.946,1.9381,1.9196,2.4567,0.0,0.0,0.0,0.0,0.0,0.0,0.0,3.3717,3.3339,3.3891,3.4447,3.4528,3.4423,3.4317,3.4327,3.3908,3.3591,3.352,3.3339,3.3227,3.3227,3.3297,3.3368,3.3227,3.3452,3.3536,3.3437,3.3452,3.3466,3.3536,3.3382,3.3297,3.3368,3.3297,3.3297,3.3368,3.3213,3.3086,3.2931,3.2704,3.2561,3.2516,3.2444,3.2717,3.3269,3.3269,3.3269,3.3339,3.3479,3.3479,3.3479,3.3479,3.3563,3.366,3.3507,3.3521,3.366,3.366,3.3577,3.3452,3.3452,3.3368,3.3213,3.3058,3.3002,3.2931,3.2917,3.2917,3.3058,3.3157,3.2618,3.2015,3.1649,3.097,3.0291,2.9935,2.9871,2.9793,2.9509,2.9584,2.9382,2.8859,2.845,2.7765,2.6521,2.537,2.4377,2.339,2.2689,2.2105,2.1812,2.1545,2.1347,2.1347,2.1091,2.0795,2.0504,2.0235,1.9949,1.9548,1.9082,1.8843,1.8922,1.9073,1.9152,1.9152,1.9222,1.9301,1.9301,1.9152,1.9061,0.0,0.0,0.0,0.0,0.0,0.0,0.0,0.0,3.2185,0.0,3.2812,3.3087,3.324,3.3575,3.3605,3.3312,3.3241,3.3171,3.2846,3.2846,3.2846,3.2846,3.3002,3.3002,3.286,3.3086,3.3241,3.3072,3.3157,3.3241,3.3326,3.3171,3.3157,3.3072,3.3058,3.2988,3.3072,3.3058,3.2917,3.2704,3.2704,3.2574,3.2314,3.2314,3.266,3.3129,3.3072,3.3002,3.3002,3.3199,3.3199,3.3199,3.3283,3.3368,3.3536,3.3382,3.3452,3.3591,3.3591,3.3521,3.3382,3.3382,3.3213,3.2988,3.2988,3.2761,3.2618,3.3002,3.2761,3.2547,3.2945,3.2318,3.1489,3.1071,3.0304,2.9549,2.9197,2.9465,2.9671,2.9155,2.9371,2.9294,2.8198,2.7729,2.6956,2.5441,2.3957,2.2894,2.2399,2.155,2.1127,2.1212,2.1287,2.1287,2.1287,2.1193,2.0949,2.0485,2.0209,1.9934,1.947,1.8967,1.8681,1.8681,1.8736,1.8834,1.8984,1.8984,1.8984,1.8984,1.8922,1.8843,0.0,0.0,0.0,0.0,0.0,0.0,0.0,0.0,3.1093,3.0546,3.1531,3.2455,3.2455,3.2932,3.3241,3.3072,3.3157,3.3241,3.2988,3.3157,3.3255,3.3255,3.3255,3.3241,3.3241,3.3326,3.3326,3.3326,3.3143,3.3072,3.3326,3.2931,3.2931,3.3241,3.3072,3.3072,3.3241,3.3072,3.2917,3.2704,3.2704,3.2704,3.2704,3.2704,3.2704,3.2704,3.2372,3.2255,3.2314,3.2789,3.2988,3.3058,3.3241,3.3326,3.3241,3.286,3.2775,3.2775,3.2775,3.2775,3.2775,3.2775,3.2846,3.2988,3.2988,3.2605,3.2304,3.3086,3.2187,3.1193,3.2187,3.1267,3.0139,3.0317,2.9419,2.8657,2.9052,2.9217,2.9262,2.8901,2.781,2.6987,2.7139,2.5683,2.4377,2.3841,2.3394,2.2795,2.1845,2.1667,2.1618,2.1404,2.1358,2.1358,2.1358,2.1071,2.0922,2.1062,2.0287,1.9818,1.98,1.9002,1.8645,1.8645,1.8211,1.804,1.8031,1.8031,1.8031,1.8031,1.8362,1.8434,0.0,0.0,0.0,0.0,0.0,2.7981,2.8507,2.9673,3.0667,3.0443,3.1152,3.1822,3.1822,3.2637,3.3255,3.3227,3.3241,3.3241,3.3227,3.3241,3.3326,3.3326,3.3326,3.3326,3.3326,3.296,3.2736,3.2736,3.2652,3.2484,3.2174,3.2373,3.2514,3.2528,3.2583,3.2849,3.3326,3.3241,3.3072,3.2917,3.2917,3.2846,3.2704,3.2704,3.2704,3.2704,3.2561,3.2503,3.2503,3.2704,3.2846,3.2846,3.286,3.3002,3.3072,3.2917,3.3002,3.3086,3.3086,3.3086,3.3086,3.3086,3.2775,3.2448,3.2448,3.1928,3.1415,3.1649,3.1429,3.122,3.1529,3.0921,3.0088,2.9484,2.8882,2.851,2.8669,2.8286,2.7848,2.773,2.6849,2.5837,2.5072,2.4355,2.3559,2.2541,2.2325,2.2167,2.2008,2.183,2.1774,2.1803,2.1618,2.1441,2.1441,2.111,2.0799,2.0447,2.014,1.986,1.9444,1.9127,1.8965,1.8965,1.8482,1.8179,1.804,1.804,1.804,1.804,1.8121,1.8121,2.1207,0.0,0.0,0.0,0.0,2.6794,2.8024,2.9064,2.9826,3.0136,3.0726,3.1162,3.1162,3.2005,3.2707,3.2707,3.289,3.3016,3.3016,3.3185,3.3326,3.3326,3.3326,3.3171,3.2931,3.2611,3.2261,3.2041,3.2261,3.2064,3.1152,3.1926,3.2246,3.19,3.2218,3.2443,3.2625,3.2834,3.269,3.2318,3.2318,3.2245,3.2101,3.2101,3.2101,3.2101,3.2028,3.2245,3.2704,3.2775,3.2618,3.2331,3.2475,3.239,3.216,3.2232,3.239,3.2475,3.2475,3.2475,3.2475,3.2475,3.2101,3.1709,3.1709,3.1119,3.0594,3.0908,3.0683,3.0469,3.0771,3.0241,2.9484,2.8724,2.8167,2.7753,2.7672,2.7359,2.7065,2.6905,2.5906,2.4773,2.3684,2.3231,2.2736,2.182,2.1741,2.1741,2.183,2.1741,2.1651,2.1731,2.1463,2.1293,2.1293,2.1006,2.072,2.0297,2.0191,1.9989,1.9564,1.9427,1.9126,1.8629,1.8161,1.7548,1.687,1.7491,1.7811,1.7803,1.7848,1.7781,0.0,0.0,0.0,0.0,0.0,0.0,2.77,0.0,2.8554,2.9369,3.0052,3.0437,3.0502,3.1007,3.1429,3.1429,3.1963,3.2302,3.2302,3.2835,3.3213,3.3213,3.3241,3.2931,3.216,3.2235,3.2027,3.1219,3.1875,3.1735,3.0392,3.1598,3.2036,3.1433,3.1994,3.1931,3.1094,3.1762,3.1609,3.0869,3.0882,3.0895,3.0895,3.0895,3.0895,3.0895,3.0683,3.1355,3.2618,3.2846,3.2318,3.1502,3.1928,3.1489,3.0607,3.082,3.0895,3.0895,3.0895,3.0895,3.0895,3.0895,3.0882,3.0882,3.0882,3.0291,2.9858,3.0846,3.0012,2.8949,2.9768,2.925,2.8351,2.7962,2.7185,2.6307,2.5902,2.6444,2.697,2.649,2.4992,2.3702,2.3174,2.2334,2.1741,2.1741,2.1741,2.1651,2.1392,2.1392,2.1293,2.0997,2.0997,2.0997,2.0997,2.0736,2.0645,2.0645,2.0382,2.0201,2.0201,1.986,1.8941,1.7494,1.7087,1.6154,1.4741,1.6553,1.7391,1.7383,1.7532,1.7277,2.1403,0.0,0.0,0.0,0.0,0.0,2.609,2.7194,2.8066,2.8537,2.9111,2.9539,2.9792,2.9572,2.9347,2.9347,3.0225,3.0925,3.0925,3.0999,3.1021,3.1021,3.1309,3.1502,3.1267,3.0897,3.0379,2.9826,2.9927,2.9744,2.894,2.9678,3.0001,2.984,2.9904,2.9746,2.9366,3.0099,3.0241,2.9934,3.0598,3.0895,3.0895,3.0895,3.0895,3.0895,3.0683,3.0833,3.1206,3.1267,3.1132,3.0833,3.0983,3.0745,3.0443,3.0594,3.0683,3.067,3.082,3.0895,3.0895,3.0895,3.0519,2.9999,2.9999,2.9549,2.9028,2.9015,2.8949,2.8803,2.8882,2.8498,2.8042,2.7973,2.6928,2.5986,2.5819,2.4988,2.4181,2.4049,2.3115,2.2307,2.2097,2.1909,2.1741,2.1741,2.1741,2.1651,2.1651,2.1482,2.1392,2.1293,2.1015,2.0736,2.0736,1.9903,1.9347,1.9347,1.8603,1.8133,1.8133,1.8049,1.7574,1.6813,1.6281,1.5734,1.4894,1.5283,1.5504,1.5504,1.5325,1.5115,0.0,0.0,0.0,0.0,0.0,0.0,2.5905,2.687,2.7711,2.8651,2.9097,2.9352,2.954,2.8853,2.8312,2.8376,2.8411,2.8654,2.9482,2.9667,2.9751,2.9751,3.0053,3.0103,2.9735,2.9522,2.9041,2.8434,2.869,2.8673,2.8265,2.7996,2.7965,2.8079,2.8298,2.8247,2.7911,2.861,2.8775,2.8553,2.9105,2.9344,2.9344,2.9344,2.9434,2.9614,2.9291,2.9369,2.9537,2.9381,2.9512,2.982,2.9909,2.9691,2.9303,2.9537,2.9626,2.9704,2.9858,2.9922,2.9922,2.9922,2.9471,2.8949,2.9015,2.87,2.8235,2.8247,2.8339,2.8419,2.8271,2.7615,2.7021,2.7021,2.583,2.4628,2.4628,2.3521,2.2668,2.3008,2.2334,2.1741,2.1741,2.1741,2.1642,2.1454,2.1463,2.1472,2.1195,2.1114,2.1032,2.0934,2.0654,2.0374,1.9911,1.9255,1.8603,1.8226,1.7669,1.7196,1.6994,1.6994,1.6462,1.5398,1.5136,1.4633,1.3805,1.4216,1.4514,1.4555,1.447,1.4196,0.0,0.0,0.0,0.0,2.3871,0.0,2.6243,2.6689,2.7118,2.87,2.9035,2.9133,2.9133,2.8329,2.7677,2.7897,2.6438,2.5975,2.7864,2.8586,2.895,2.8937,2.9002,2.8756,2.7986,2.8094,2.7844,2.703,2.764,2.7963,2.7741,2.6602,2.6107,2.6402,2.6879,2.6952,2.653,2.7191,2.7325,2.7012,2.7151,2.7185,2.7185,2.7185,2.7441,2.78,2.736,2.7522,2.8018,2.7603,2.7891,2.8652,2.8834,2.8566,2.7881,2.8099,2.8339,2.851,2.851,2.851,2.8431,2.8431,2.8203,2.7881,2.8099,2.7846,2.7603,2.8018,2.803,2.7812,2.7812,2.6857,2.5819,2.5819,2.4457,2.3096,2.3096,2.2325,2.1989,2.2755,2.2246,2.1731,2.1651,2.1651,2.1553,2.1087,2.1195,2.1114,2.0473,2.0564,2.0564,2.0192,2.0102,1.9729,1.8696,1.8511,1.8041,1.7196,1.7016,1.6626,1.623,1.6135,1.5363,1.3737,1.3707,1.3118,1.2086,1.3302,1.3964,1.4174,1.4174,1.3869,0.0,0.0,0.0,0.0,2.4116,0.0,2.4268,2.4509,2.4847,2.5152,2.5578,2.5986,2.6385,2.5755,2.5229,2.532,2.4659,2.4688,2.6346,2.6476,2.6542,2.6747,2.6993,2.7049,2.6899,2.6791,2.6414,2.5713,2.5666,2.5654,2.558,2.5351,2.5218,2.528,2.5226,2.5033,2.4771,2.5879,2.6303,2.6084,2.6827,2.7185,2.7185,2.7185,2.7267,2.7348,2.7044,2.7056,2.7138,2.688,2.729,2.8018,2.8111,2.8042,2.7881,2.8099,2.8259,2.8259,2.8431,2.8283,2.8042,2.8042,2.7696,2.7348,2.7603,2.7672,2.7742,2.795,2.7638,2.7313,2.7313,2.661,2.5819,2.5819,2.4457,2.3096,2.3096,2.2325,2.1731,2.1909,2.182,2.1651,2.1482,2.1482,2.1383,2.1087,2.0997,2.1006,2.0654,2.0654,2.0283,1.9255,1.9072,1.8696,1.7669,1.6828,1.6264,1.6075,1.4949,1.4196,1.41,1.3902,1.3397,1.2684,1.2495,1.2288,1.2057,1.2133,1.2282,1.2513,1.2513,1.2541,0.0,0.0,2.35,2.3749,2.3739,0.0,0.0,2.3892,2.4216,2.4654,2.4956,2.523,2.5453,2.4694,2.4047,2.4292,2.3691,2.3568,2.4486,2.4867,2.5081,2.5288,2.5377,2.5468,2.5554,2.5394,2.514,2.4897,2.48,2.4726,2.4579,2.4568,2.4608,2.471,2.457,2.4579,2.4926,2.5394,2.568,2.5842,2.6345,2.6539,2.6539,2.6539,2.6704,2.6857,2.6633,2.6644,2.6891,2.6644,2.6891,2.7394,2.7301,2.7301,2.7394,2.7545,2.7615,2.7684,2.7846,2.7696,2.7534,2.7534,2.729,2.7115,2.7267,2.7429,2.7522,2.7545,2.7394,2.7056,2.661,2.5841,2.5073,2.4542,2.3434,2.2334,2.2246,2.1909,2.1472,2.1365,2.1365,2.1374,2.1392,2.1293,2.1105,2.0736,2.0357,1.9985,1.9629,1.9255,1.8788,1.8334,1.8241,1.777,1.664,1.6075,1.5514,1.4669,1.3913,1.3443,1.3152,1.305,1.2759,1.237,1.2247,1.2284,1.2395,1.2138,1.221,1.2417,1.2417,1.267,2.4146,2.3839,2.3653,2.3377,2.3187,2.3136,0.0,0.0,0.0,2.438,2.4477,2.4477,2.4532,2.3705,2.3101,2.3263,2.2813,2.2484,2.2511,2.315,2.3815,2.4236,2.4246,2.4264,2.4271,2.4045,2.3982,2.4334,2.4232,2.4137,2.4105,2.4043,2.4198,2.4385,2.4433,2.4837,2.5569,2.5436,2.5596,2.599,2.5906,2.5895,2.5895,2.5895,2.6135,2.6456,2.6313,2.6479,2.6809,2.6644,2.6644,2.6727,2.6727,2.6809,2.6974,2.6974,2.7033,2.7185,2.7185,2.7185,2.7103,2.7115,2.7044,2.6891,2.7115,2.7208,2.7231,2.7231,2.7231,2.6962,2.5997,2.5158,2.4231,2.3357,2.2325,2.1562,2.1383,2.1302,2.1293,2.0997,2.0907,2.1006,2.1212,2.0916,2.0538,2.0102,1.9347,1.8688,1.8241,1.7669,1.7397,1.7404,1.7505,1.6936,1.5609,1.552,1.4956,1.3636,1.3443,1.3152,1.2861,1.2764,1.2662,1.2565,1.248,1.2672,1.2958,1.2666,1.2674,1.2769,1.2864,1.3065,2.4044,2.348,2.3304,2.3024,2.2785,2.2509,2.2102,0.0,2.1849,2.1704,0.0,2.1532,2.1632,0.0,0.0,2.0836,2.1234,2.1287,2.044,2.1018,2.2032,2.3354,2.4114,2.426,2.3653,2.3028,2.3073,2.3902,2.321,2.3015,2.3621,2.3666,2.3902,2.4385,2.4758,2.5262,2.5742,2.6013,2.6102,2.6146,2.599,2.5895,2.5895,2.5895,2.5979,2.6229,2.624,2.6407,2.6644,2.6644,2.6479,2.6324,2.6727,2.6962,2.7185,2.7185,2.7185,2.7185,2.7185,2.694,2.661,2.688,2.6891,2.6891,2.6891,2.7056,2.7231,2.7231,2.7231,2.6962,2.5997,2.5158,2.4231,2.3357,2.2246,2.1392,2.1096,2.1087,2.1006,2.0736,2.0744,2.0736,2.0744,1.9994,1.9338,1.898,1.8133,1.7475,1.739,1.7584,1.7311,1.6466,1.6574,1.6103,1.458,1.4484,1.4202,1.3539,1.3152,1.2861,1.2764,1.257,1.2662,1.305,1.2834,1.2931,1.3443,1.3119,1.2915,1.2818,1.3011,1.3221,2.3971,2.3566,2.3369,2.2666,2.2374,2.2059,2.1439,2.1256,2.1158,2.1073,0.0,0.0,0.0,0.0,0.0,0.0,2.0658,2.073,2.0104,2.0641,2.1325,2.1877,2.2089,2.2287,2.2491,2.2981,2.3444,2.3717,2.35,2.3444,2.3728,2.374,2.4112,2.4977,2.5204,2.5611,2.6411,2.6295,2.624,2.624,2.599,2.599,2.6063,2.6063,2.624,2.6396,2.6396,2.6479,2.6644,2.6644,2.6479,2.624,2.6407,2.6479,2.6467,2.6467,2.6467,2.6467,2.655,2.6467,2.6385,2.6809,2.6891,2.6809,2.6362,2.6351,2.6268,2.5779,2.5611,2.5348,2.4286,2.377,2.3183,2.2129,2.1535,2.1105,2.0916,2.0826,2.0736,2.0473,2.0564,2.0744,2.0744,1.972,1.8972,1.9063,1.7669,1.6648,1.6648,1.6082,1.5622,1.5343,1.5153,1.4675,1.3919,1.3823,1.363,1.3152,1.2958,1.2861,1.2953,1.2856,1.2953,1.3346,1.3249,1.3346,1.3539,1.3346,1.3249,1.3249,1.3249,1.3534,2.3743,2.3405,2.3151,2.2261,2.1884,2.1577,2.0959,2.0957,2.1062,2.1112,2.1075,0.0,0.0,0.0,2.0497,0.0,0.0,2.0207,1.9544,2.0044,2.0514,2.0673,2.0549,2.0741,2.1407,2.2511,2.3194,2.3322,2.3561,2.3746,2.3959,2.397,2.4437,2.5438,2.5472,2.5961,2.6962,2.6561,2.6396,2.6396,2.6146,2.6146,2.6313,2.6313,2.6479,2.6644,2.6644,2.6727,2.6727,2.6727,2.6644,2.6407,2.6313,2.6157,2.599,2.5906,2.5895,2.5895,2.6157,2.6313,2.6479,2.6809,2.6798,2.6539,2.5997,2.5663,2.5326,2.4659,2.4498,2.4231,2.2999,2.2736,2.2385,2.1257,2.0997,2.0826,2.0654,2.0564,2.0473,2.0201,2.0473,2.0744,2.0736,1.9712,1.888,1.8872,1.7397,1.6096,1.5913,1.5057,1.449,1.4694,1.4298,1.3908,1.3539,1.3539,1.3346,1.2861,1.2764,1.2861,1.305,1.3147,1.3249,1.3636,1.3539,1.3539,1.3732,1.3539,1.3539,1.3732,1.3636,1.3829,2.3407,2.2776,2.2313,2.1743,2.1304,2.0987,2.0673,2.1067,2.1537,2.1641,2.1485,2.1342,2.1433,2.0939,0.0,0.0,0.0,0.0,0.0,1.8472,1.9148,1.995,2.0004,2.0236,2.0696,2.0982,2.1556,2.248,2.2867,2.3433,2.4143,2.42,2.4659,2.5681,2.5716,2.6198,2.7219,2.6985,2.6891,2.6891,2.6644,2.6561,2.6561,2.6561,2.6727,2.6891,2.6891,2.6974,2.7149,2.7149,2.7056,2.6891,2.6644,2.6396,2.6157,2.5979,2.5895,2.5895,2.6157,2.649,2.6891,2.6891,2.6445,2.5819,2.583,2.5242,2.4498,2.4498,2.4498,2.4231,2.2999,2.2736,2.2385,2.1257,2.0826,2.0654,2.0382,2.0292,2.0201,1.9928,2.0382,2.0736,2.0997,1.9977,1.8964,1.8126,1.7023,1.5913,1.5267,1.4885,1.4688,1.4688,1.449,1.4106,1.3539,1.3539,1.3346,1.2861,1.2764,1.2861,1.305,1.3147,1.3346,1.3835,1.3642,1.3727,1.4298,1.3732,1.3727,1.4298,1.4022,1.3931,2.3269,2.3308,2.3232,2.1902,2.1807,2.1857,2.1236,2.1212,2.1355,2.1407,2.1559,2.1545,2.108,2.0681,0.0,0.0,0.0,0.0,0.0,1.8305,1.8398,1.859,1.9125,1.9422,1.9382,2.0685,2.1674,2.2069,2.2706,2.3406,2.4154,2.4043,2.4511,2.5681,2.5383,2.569,2.6693,2.6207,2.5957,2.5957,2.579,2.5706,2.5874,2.5874,2.6052,2.6229,2.6229,2.6313,2.6324,2.6324,2.6218,2.5957,2.6063,2.5979,2.5812,2.5906,2.5979,2.6146,2.6561,2.6809,2.7067,2.7067,2.6528,2.5652,2.5073,2.4307,2.3454,2.2687,2.2432,2.2246,2.1526,2.1347,2.1257,2.0645,2.0464,2.0382,2.0292,2.0292,2.0292,2.0382,2.0645,2.1006,2.1203,2.0817,1.9886,1.8488,1.739,1.6379,1.5452,1.4777,1.44,1.44,1.3721,1.3244,1.3055,1.3055,1.3055,1.2953,1.2953,1.3147,1.3636,1.3642,1.3829,1.4208,1.4112,1.4106,1.4298,1.4106,1.4106,1.4298,1.4208,1.4208,2.3107,2.3394,2.3534,2.2231,2.2299,2.2527,2.1559,2.1639,2.1869,2.1732,2.1988,2.2086,2.1631,2.0941,0.0,0.0,0.0,0.0,0.0,1.792,1.7689,1.7567,1.8203,1.8681,1.8775,1.9916,2.1016,2.184,2.2347,2.2887,2.3717,2.3677,2.4127,2.5194,2.4971,2.5281,2.6279,2.5505,2.5263,2.5622,2.4829,2.4829,2.5622,2.5253,2.5443,2.5895,2.5895,2.5895,2.5895,2.5895,2.5812,2.5633,2.5717,2.5454,2.5115,2.5812,2.6146,2.6479,2.6373,2.6539,2.6622,2.6373,2.5495,2.4628,2.4049,2.3173,2.2227,2.1454,2.1293,2.1203,2.0835,2.0744,2.0654,2.0382,2.0292,2.0292,2.0382,2.0473,2.0473,2.0736,2.1006,2.1195,2.1392,2.1195,2.0439,1.8772,1.7669,1.6655,1.5547,1.4592,1.4016,1.4016,1.3244,1.2764,1.2764,1.2861,1.2958,1.305,1.3147,1.3443,1.3835,1.3931,1.4069,1.4249,1.4346,1.4346,1.4346,1.4346,1.4298,1.4298,1.4298,1.4202]},{"header":{"parameterUnit":"m.s-1","parameterCategory":1,"la1":30.6,"la2":29.2853,"lo1":-89.7004,"lo2":-87.6739,"dy":0.0162,"dx":0.0183,"nx":112,"ny":82,"refTime":"2023-05-15T06:00:00:Z","depth":0,"parameterNumber":3,"parameterNumberName":"V-component_of_WINDS"},"data":[0.0,0.0,0.0,0.0,0.0,0.0,0.0,0.0,0.0,0.0,0.0,0.0,0.0,0.0,0.0,0.0,0.0,0.0,0.0,0.0,0.0,0.0,0.0,0.0,0.0,0.0,0.0,0.0,0.0,0.0,0.0,0.0,0.0,0.0,0.0,0.0,0.0,0.0,0.0,0.0,0.0,0.0,0.0,0.0,0.0,0.0,0.0,0.0,0.0,0.0,0.0,0.0,0.0,0.0,0.0,0.0,0.0,0.0,0.0,0.0,0.0,0.0,0.0,0.0,0.0,0.0,0.0,0.0,0.0,0.0,0.0,0.0,0.0,0.0,0.0,0.0,0.0,0.0,0.0,0.0,0.0,0.0,0.0,0.0,0.0,0.0,0.0,0.0,0.0,0.0,-0.2267,-0.2719,-0.1864,-0.1343,-0.1286,0.0287,0.1241,0.1089,0.0,0.0,0.0,0.0,0.0,0.0,0.0,0.0,0.0,0.0,0.0,0.0,0.0,0.0,0.0,0.0,0.0,0.0,0.0,0.0,0.0,0.0,0.0,0.0,0.0,0.0,0.0,0.0,0.0,0.0,0.0,0.0,0.0,0.0,0.0,0.0,0.0,0.0,0.0,0.0,0.0,0.0,0.0,0.0,0.0,0.0,0.0,0.0,0.0,0.0,0.0,0.0,0.0,0.0,0.0,0.0,0.0,0.0,0.0,0.0,0.0,0.0,0.0,0.0,0.0,0.0,0.0,0.0,0.0,0.0,0.0,0.0,0.0,0.0,0.0,0.0,0.0,0.0,0.0,0.0,0.0,0.0,0.0,0.0,0.0,0.0,0.0,0.0,0.0,0.0,0.0,0.0,0.0,0.0,0.0,0.0,0.0,0.0,0.0,0.0,0.0,0.0,0.0,0.0,-0.2191,-0.3231,-0.2697,-0.1865,-0.0925,0.0429,0.1272,0.1487,0.0,0.0,0.0,0.0,0.0,0.0,0.0,0.0,0.0,0.0,0.0,0.0,0.0,0.0,0.0,0.0,0.0,0.0,0.0,0.0,0.0,0.0,0.0,0.0,0.0,0.0,0.0,0.0,0.0,0.0,0.0,0.0,0.0,0.0,0.0,0.0,0.0,0.0,0.0,0.0,0.0,0.0,0.0,0.0,0.0,0.0,0.0,0.0,0.0,0.0,0.0,0.0,0.0,0.0,0.0,0.0,0.0,0.0,0.0,0.0,0.0,0.0,0.0,0.0,0.0,0.0,0.0,0.0,0.0,0.0,0.0,0.0,0.0,0.0,0.0,0.0,0.0,0.0,0.0,0.0,0.0,0.0,0.0,0.0,0.0,0.0,0.0,0.0,0.0,0.0,0.0,0.0,0.0,0.0,0.0,0.0,0.0,0.0,0.0,0.0,0.0,0.0,0.0,-0.2073,-0.2512,-0.336,-0.2803,-0.1959,-0.1129,0.0277,0.1172,0.1309,0.1519,0.0,0.0,0.0,0.0,0.0,0.0,0.0,0.0,0.0,0.0,0.0,0.0,0.0,0.0,0.0,0.0,0.0,0.0,0.0,0.0,0.0,0.0,0.0,0.0,0.0,0.0,0.0,0.0,0.0,0.0,0.0,0.0,0.0,0.0,0.0,0.0,0.0,0.0,0.0,0.0,0.0,0.0,0.0,0.0,0.0,0.0,0.0,0.0,0.0,0.0,0.0,0.0,0.0,0.0,0.0,0.0,0.0,0.0,0.0,0.0,0.0,0.0,0.0,0.0,0.0,0.0,0.0,0.0,0.0,0.0,0.0,0.0,0.0,0.0,0.0,0.0,0.0,0.0,0.0,0.0,0.0,0.0,0.0,0.0,0.0,0.0,0.0,0.0,0.0,0.0,0.0,0.0,0.0,0.0,0.0,0.0,0.0,0.0,0.0,0.0,0.0,0.0,-0.247,-0.2993,-0.3391,-0.2938,-0.2322,-0.1586,-0.0135,0.0785,0.0917,0.1453,0.0,0.0,0.0,0.0,0.0,0.0,0.0,0.0,0.0,0.0,0.0,0.0,0.0,0.0,0.0,0.0,0.0,0.0,0.0,0.0,0.0,0.0,0.0,0.0,0.0,0.0,0.0,0.0,0.0,0.0,0.0,0.0,0.0,0.0,0.0,0.0,0.0,0.0,0.0,0.0,0.0,0.0,0.0,0.0,0.0,0.0,0.0,0.0,0.0,0.0,0.0,0.0,0.0,0.0,0.0,0.0,0.0,0.0,0.0,0.0,0.0,0.0,0.0,0.0,0.0,0.0,0.0,0.0,0.0,0.0,0.0,0.0,0.0,0.0,0.0,0.0,0.0,0.0,0.0,0.0,0.0,0.0,0.0,0.0,0.0,0.0,0.0,0.0,0.0,0.0,0.0,0.0,0.0,0.0,0.0,0.0,0.0,0.0,0.0,0.0,0.0,0.0,-0.2793,-0.3658,-0.3411,-0.3583,-0.3313,-0.2318,-0.1132,-0.0241,0.0305,0.131,0.0,0.0,0.0,0.0,0.0,0.0,0.0,0.0,0.0,0.0,0.0,0.0,0.0,0.0,0.0,0.0,0.0,0.0,0.0,0.0,0.0,0.0,0.0,0.0,0.0,0.0,0.0,0.0,0.0,0.0,0.0,0.0,0.0,0.0,0.0,0.0,0.0,0.0,0.0,0.0,0.0,0.0,0.0,0.0,0.0,0.0,0.0,0.0,0.0,0.0,0.0,0.0,0.0,0.0,0.0,0.0,0.0,0.0,0.0,0.0,0.0,0.0,0.0,0.0,0.0,0.0,0.0,0.0,0.0,0.0,0.0,0.0,0.0,0.0,0.0,0.0,0.0,0.0,0.0,0.0,0.0,0.0,0.0,0.0,0.0,0.0,0.0,0.0,0.0,0.0,0.0,0.0,0.0,0.0,0.0,0.0,0.0,0.0,0.0,0.0,0.0,0.0,-0.2634,-0.3248,-0.3574,-0.3471,-0.3123,-0.2313,-0.1783,-0.1032,0.0098,0.0,0.0,0.0,0.0,0.0,0.0,0.0,0.0,0.0,0.0,0.0,0.0,0.0,0.0,0.0,0.0,0.0,0.0,0.0,0.0,0.0,0.0,0.0,0.0,0.0,0.0,0.0,0.0,0.0,0.0,0.0,0.0,0.0,0.0,0.0,0.0,0.0,0.0,0.0,0.0,0.0,0.0,0.0,0.0,0.0,0.0,0.0,0.0,0.0,0.0,0.0,0.0,0.0,0.0,0.0,0.0,0.0,0.0,0.0,0.0,0.0,0.0,0.0,0.0,0.0,0.0,0.0,0.0,0.0,0.0,0.0,0.0,0.0,0.0,0.0,0.0,0.0,0.0,0.0,0.0,0.0,0.0,0.0,0.0,0.0,0.0,0.0,0.0,0.0,0.0,0.0,0.0,0.0,0.0,0.0,0.0,0.0,0.0,0.0,0.0,0.0,0.0,-0.2152,-0.2613,-0.3056,-0.3361,-0.3281,-0.3003,-0.254,-0.2329,-0.1666,-0.0432,0.0,0.0,0.0,0.0,0.0,0.0,0.0,0.0,0.0,0.0,0.0,0.0,0.0,0.0,0.0,0.0,0.0,0.0,0.0,0.0,0.0,0.0,0.0,0.0,0.0,0.0,0.0,0.0,0.0,0.0,0.0,0.0,0.0,0.0,0.0,0.0,0.0,0.0,0.0,0.0,0.0,0.0,0.0,0.0,0.0,0.0,0.0,0.0,0.0,0.0,0.0,0.0,0.0,0.0,0.0,0.0,0.0,0.0,0.0,0.0,0.0,0.0,0.0,0.0,0.0,0.0,0.0,0.0,0.0,0.0,0.0,0.0,0.0,0.0,0.0,0.0,0.0,0.0,0.0,0.0,0.0,0.0,0.0,0.0,0.0,0.0,0.0,0.0,0.0,0.0,0.0,0.0,0.0,0.0,0.0,0.0,0.0,0.0,0.0,0.0,0.0,0.0,-0.1998,-0.2819,-0.3273,-0.2766,-0.3018,-0.3199,-0.3199,-0.2688,-0.2104,0.0,0.0,0.0,0.0,0.0,0.0,0.0,0.0,0.0,0.0,0.0,0.0,0.0,0.0,0.0,0.0,0.0,0.0,0.0,0.0,0.0,0.0,0.0,0.0,0.0,0.0,0.0,0.0,0.0,0.0,0.0,0.0,0.0,0.0,0.0,0.0,0.0,0.0,0.0,0.0,0.0,0.0,0.0,0.0,0.0,0.0,0.0,0.0,0.0,0.0,0.0,0.0,0.0,0.0,0.0,0.0,0.0,0.0,0.0,0.0,0.0,0.0,0.0,0.0,0.0,0.0,0.0,0.0,0.0,0.0,0.0,0.0,0.0,0.0,0.0,0.0,0.0,0.0,0.0,0.0,0.0,0.0,0.0,0.0,0.0,0.0,0.0,0.0,0.0,0.0,0.0,0.0,0.0,0.0,0.0,0.0,0.0,0.0,0.0,0.0,0.0,0.0,0.0,-0.2276,-0.2887,-0.3395,-0.3271,-0.304,-0.2909,-0.3032,-0.2947,-0.2515,-0.1658,0.0,0.0,0.0,0.0,0.0,0.0,0.0,0.0,0.0,0.0,0.0,0.0,0.0,0.0,0.0,0.0,0.0,0.0,0.0,0.0,0.0,0.0,0.0,0.0,0.0,0.0,0.0,0.0,0.0,0.0,0.0,0.0,0.0,0.0,0.0,0.0,0.0,0.0,0.0,0.0,0.0,0.0,0.0,0.0,0.0,0.0,0.0,0.0,0.0,0.0,0.0,0.0,0.0,0.0,0.0,0.0,0.0,0.0,0.0,0.0,0.0,0.0,0.0,0.0,0.0,0.0,0.0,0.0,0.0,0.0,0.0,0.0,0.0,0.0,0.0,0.0,0.0,0.0,0.0,0.0,0.0,0.0,0.0,0.0,0.0,0.0,0.0,0.0,0.0,0.0,0.0,0.0,0.0,0.0,0.0,0.0,0.0,0.0,0.0,0.0,0.0,0.0,-0.2201,-0.2897,-0.3401,-0.328,-0.2913,-0.2782,-0.3105,-0.3135,-0.2775,-0.2038,0.0,0.0,0.0,0.0,0.0,0.0,0.0,0.0,0.0,0.0,0.0,0.0,0.0,0.0,0.0,0.0,0.0,0.0,0.0,0.0,0.0,0.0,0.0,0.0,0.0,0.0,0.0,0.0,0.0,0.0,0.0,0.0,0.0,0.0,0.0,0.0,0.0,0.0,0.0,0.0,0.0,0.0,0.0,0.0,0.0,0.0,0.0,0.0,0.0,0.0,0.0,0.0,0.0,0.0,0.0,0.0,0.0,0.0,0.0,0.0,0.0,0.0,0.0,0.0,0.0,0.0,0.0,0.0,0.0,0.0,0.0,0.0,0.0,0.0,0.0,0.0,0.0,0.0,0.0,0.0,0.0,0.0,0.0,0.0,0.0,0.0,0.0,0.0,0.0,0.0,0.0,0.0,0.0,0.0,0.0,0.0,0.0,0.0,0.0,0.0,0.0,0.0,-0.1975,-0.2781,-0.3298,-0.3045,-0.2699,-0.2687,-0.3226,-0.3145,-0.2943,-0.253,0.0,0.0,0.0,0.0,0.0,0.0,0.0,0.0,0.0,0.0,0.0,0.0,0.0,0.0,0.0,0.0,0.0,0.0,0.0,0.0,0.0,0.0,0.0,0.0,0.0,0.0,0.0,0.0,0.0,0.0,0.0,0.0,0.0,0.0,0.0,0.0,0.0,0.0,0.0,0.0,0.0,0.0,0.0,0.0,0.0,0.0,0.0,0.0,0.0,0.0,0.0,0.0,0.0,0.0,0.0,0.0,0.0,0.0,0.0,0.0,-0.4209,-0.3092,0.0,0.0,0.0,0.0,0.0,0.0,0.0,0.0,0.0,0.0,0.0,0.0,0.0,0.0,0.0,0.0,0.0,0.0,0.0,0.0,0.0,0.0,0.0,0.0,0.0,0.0,0.0,0.0,0.0,0.0,0.0,0.0,0.0,0.0,0.0,0.0,0.0,0.0,0.0,0.0,-0.2226,-0.2799,-0.3266,-0.3406,-0.287,-0.2639,-0.3058,-0.3033,-0.3019,-0.31,-0.2282,0.0,0.0,0.0,0.0,0.0,0.0,0.0,0.0,0.0,0.0,0.0,0.0,0.0,0.0,0.0,0.0,0.0,0.0,0.0,0.0,0.0,0.0,0.0,0.0,0.0,0.0,0.0,0.0,0.0,0.0,0.0,0.0,0.0,0.0,0.0,0.0,0.0,0.0,0.0,0.0,0.0,0.0,0.0,0.0,0.0,0.0,0.0,0.0,0.0,0.0,0.0,0.0,0.0,0.0,0.0,0.0,0.0,0.0,0.0,-0.4743,-0.3974,0.0,0.0,0.0,0.0,0.0,0.0,0.0,0.0,0.0,0.0,0.0,0.0,0.0,0.0,0.0,0.0,0.0,0.0,0.0,0.0,0.0,0.0,0.0,0.0,0.0,0.0,0.0,0.0,0.0,0.0,0.0,0.0,0.0,0.0,0.0,0.0,0.0,0.0,0.0,0.0,-0.2414,-0.2974,-0.3448,-0.3613,-0.2978,-0.2711,-0.3064,-0.2982,-0.3035,-0.3197,-0.2362,0.0,0.0,0.0,0.0,0.0,0.0,0.0,0.0,0.0,0.0,0.0,0.0,0.0,0.0,0.0,0.0,0.0,0.0,0.0,0.0,0.0,0.0,0.0,0.0,0.0,0.0,0.0,0.0,0.0,0.0,0.0,0.0,0.0,0.0,0.0,0.0,0.0,0.0,0.0,0.0,0.0,0.0,0.0,0.0,0.0,0.0,0.0,0.0,0.0,0.0,0.0,0.0,0.0,-0.4768,-0.4951,-0.5032,-0.501,-0.5677,-0.6852,-0.5434,-0.5195,-0.5693,-0.4044,0.0,0.0,0.0,0.0,0.0,0.0,0.0,0.0,0.0,0.0,0.0,0.0,0.0,0.0,0.0,0.0,0.0,0.0,0.0,0.0,0.0,0.0,-0.5074,-0.4345,-0.5205,-0.6055,-0.56,0.0,0.0,0.0,0.0,0.0,0.0,0.0,0.0,0.0,0.0,0.0,-0.2695,-0.3149,-0.3593,-0.371,-0.3094,-0.273,-0.3077,-0.2999,-0.2949,-0.3023,-0.228,-0.1836,0.0,0.0,0.0,0.0,0.0,0.0,0.0,0.0,0.0,0.0,0.0,0.0,0.0,0.0,0.0,0.0,0.0,0.0,0.0,0.0,0.0,0.0,0.0,0.0,0.0,0.0,0.0,0.0,0.0,0.0,0.0,0.0,-0.4226,-0.2519,0.0,0.0,0.0,0.0,0.0,0.0,0.0,0.0,0.0,0.0,0.0,0.0,0.0,-0.3895,-0.4188,-0.5649,-0.6101,-0.5497,-0.6914,-0.7242,-0.6551,-0.6506,-0.7024,-0.8084,-0.7689,0.0,-0.7089,-0.6608,0.0,0.0,0.0,0.0,0.0,0.0,0.0,0.0,0.0,0.0,0.0,0.0,0.0,0.0,0.0,0.0,0.0,0.0,0.0,0.0,0.0,0.0,-0.8739,-0.8006,-0.7979,-0.7943,-0.7147,-0.5203,-0.3575,-0.3308,-0.3242,-0.2918,0.0,0.0,0.0,0.0,0.0,0.0,-0.3439,-0.354,-0.3505,-0.353,-0.3006,-0.2724,-0.2787,-0.2875,-0.2913,-0.2755,-0.2611,-0.2583,-0.2576,-0.2045,0.0,0.0,0.0,0.0,0.0,0.0,0.0,0.0,0.0,0.0,0.0,0.0,0.0,0.0,0.0,0.0,0.0,0.0,0.0,0.0,0.0,0.0,0.0,0.0,0.0,0.0,0.0,0.0,0.0,-0.4043,-0.4275,-0.2825,-0.2661,-0.2355,0.0,0.0,0.0,0.0,0.0,0.0,0.0,0.0,0.0,-0.4568,-0.483,-0.5205,-0.5783,-0.6525,-0.6836,-0.6747,-0.7471,-0.7752,-0.755,-0.7485,-0.7709,-0.8117,-0.8045,-0.8106,-0.8199,-0.7844,-0.7005,-0.5977,0.0,0.0,0.0,0.0,-0.481,-0.4817,-0.6626,-0.7007,-0.6654,-0.6523,0.0,0.0,0.0,0.0,0.0,0.0,0.0,-0.551,-0.6812,-0.7292,-0.7443,-0.7604,-0.7387,-0.6912,-0.6342,-0.5377,-0.4596,-0.442,-0.4871,-0.4529,-0.2275,-0.2295,0.0,0.0,0.0,-0.3224,-0.3627,-0.3599,-0.3492,-0.3488,-0.3023,-0.2709,-0.2726,-0.2895,-0.2938,-0.2703,-0.274,-0.2765,-0.2686,-0.2472,-0.1902,0.0,0.0,0.0,0.0,0.0,0.0,0.0,0.0,0.0,0.0,0.0,0.0,0.0,0.0,0.0,0.0,0.0,0.0,0.0,0.0,0.0,0.0,0.0,0.0,0.0,0.0,0.0,0.0,-0.3346,-0.3926,-0.2886,-0.3101,-0.2919,0.0,0.0,0.0,0.0,0.0,0.0,-0.4001,-0.4311,-0.482,-0.5605,-0.5912,-0.6336,-0.7064,-0.7068,-0.7343,-0.7712,-0.7712,-0.7828,-0.8038,-0.8038,-0.8137,-0.8333,-0.8333,-0.8882,-0.9618,-0.8674,-0.8149,-0.8027,-0.7101,-0.6422,-0.6128,-0.6822,-0.6804,-0.6762,-0.8659,-0.903,-0.8655,-0.865,-0.8141,-0.7424,-0.6858,0.0,0.0,0.0,0.0,-0.6206,-0.7569,-0.7394,-0.706,-0.7541,-0.7013,-0.6355,-0.5879,-0.5662,-0.5426,-0.5209,-0.5819,-0.5559,-0.2936,-0.2799,0.0,-0.2501,-0.3274,-0.3929,-0.3931,-0.3781,-0.3605,-0.3422,-0.3099,-0.2832,-0.2691,-0.2847,-0.2891,-0.2736,-0.2766,-0.2762,-0.2695,-0.2719,-0.2362,-0.1661,0.0,0.0,0.0,0.0,0.0,0.0,0.0,0.0,0.0,0.0,0.0,0.0,0.0,0.0,0.0,0.0,0.0,0.0,0.0,0.0,0.0,0.0,0.0,0.0,0.0,0.0,0.0,0.0,0.0,-0.3179,-0.3942,0.0,0.0,0.0,0.0,-0.3833,-0.405,-0.4486,-0.5393,-0.5592,-0.6027,-0.664,-0.7065,-0.7376,-0.7385,-0.7671,-0.7851,-0.8018,-0.8018,-0.8024,-0.8038,-0.8038,-0.8432,-0.9118,-0.9118,-1.028,-1.2062,-0.9434,-0.8426,-0.8486,-0.7974,-0.7371,-0.7028,-0.8376,-0.8712,-0.8718,-1.0665,-1.102,-1.0534,-0.9979,-0.8401,-0.6945,-0.8017,-0.7046,0.0,0.0,-0.7951,-0.8235,-0.99,-1.0296,-1.0053,-0.9409,-0.8565,-0.7659,-0.6905,-0.6022,-0.5327,-0.5231,-0.5247,-0.5032,-0.4132,0.0,-0.3525,-0.3793,-0.4281,-0.4637,-0.4575,-0.4215,-0.3756,-0.3293,-0.3088,-0.2852,-0.2645,-0.2697,-0.2739,-0.2767,-0.2744,-0.2697,-0.2691,-0.2683,-0.2325,-0.1516,-0.1509,0.0,0.0,0.0,0.0,0.0,0.0,0.0,0.0,0.0,0.0,0.0,0.0,0.0,0.0,0.0,0.0,0.0,0.0,0.0,0.0,0.0,0.0,0.0,0.0,0.0,0.0,0.0,0.0,-0.3776,-0.4331,0.0,-0.4359,-0.4528,-0.4888,-0.5551,-0.5808,-0.6119,-0.647,-0.6845,-0.7093,-0.7379,-0.7627,-0.7754,-0.7763,-0.7861,-0.7984,-0.8038,-0.8038,-0.8038,-0.8038,-0.8038,-0.8137,-0.8432,-0.9118,-0.9903,-1.0569,-1.0167,-1.0546,-1.1494,-1.1086,-1.0548,-0.9988,-1.0795,-1.0863,-1.0773,-1.1701,-1.181,-1.1313,-1.0909,-1.0407,-0.988,-1.0132,-0.9617,-0.9026,-0.9723,-0.9745,-0.9691,-0.9988,-1.0119,-0.9921,-0.926,-0.8782,-0.8364,-0.7466,-0.6795,-0.6234,-0.5618,-0.5557,-0.5345,-0.4504,-0.468,-0.4863,-0.4389,-0.4837,-0.5189,-0.5215,-0.4593,-0.413,-0.4064,-0.3394,-0.3057,-0.3101,-0.2986,-0.2854,-0.2661,-0.2672,-0.2578,-0.2413,-0.2352,-0.2215,-0.1946,-0.2266,-0.1801,0.0,0.0,0.0,0.0,0.0,0.0,0.0,0.0,0.0,0.0,0.0,0.0,0.0,0.0,0.0,0.0,0.0,0.0,0.0,0.0,0.0,0.0,0.0,0.0,0.0,-0.3786,-0.4616,-0.425,-0.4857,-0.5231,-0.516,-0.5414,-0.5862,-0.6606,-0.6919,-0.7111,-0.7254,-0.7543,-0.7694,-0.7589,-0.7888,-0.7839,-0.764,-0.7743,-0.7842,-0.7842,-0.7842,-0.7842,-0.7842,-0.7942,-0.7939,-0.7839,-0.9019,-0.9702,-0.9899,-1.0979,-1.2071,-1.302,-1.2573,-1.2185,-1.2004,-1.2331,-1.2279,-1.1962,-1.2297,-1.2162,-1.1876,-1.1647,-1.1632,-1.1617,-1.1455,-1.1155,-1.1017,-1.1089,-1.1046,-1.0885,-1.0644,-1.0332,-1.0009,-0.9505,-0.9121,-0.8575,-0.7701,-0.7323,-0.689,-0.599,-0.5778,-0.5574,-0.4884,-0.5267,-0.5292,-0.4206,-0.4742,-0.5104,-0.4613,-0.4456,-0.4388,-0.4391,-0.3737,-0.3381,-0.3584,-0.3021,-0.2815,-0.3045,-0.2671,-0.2455,-0.255,-0.2266,-0.2127,-0.2015,-0.2458,-0.2376,-0.1659,0.0,0.0,0.0,0.0,0.0,0.0,0.0,0.0,0.0,0.0,0.0,0.0,0.0,0.0,0.0,0.0,0.0,0.0,0.0,0.0,0.0,0.0,0.0,-0.3921,-0.489,-0.5434,-0.4667,-0.5515,-0.6284,-0.6368,-0.6536,-0.6617,-0.675,-0.7167,-0.7498,-0.7537,-0.7842,-0.7739,-0.7238,-0.7739,-0.764,-0.6845,-0.7344,-0.7547,-0.7553,-0.7547,-0.755,-0.7559,-0.7846,-0.7739,-0.7341,-0.892,-0.9899,-1.0485,-1.1853,-1.2646,-1.2953,-1.2078,-1.2138,-1.2836,-1.278,-1.2619,-1.2425,-1.2425,-1.2425,-1.2382,-1.214,-1.1903,-1.172,-1.1715,-1.1553,-1.1418,-1.1645,-1.1709,-1.1763,-1.2,-1.1318,-1.0579,-1.0491,-0.9592,-0.8588,-0.7733,-0.7535,-0.719,-0.6153,-0.5804,-0.5647,-0.5384,-0.5439,-0.4996,-0.3305,-0.4113,0.0,-0.2999,-0.3954,-0.4589,-0.4222,-0.398,-0.3913,-0.3908,-0.2786,-0.2622,-0.3786,-0.2681,-0.2329,-0.3197,-0.2439,-0.1965,-0.1796,-0.2181,-0.2681,-0.3461,0.0,0.0,0.0,0.0,0.0,0.0,0.0,0.0,0.0,0.0,0.0,0.0,0.0,0.0,0.0,0.0,0.0,0.0,0.0,0.0,0.0,-0.4516,-0.4418,-0.421,-0.5146,-0.5794,-0.5814,-0.6102,-0.6371,-0.6526,-0.666,-0.6798,-0.6836,-0.7066,-0.7301,-0.7338,-0.7338,-0.7338,-0.7238,-0.7338,-0.7338,-0.7138,-0.7238,-0.739,-0.749,-0.7387,-0.7446,-0.7635,-0.7431,-0.7394,-0.7379,-0.8567,-0.9501,-1.0489,-1.1463,-1.2355,-1.305,-1.2759,-1.2721,-1.2775,-1.2834,-1.2721,-1.2667,-1.2667,-1.2667,-1.263,-1.2393,-1.2269,-1.2183,-1.2005,-1.1908,-1.1871,-1.1935,-1.1951,-1.1822,-1.1293,-1.1551,-1.1502,-1.0206,-1.0088,-1.001,-0.9088,-0.8162,-0.7438,-0.7285,-0.6624,-0.614,-0.5794,-0.577,-0.5671,-0.5249,-0.5396,-0.5398,-0.5145,-0.5129,-0.515,-0.5343,-0.3982,-0.3445,-0.4369,-0.3223,-0.2806,-0.3727,-0.3481,-0.3308,-0.3265,-0.309,-0.3297,-0.4065,-0.3503,-0.3686,0.0,0.0,0.0,0.0,0.0,0.0,0.0,0.0,0.0,0.0,0.0,0.0,0.0,0.0,0.0,0.0,0.0,0.0,0.0,0.0,0.0,0.0,-0.4999,-0.5037,-0.517,-0.57,-0.6146,-0.6385,-0.6472,-0.654,-0.6611,-0.6611,-0.6662,-0.6715,-0.6923,-0.7146,-0.7199,-0.7307,-0.7307,-0.7202,-0.7307,-0.7307,-0.7001,-0.71,-0.7241,-0.7315,-0.7187,-0.7232,-0.7425,-0.7259,-0.711,-0.7126,-0.8785,-0.9698,-1.0194,-1.1668,-1.2554,-1.2953,0.0,0.0,0.0,0.0,-1.2764,-1.2764,-1.2764,-1.2764,-1.2737,-1.2603,-1.256,-1.2533,-1.2393,-1.235,-1.235,-1.235,-1.235,-1.2283,-1.1743,-1.1778,-1.1611,-1.056,-1.0532,-1.055,-0.9579,-0.906,-0.8582,-0.7731,-0.7287,0.0,-0.6068,-0.6025,-0.5832,-0.5017,-0.5286,-0.5453,-0.4836,-0.5072,-0.5347,-0.5512,-0.4477,-0.4046,-0.478,-0.3606,0.0,0.0,0.0,-0.3301,-0.3081,-0.3077,0.0,0.0,0.0,-0.4577,-0.6046,-0.5157,0.0,0.0,-0.3937,-0.4045,0.0,0.0,0.0,0.0,0.0,0.0,0.0,0.0,0.0,0.0,0.0,0.0,0.0,0.0,0.0,0.0,-0.5449,-0.6189,-0.6312,-0.6352,-0.6442,-0.6638,-0.6635,-0.6624,-0.6638,-0.6529,-0.6502,-0.6611,-0.6841,-0.7004,-0.7106,-0.7328,0.0,0.0,0.0,-0.7331,-0.6801,-0.7009,-0.712,-0.7135,-0.7012,-0.7018,-0.7232,-0.728,-0.7122,-0.6918,-0.9283,-1.0096,-0.9903,-1.2063,-1.2856,-1.2764,-1.2764,-1.2764,-1.2764,-1.2764,-1.2764,-1.2764,-1.2764,0.0,0.0,-1.2764,-1.2764,-1.2764,-1.2764,-1.2764,-1.2764,-1.2764,-1.2764,-1.2764,-1.2764,-1.2063,-1.137,-1.1268,-1.1033,-1.0605,-0.9619,-0.9917,-0.9908,-0.8228,-0.778,-0.7362,-0.6461,-0.6287,-0.5703,-0.3857,-0.4627,-0.4905,-0.3521,-0.4453,-0.5175,-0.5231,-0.4977,0.0,-0.5024,-0.392,-0.3623,-0.4579,-0.3544,-0.2939,-0.2985,-0.3043,-0.3591,-0.4748,-0.4751,-0.5575,-0.7269,-0.7012,-0.6946,-0.6929,-0.4483,-0.4262,0.0,0.0,0.0,0.0,0.0,0.0,0.0,0.0,0.0,0.0,0.0,0.0,0.0,0.0,0.0,-0.6186,-0.6359,-0.6559,-0.6681,-0.6864,-0.6967,-0.6921,-0.6741,-0.666,-0.6757,-0.6657,-0.6594,-0.6619,-0.6711,-0.6884,-0.6904,-0.6907,-0.6907,-0.6907,-0.6907,-0.6909,-0.6801,-0.6801,-0.6956,-0.7056,-0.6931,0.0,-0.7047,-0.7729,-0.7919,-0.7935,-0.9187,-1.0194,-1.0979,-1.137,-1.2063,-1.2764,-1.2764,-1.2764,-1.2764,-1.2764,-1.2764,-1.2764,-1.2764,-1.2764,-1.2764,-1.2764,-1.2764,-1.2764,-1.2764,-1.2764,0.0,-1.2764,-1.2764,-1.2764,-1.2764,-1.2662,-1.2262,-1.137,-1.1142,-1.0969,-1.0614,-0.994,-0.9613,-1.0039,-0.8783,-0.7634,-0.7462,-0.6694,-0.5969,-0.546,-0.5418,-0.5395,-0.505,-0.5099,-0.5274,-0.5393,-0.4574,-0.418,-0.4785,-0.391,-0.3722,-0.464,-0.4389,-0.4246,-0.4221,-0.4608,-0.5123,-0.5776,-0.6363,-0.6988,-0.7601,-0.7269,-0.7269,-0.7531,-0.6454,-0.6421,0.0,0.0,0.0,0.0,0.0,0.0,0.0,0.0,0.0,0.0,0.0,-0.4212,0.0,0.0,-0.6139,-0.6217,-0.6463,-0.6764,-0.6764,-0.6971,-0.7111,-0.6999,-0.6877,-0.6825,-0.6888,-0.6782,-0.6711,-0.6711,-0.6825,-0.6893,-0.6893,-0.6948,-0.6978,-0.6978,-0.6978,-0.6978,-0.6978,-0.6978,-0.701,-0.7067,-0.7588,-0.7773,-0.7828,-0.8695,-0.9063,-0.9056,-0.9979,-1.0681,-1.1268,-1.1765,-1.2365,-1.2764,-1.2764,-1.2764,-1.2764,-1.2764,-1.2764,-1.2764,-1.2764,-1.2764,-1.2764,-1.2764,-1.2764,-1.2764,-1.2764,-1.2764,-1.2764,-1.2764,-1.2764,-1.2764,-1.2764,-1.2764,-1.2662,-1.2165,-1.1965,-1.1905,-1.1687,-1.1157,-1.0772,-1.0772,-1.0005,-0.9048,-0.856,-0.7704,-0.675,-0.6031,-0.5803,-0.5662,-0.5483,-0.5407,-0.5361,-0.5355,-0.5085,-0.4934,-0.4916,-0.4593,-0.4651,-0.5329,-0.5329,-0.5289,-0.5352,-0.5484,-0.5877,-0.647,-0.6802,-0.7204,-0.7731,-0.7461,-0.7461,-0.7591,-0.7265,-0.7265,0.0,0.0,0.0,0.0,0.0,0.0,0.0,0.0,-0.3678,-0.5301,-0.5742,-0.5825,-0.5923,-0.6497,-0.6863,-0.6668,-0.7194,-0.7423,-0.7143,-0.736,-0.7433,-0.6967,-0.6929,-0.6912,-0.6912,-0.6844,-0.6801,-0.6801,-0.6937,-0.7018,-0.7018,-0.7105,-0.7154,-0.7154,-0.7154,-0.7154,-0.7154,-0.7154,-0.7265,-0.7595,-0.8362,-0.8814,-0.8959,-0.9848,-1.0192,-1.0121,-1.1053,-1.1468,-1.157,-1.2462,-1.2764,-1.2764,-1.2764,-1.2861,-1.2861,-1.2764,-1.2764,-1.2764,-1.2764,-1.2764,-1.2764,-1.2764,-1.2764,-1.2764,-1.2764,-1.2764,-1.2764,-1.2764,-1.2764,-1.2764,-1.2764,-1.2764,-1.2764,-1.2764,-1.2764,-1.2711,-1.2522,-1.2447,-1.2136,-1.1306,-1.0958,-1.045,-0.9656,-0.8792,-0.7848,-0.6722,-0.6213,-0.5907,-0.582,-0.5568,-0.5431,-0.5373,-0.5808,-0.5899,-0.5375,-0.5441,-0.5672,-0.6123,-0.6018,-0.5933,-0.6129,-0.6102,-0.6342,-0.6863,-0.6868,-0.7134,-0.7661,-0.7526,-0.7521,-0.7521,-0.7521,-0.7526,-0.3693,-0.4379,-0.4584,-0.4011,-0.3224,-0.3092,0.0,0.0,-0.5707,-0.5526,-0.6489,-0.7387,-0.7284,-0.8473,-0.9485,-0.9791,-1.013,-0.9869,-0.8669,-0.8616,-0.8272,-0.6953,-0.6725,-0.666,-0.666,-0.6747,-0.6801,-0.6801,-0.701,-0.7135,-0.7135,-0.7146,-0.7154,-0.7154,-0.7154,-0.7154,-0.7154,-0.7154,-0.7706,-0.8699,-0.8793,-0.9295,-0.9959,-1.1066,-1.1364,-1.111,-1.2175,-1.2662,-1.2662,-1.2764,-1.2764,-1.2764,-1.2764,-1.2953,-1.305,-1.2861,-1.2764,-1.2764,-1.2764,-1.2764,-1.2764,-1.2764,-1.2764,-1.2764,-1.2764,-1.2764,-1.2764,-1.2764,-1.2764,-1.2764,-1.2764,-1.2764,-1.2764,-1.2764,-1.2764,-1.2759,-1.2732,-1.256,-1.2474,-1.2582,-1.1427,-1.0524,-1.059,-0.9647,-0.8814,-0.8707,-0.7185,-0.634,-0.7034,-0.6105,-0.5587,-0.5932,-0.5962,-0.6056,-0.6506,-0.6374,-0.635,-0.6478,-0.6117,-0.5967,-0.6169,-0.6552,-0.6798,-0.6741,-0.7269,-0.7596,-0.7526,-0.7521,-0.7521,-0.7521,-0.7521,-0.7521,-0.4703,-0.5726,-0.6325,-0.6172,-0.623,-0.6526,-0.7471,-0.8458,-0.8926,-0.8193,-0.845,-0.8783,-0.8716,-0.9201,-0.9665,0.0,-1.0078,-1.014,-0.9308,-0.9349,-0.9179,-0.8357,-0.8157,-0.7785,-0.6815,-0.6836,-0.7194,-0.7852,-0.7451,-0.7453,-0.8032,-0.7555,-0.7154,-0.7154,-0.7154,-0.7485,-0.8149,-0.8149,-0.8806,-0.9908,-1.0672,-1.1022,-1.1079,-1.2226,-1.2501,-1.2165,-1.2565,-1.2764,-1.2764,-1.2764,-1.2764,-1.2764,-1.2764,-1.2861,-1.2958,-1.2861,-1.2861,-1.2958,-1.2861,-1.2764,-1.2764,-1.2764,-1.2764,-1.2764,-1.2764,-1.2764,-1.2764,-1.2764,-1.2764,-1.2764,-1.2764,-1.2764,-1.2764,-1.2764,-1.2764,-1.2764,-1.2764,-1.2689,-1.2646,-1.2743,-1.2014,-1.1432,-1.1382,-1.0274,-0.9597,-1.0145,-0.8714,-0.7482,-0.7104,-0.6662,-0.6529,-0.6798,-0.6623,-0.6835,-0.7819,-0.7347,-0.7212,-0.7535,-0.7298,-0.7133,-0.7163,-0.722,-0.7189,-0.7007,-0.7269,-0.7466,-0.7521,-0.7521,-0.7461,-0.733,-0.7717,-0.7847,-0.5387,-0.6639,-0.7626,-0.7841,-0.8599,-0.9355,-0.9418,-1.0323,-1.1042,-1.0042,-0.9999,-1.0056,-0.9866,-1.0078,-1.0293,-1.0353,-1.0603,-1.0703,-1.0136,-1.0056,-0.9876,-0.9193,-0.9002,-0.8502,-0.7346,-0.7527,-0.8127,-0.8996,-0.817,-0.7953,-0.876,-0.7764,-0.7154,-0.7154,-0.7487,-0.8039,-0.892,-0.9251,-1.0017,-1.1219,-1.1978,-1.234,-1.2309,-1.3017,-1.3052,-1.2764,-1.2764,-1.2764,-1.2764,-1.2764,-1.2764,-1.2764,-1.2764,-1.2861,-1.2856,-1.2861,-1.2861,-1.2953,-1.2861,-1.2764,-1.2764,-1.2764,-1.2764,-1.2764,-1.2764,-1.2764,-1.2764,-1.2764,-1.2764,-1.2764,-1.2764,-1.2764,-1.2764,-1.2764,-1.2764,-1.2764,-1.2764,-1.2764,-1.2764,-1.2764,-1.2427,-1.1999,-1.1796,-1.0935,-1.0346,-1.092,-1.0126,-0.9068,-0.7703,-0.7574,-0.7534,-0.7643,-0.7617,-0.7914,-0.8716,-0.8201,-0.7965,-0.8274,-0.8131,-0.7957,-0.7887,-0.7569,-0.7369,-0.7357,-0.7231,-0.733,-0.7717,-0.7652,-0.7657,-0.7722,-0.8172,-0.8366,-0.5354,-0.6844,-0.8064,-0.8666,-0.9541,-1.0327,-1.0586,-1.0954,-1.0949,-1.0025,-1.0761,-1.1315,-1.0781,-1.141,-1.2224,-1.2758,-1.2792,-1.2416,-1.1254,-1.0932,-1.0162,-0.8713,-0.8346,-0.8317,-0.8479,-0.9187,-0.976,-1.002,-0.914,-0.8652,-0.8906,-0.7817,-0.7154,-0.7154,-0.826,-0.8813,-0.892,-1.0014,-1.1219,-1.2304,-1.2413,-1.2846,-1.3688,-1.302,-1.2787,-1.2764,-1.2565,-1.2565,-1.2764,-1.2764,-1.2764,-1.2764,-1.2764,-1.2958,-1.305,-1.2861,-1.2764,-1.2764,-1.2764,-1.2764,-1.2764,-1.2764,-1.2764,-1.2764,-1.2764,-1.2764,-1.2764,-1.2764,-1.2764,-1.2764,-1.2764,-1.2764,-1.2764,-1.2764,-1.2764,-1.2764,-1.2764,-1.2764,-1.2764,-1.2764,-1.2382,-1.2037,-1.1984,-1.1558,-1.1169,-1.099,-1.1091,-1.0779,-0.9646,-0.8948,-0.8476,-0.8362,-0.8901,-0.9147,-0.903,-0.8774,-0.8604,-0.8399,-0.8049,-0.7872,-0.8093,-0.75,-0.7364,-0.7773,-0.7176,-0.7335,-0.8172,-0.8047,-0.8306,-0.8952,-0.8952,-0.8952,-0.7057,-0.8793,-1.045,-1.1823,-1.2794,-1.3367,-1.3448,-1.3178,-1.2895,-1.2228,-1.1451,-1.0795,-1.0591,-1.0838,-1.1174,-1.1277,-1.2168,-1.2615,-1.1773,-1.1773,-1.1505,-1.0943,-1.0651,-1.0569,-1.0786,-0.9755,-0.9621,-1.0944,-1.0095,-0.9946,-1.1206,-1.012,-0.9574,-0.9574,-0.9904,-1.0453,-1.1214,-1.1651,-1.2422,-1.3635,-1.3367,-1.3283,-1.3371,-1.3047,-1.2782,-1.257,-1.2662,-1.2764,-1.2764,-1.2764,-1.2764,-1.2764,-1.2764,-1.2861,-1.2861,-1.2861,-1.2764,-1.2764,-1.2764,-1.2764,-1.2764,-1.2764,-1.2764,-1.2764,-1.2764,-1.2764,-1.2764,-1.2764,-1.2764,-1.2764,-1.2764,-1.2764,-1.2764,-1.2764,-1.2764,-1.2764,-1.2764,-1.2764,-1.2764,-1.2764,-1.2416,-1.213,-1.2026,-1.1558,-1.0934,-1.0602,-1.0195,-0.9723,-0.9349,-0.9046,-0.874,-0.8719,-0.919,-0.9428,-0.9197,-0.8868,-0.8548,-0.8192,-0.804,-0.8239,-0.868,-0.8389,-0.8528,-0.9209,-0.8705,-0.866,-0.9064,-0.8772,-0.8837,-0.9119,-0.958,-0.994,-0.8899,-1.0504,-1.2027,-1.3794,-1.4611,-1.5031,-1.4871,-1.4541,-1.3938,-1.3058,-1.159,-1.0354,-1.0022,-0.9965,-0.9848,-0.9579,-1.0743,-1.1505,-1.1194,-1.1227,-1.1365,-1.1592,-1.1416,-1.1336,0.0,-1.0325,-1.0164,-1.1666,-1.095,-1.0822,-1.1864,-1.118,-1.0672,-1.0562,-1.1,-1.1651,-1.2413,-1.2748,-1.3197,-1.3862,-1.362,-1.3278,-1.2951,-1.2819,-1.2688,-1.237,-1.2565,-1.2662,-1.2764,-1.2764,-1.2764,-1.2764,-1.2764,-1.2764,-1.2861,-1.2958,-1.3055,-1.3055,-1.3055,-1.2958,-1.2861,-1.3244,-1.3305,-1.3263,-1.3272,-1.3464,-1.3582,-1.3492,-1.3537,-1.3582,-1.3492,-1.347,-1.3447,-1.3357,-1.334,-1.334,-1.334,-1.334,-1.334,-1.334,-1.3048,-1.2692,-1.2503,-1.1742,-1.0998,-1.0594,-1.0028,-0.9551,-0.9509,-0.9411,-0.9297,-0.9161,-0.9392,-0.9469,-0.9141,-0.8846,-0.8652,-0.8526,-0.8444,-0.8713,-0.9385,-0.9223,-0.947,-1.009,-0.9702,-0.9717,-1.0135,-0.9826,-0.9892,-1.0184,-1.0661,-1.0966,-1.0772,-1.1913,-1.2967,-1.4537,-1.5095,-1.5071,-1.4939,-1.4616,-1.403,-1.2583,-1.1216,-0.9981,0.0,0.0,-0.8552,-0.8151,-0.8806,-0.9446,-0.9824,-0.9723,-0.9933,0.0,0.0,0.0,0.0,0.0,-1.1303,-1.2209,-1.1713,-1.1394,-1.1269,-1.1025,-1.068,-1.0343,-1.176,-1.2417,-1.2417,-1.3305,-1.3527,-1.3295,-1.3077,-1.285,-1.252,-1.2415,-1.2297,-1.237,-1.237,-1.2565,-1.2764,-1.2764,-1.2764,-1.2764,-1.2764,-1.2764,-1.2861,-1.3346,-1.3539,-1.3539,-1.3539,-1.3249,-1.305,-1.401,-1.4193,-1.4068,-1.4298,-1.4777,-1.5135,-1.4781,-1.4983,-1.5111,-1.4757,-1.4678,-1.4606,-1.4358,-1.4298,-1.4292,-1.4298,-1.431,-1.4316,-1.4316,-1.4129,-1.3766,-1.3344,-1.2312,-1.1405,-1.1081,-1.0686,-1.0318,-1.0043,-0.997,-0.9897,-0.9634,-0.9634,-0.9461,-0.9002,-0.8888,-0.9013,-0.935,-0.9135,-0.9392,-1.0218,-1.0058,-1.0147,-1.0575,-1.0319,-1.0528,-1.1436,-1.1211,-1.1491,-1.2201,-1.2201,-1.2208,-1.2319,-1.3425,-1.4521,-1.5467,-1.5344,-1.484,-1.4375,-1.3467,-1.2403,-1.099,-0.9414,-0.802,0.0,0.0,0.0,-0.8032,-0.9696,0.0,-1.1044,-1.116,0.0,-1.1774,0.0,-1.162,-1.188,-1.1682,-1.1628,-1.1937,-1.2149,-1.2361,-1.2783,-1.2879,-1.2698,-1.255,-1.2871,-1.3093,-1.3093,-1.3315,-1.3337,-1.3057,-1.3002,-1.267,-1.2102,-1.2435,-1.2287,-1.178,-1.2273,-1.2467,-1.2467,-1.2467,-1.2667,-1.2764,-1.2764,-1.3055,-1.3346,-1.3443,-1.3732,-1.4106,-1.4598,-1.431,-1.3913,-1.4202,-1.4382,-1.4481,-1.4606,-1.4923,-1.5178,-1.5105,-1.4989,-1.4775,-1.4702,-1.4442,-1.4183,-1.431,-1.41,-1.41,-1.4298,-1.4267,-1.4305,-1.4305,-1.4412,-1.4317,-1.3632,-1.3391,-1.3094,-1.2207,-1.2051,-1.1468,-1.0168,-1.0131,-1.0049,-0.9775,-1.0409,-1.059,-1.0195,-1.0354,-1.0371,-1.0042,-0.9896,-1.0171,-1.1043,-1.0896,-1.1304,-1.2257,-1.1826,-1.2095,-1.3001,-1.2742,-1.3276,-1.4478,-1.4478,-1.4806,-1.3275,-1.4318,-1.5119,-1.5608,-1.5116,-1.4292,-1.3416,-1.2326,-1.109,-0.9362,-0.7852,0.0,-0.5848,-0.6591,-0.7234,0.0,0.0,0.0,-1.0743,-1.0811,-1.1206,0.0,-1.1921,0.0,-1.2159,-1.2064,-1.2035,-1.2219,-1.2583,-1.2759,-1.2871,-1.3297,-1.3517,-1.3386,-1.3397,-1.3347,-1.3237,-1.3143,-1.3033,-1.269,-1.2605,-1.2284,-1.1846,-1.2253,-1.219,-1.1785,-1.237,-1.257,-1.2565,-1.3044,-1.3141,-1.2958,-1.3522,-1.3715,-1.3727,-1.4118,-1.4406,-1.4706,-1.5409,-1.573,-1.5787,-1.5198,-1.5039,-1.5245,-1.5417,-1.5663,-1.5884,-1.5884,-1.575,-1.5593,-1.5475,-1.514,-1.4912,-1.4996,-1.4865,-1.4808,-1.4933,-1.4991,-1.5041,-1.4959,-1.5004,-1.4725,-1.4159,-1.38,-1.3588,-1.3361,-1.302,-1.2654,-1.2175,-1.1504,-1.09,-1.0529,-1.1061,-1.1325,-1.1092,-1.1171,-1.1291,-1.137,-1.1163,-1.1508,-1.2492,-1.2707,-1.328,-1.4109,-1.419,-1.4493,-1.4988,-1.484,-1.518,-1.5934,-1.5875,-1.6049,-1.4174,-1.4746,-1.5059,-1.5216,-1.4619,-1.3673,-1.238,-1.1236,-0.9858,-0.7935,0.0,-0.5586,-0.5047,-0.5801,-0.6373,-0.612,0.0,-0.8943,-0.993,-1.0063,-1.0545,-1.1704,-1.1926,-1.2025,-1.2243,-1.2261,-1.2413,-1.2781,-1.288,-1.2774,-1.2521,-1.3135,-1.3521,-1.332,-1.3389,-1.3401,-1.315,-1.2969,-1.2644,-1.2394,-1.2035,-1.1831,-1.1765,-1.1905,-1.2006,-1.1975,-1.2662,-1.2953,-1.305,-1.41,-1.41,-1.3619,-1.4752,-1.4848,-1.4472,-1.5153,-1.5478,-1.5645,-1.6283,-1.7279,-1.7963,-1.6607,-1.6313,-1.6513,-1.6755,-1.6874,-1.6905,-1.6905,-1.684,-1.6622,-1.638,-1.6221,-1.6153,-1.6104,-1.5945,-1.5827,-1.6091,-1.5986,-1.5886,-1.5922,-1.5688,-1.5411,-1.5091,-1.4484,-1.4154,-1.4771,-1.4235,-1.4151,-1.4913,-1.3453,-1.2188,-1.1785,-1.1909,-1.207,-1.2106,-1.1916,-1.2128,-1.2863,-1.2758,-1.3127,-1.4037,-1.468,-1.5303,-1.5771,-1.6431,-1.6798,-1.6945,-1.6945,-1.7014,-1.7151,-1.6954,-1.6895,-1.5422,-1.5332,-1.5211,-1.5069,-1.4267,-1.3213,-1.172,-1.0394,0.0,0.0,-0.606,-0.5375,-0.4797,-0.538,-0.6323,-0.747,-0.8434,-0.9571,-1.1016,-1.1395,-1.1681,0.0,-1.2493,-1.2682,-1.2885,-1.2909,-1.2937,-1.3008,-1.326,-1.326,-1.2965,-1.3107,-1.2979,-1.2554,-1.2798,-1.2788,-1.2493,-1.2455,-1.2356,-1.2191,-1.212,-1.1902,-1.1567,-1.1998,-1.2058,-1.178,-1.3136,-1.3715,-1.3806,-1.5026,-1.5589,-1.5684,-1.6344,-1.6626,-1.6727,-1.7274,-1.774,-1.7912,-1.7698,-1.8446,-1.9437,-1.8316,-1.8563,-1.926,-1.9307,-1.876,-1.8137,-1.8137,-1.7264,-1.638,-1.6329,-1.6011,-1.5884,-1.7018,-1.6374,-1.5863,-1.6997,-1.6518,-1.59,-1.5944,-1.6743,-1.7345,-1.6807,-1.7568,-1.7903,-1.7049,-1.6819,-1.6599,-1.606,-1.4775,-1.3865,-1.3817,-1.3888,-1.4097,-1.4224,-1.419,-1.4159,-1.4088,-1.3924,-1.403,-1.4504,-1.4633,-1.5188,-1.6158,-1.6298,-1.6817,-1.7726,-1.7726,-1.8085,-1.8854,-1.8854,-1.8921,-1.5929,-1.5383,-1.4783,-1.468,-1.3718,-1.2252,-1.0509,0.0,0.0,0.0,-0.506,-0.4842,-0.4464,-0.5287,0.0,-0.7126,-0.8304,-0.9495,-1.0669,-1.1358,-1.2058,-1.3229,-1.3709,-1.423,-1.5129,-1.5151,-1.5205,-1.5335,-1.5454,-1.4839,-1.336,-1.3235,-1.3041,-1.2625,-1.3256,-1.3372,-1.2611,-1.3039,-1.2925,-1.2295,-1.2191,-1.2287,-1.2471,-1.2857,-1.3259,-1.3596,-1.4644,-1.5306,-1.5615,-1.6588,-1.6907,-1.6954,-1.7643,-1.777,-1.7584,-1.7948,-1.8262,-1.8583,-1.8483,-1.945,-2.0576,-2.0192,-2.0084,-1.9961,-1.9868,-1.9378,-1.8817,-1.8977,-1.8088,-1.6958,-1.6958,-1.6729,-1.6711,-1.7312,-1.7312,-1.7413,-1.8017,-1.7668,-1.7166,-1.7166,-1.7796,-1.8109,-1.8016,-1.8326,-1.85,-1.8491,-1.8059,-1.7784,-1.7807,-1.7072,-1.626,-1.5357,-1.5406,-1.5473,-1.542,-1.5726,-1.5786,-1.5327,-1.565,-1.5863,-1.6054,-1.6325,-1.6797,-1.7567,-1.791,-1.8277,-1.8777,-1.8777,-1.9177,-1.9987,-1.9922,-2.0118,-1.6489,-1.5732,-1.4962,-1.47,-1.3634,-1.2048,-0.9929,-0.8387,0.0,-0.4758,-0.4364,-0.4311,-0.4238,0.0,-0.593,0.0,-0.7663,-0.8926,-1.0338,-1.1146,-1.2399,0.0,-1.5005,0.0,-1.7086,-1.7123,-1.7207,-1.743,-1.7394,-1.6437,-1.4245,-1.4124,-1.3919,-1.3477,-1.4377,-1.4377,-1.3462,-1.4152,-1.4051,-1.3186,-1.3016,-1.3336,-1.4015,-1.4265,-1.479,-1.5675,-1.6278,-1.6897,-1.7455,-1.8161,-1.83,-1.8228,-1.8933,-1.8838,-1.845,-1.8745,-1.9005,-1.9382,-1.9384,-2.0377,-2.1527,-2.1428,-2.0994,-2.0564,-2.03,-1.9868,-1.9489,-1.9577,-1.8714,-1.7701,-1.7701,-1.7771,-1.7749,-1.7818,-1.8389,-1.8977,-1.8746,-1.8558,-1.8401,-1.8338,-1.8582,-1.879,-1.8854,-1.8773,-1.8829,-1.9384,-1.8909,-1.8629,-1.902,-1.9004,-1.8425,-1.712,-1.6806,-1.6625,-1.6541,-1.6954,-1.7017,-1.6463,-1.7009,-1.7403,-1.7367,-1.781,-1.8272,-1.8815,-1.9173,-1.9473,-1.9473,-1.9671,-1.9987,-2.0506,-2.056,-2.088,-1.7196,-1.7205,-1.6935,-1.591,-1.4869,-1.3522,-1.1294,0.0,-0.698,-0.5182,-0.4516,-0.4263,-0.4375,-0.4392,0.0,0.0,0.0,-0.7828,-1.075,-1.1764,-1.3104,-1.5523,0.0,0.0,-1.7358,-1.7406,-1.7412,-1.7443,-1.7219,-1.6852,-1.647,-1.6239,-1.6004,-1.5595,-1.5922,-1.5934,-1.5583,-1.566,-1.5648,-1.5541,-1.5518,-1.5779,-1.6118,-1.6042,-1.6242,-1.6622,-1.75,-1.8044,-1.8552,-1.9485,-2.0058,-2.027,-2.0534,-2.0628,-2.0628,-2.1084,-2.1449,-2.1548,-2.0638,-2.1265,-2.2042,-2.0753,-2.1469,-2.2624,-2.2287,-2.118,-2.0114,-1.9823,-1.895,-1.8067,-1.8067,-1.8354,-1.8615,-1.8712,-1.9264,-1.9535,-1.8622,-1.8401,-1.8338,-1.8051,-1.9052,-1.9778,-1.9056,-2.0261,-2.0925,-1.9884,-1.9738,-1.9475,-1.8867,-1.918,-1.9513,-1.9835,-1.837,-1.7723,-1.8337,-1.7796,-1.7397,-1.738,-1.7477,-1.7442,-1.7389,-1.747,-1.7872,-1.8802,-1.8828,-1.8942,-1.9142,-1.9911,-2.0237,-2.0161,-2.0944,-2.1262,-1.903,-1.8848,-1.798,-1.7229,-1.5503,-1.3327,-1.1237,0.0,-0.7375,-0.5948,-0.527,-0.4897,-0.5117,-0.4762,-0.4761,0.0,0.0,0.0,-0.847,-1.0418,-1.2496,-1.4719,-1.6359,0.0,0.0,-1.9428,-1.9435,-1.9673,-1.9401,-1.8982,-1.8561,-1.7171,-1.6138,-1.5873,-1.6618,-1.6624,-1.5861,-1.6711,-1.6916,-1.6368,-1.6586,-1.7055,-1.7782,-1.7675,-1.8167,-1.9124,-1.9351,-1.9914,-2.0621,-2.0573,-2.0806,-2.107,-2.0951,-2.0874,-2.0883,-2.1154,-2.1389,-2.1585,-2.0931,-2.1232,-2.1715,-2.0992,-2.1337,-2.2028,-2.1881,-2.1442,-2.0915,-2.0765,-1.9941,-1.9161,-1.9161,-1.9163,-1.9346,-2.0302,-2.0329,-2.0126,-2.0169,-1.9823,-1.9592,-1.9668,-2.02,-2.0452,-2.015,-2.0418,-2.0508,-1.9708,-1.9357,-1.9092,-1.8912,-1.9036,-1.9304,-1.9878,-1.9815,-1.9624,-1.9418,-1.9516,-1.9128,-1.8015,-1.8461,-1.8538,-1.8105,-1.8462,-1.8865,-1.9274,-1.966,-1.9987,-2.0183,-2.0506,-2.0933,-2.129,-2.1565,-2.2013,-1.9263,-1.9583,-1.9212,-1.8592,-1.6285,-1.3805,0.0,0.0,-0.7686,-0.6459,-0.5813,-0.5542,-0.5619,-0.5385,-0.5269,0.0,0.0,-0.6813,-0.7744,-0.9733,-1.1839,-1.3815,0.0,-1.7541,-1.9731,-2.0607,-2.1189,-2.1432,-2.1129,-2.0796,-2.023,-1.8489,-1.7326,-1.6836,-1.7779,-1.7989,-1.7127,-1.829,-1.8603,-1.7941,-1.8157,-1.8669,-1.9464,-1.9231,-1.9791,-2.0906,-2.0707,-2.1128,-2.179,-2.1283,-2.113,-2.113,-2.0908,-2.0789,-2.0679,-2.0679,-2.0916,-2.1171,-2.0806,-2.0848,-2.094,-2.0838,-2.0805,-2.0985,-2.0985,-2.1062,-2.1234,-2.1114,-2.0504,-1.9853,-1.9862,-1.9726,-1.9774,-2.0933,-2.067,-2.0313,-2.0817,-2.0567,-2.034,-2.0482,-2.0788,-2.0978,-2.0598,-2.0666,-2.0504,-1.9742,-1.9455,-1.9257,-1.9159,-1.9276,-1.9522,-2.0023,-2.1007,-2.1139,-2.0012,-2.0356,-2.0155,-1.9087,-1.9492,-1.9596,-1.9168,-1.9536,-1.9726,-1.9726,-2.0183,-2.0506,-2.0635,-2.0892,-2.1388,-2.2051,-2.2187,-2.2702,-1.6919,-1.8998,-2.0577,-1.9883,-1.7747,-1.5411,0.0,0.0,-0.7663,-0.6469,-0.6077,-0.5946,-0.5832,-0.6104,-0.6365,-0.6391,-0.7164,0.0,-0.9708,-1.0358,-1.1466,0.0,0.0,-1.4883,-1.7956,-2.0538,-2.2108,-2.2108,-2.1795,-2.1452,-2.1116,-2.0773,-2.0024,-1.8876,-1.968,-2.0078,-2.0078,-2.0609,-2.0917,-2.0814,-2.0814,-2.1019,-2.1302,-2.0945,-2.1081,-2.1576,-2.1189,-2.1117,-2.1448,-2.1539,-2.1147,-2.0508,-2.0608,-2.0429,-2.0099,-2.0099,-2.0338,-2.0611,-2.0231,-2.0099,-2.005,-1.9971,-1.9936,-1.9945,-1.9945,-2.0399,-2.0805,-2.0412,-2.0119,-1.9937,-2.0102,-1.9851,-1.9693,-2.0215,-2.0006,-1.9742,-1.9959,-2.0,-1.9898,-1.9564,-2.0524,-2.1092,-2.0096,-2.1133,-2.1762,-2.0448,-2.0324,-2.0105,-1.9718,-2.009,-2.0587,-2.108,-2.1773,-2.1617,-2.0179,-1.9771,-1.9975,-2.0724,-2.0504,-2.0404,-2.0557,-2.0292,-2.0096,-2.0096,-2.0096,-2.0107,-2.0096,-2.0944,-2.1577,-2.1939,-2.2702,-2.3258,-1.5539,-1.6695,-1.7206,-1.6677,-1.4726,-1.2692,-1.1401,-0.9458,-0.7777,-0.7218,-0.6752,-0.6372,-0.6372,-0.6101,-0.5962,-0.6288,-0.6447,0.0,0.0,0.0,0.0,-1.396,-1.7042,-1.9455,-2.0412,-2.1309,-2.1765,-2.1765,-2.1452,-2.1,-2.0559,-2.0545,-2.0332,-1.9687,-1.9983,-2.0189,-2.0403,-2.0719,-2.1121,-2.1428,-2.1428,-2.1623,-2.1802,-2.1106,-2.1098,-2.1611,-2.0933,-2.108,-2.1827,-2.1088,-2.0844,-2.0853,-2.0425,-2.0198,-2.0099,-2.0099,-2.0173,-2.0223,-1.9868,-1.9836,-1.9895,-1.9504,-1.9654,-1.9837,-1.9554,-1.9829,-2.018,-1.9887,-1.9762,-1.9696,-1.9719,-1.9561,-1.941,-1.9787,-1.9445,-1.9248,-1.9904,-1.9813,-1.987,-2.0663,-2.0974,-2.126,-2.1602,-2.1986,-2.1897,-2.1107,-2.0709,-2.0395,-2.0247,-2.0098,-2.0389,-2.144,-2.1812,-2.1726,-2.1182,-2.1392,-2.1185,-2.0337,-2.0686,-2.0674,-2.0094,-2.0497,-2.0805,-2.0805,-2.1273,-2.1663,-2.1901,-2.2161,-2.2408,-2.2763,-2.339,-2.3806,0.0,-1.4591,-1.5278,-1.5108,-1.3446,0.0,0.0,0.0,-0.7985,-0.768,-0.7354,-0.7079,-0.7069,-0.6763,-0.6624,-0.6837,-0.704,-0.7512,0.0,0.0,0.0,-1.4035,-1.7953,-2.0485,-2.0485,-2.1307,-2.179,-2.193,-2.1612,-2.1163,-2.0726,-2.0809,-2.0752,-2.0403,-2.0395,-2.0506,-2.0617,-2.1121,-2.1456,-2.1628,-2.1728,-2.1753,-2.1694,-2.1053,-2.1072,-2.1486,-2.0862,-2.0983,0.0,-2.0875,-2.047,-2.0326,-2.0046,-1.9829,-1.9613,-1.9613,-1.9613,-1.9589,-1.9377,-1.9387,-1.9471,-1.9279,-1.9379,-1.9563,-1.9279,-1.9471,-1.9754,-1.9487,-1.9487,-1.9396,-1.9304,-1.9196,-1.906,-1.9284,-1.9079,-1.8988,-1.9512,-1.9728,-1.9958,-2.0769,-2.1311,-2.1822,-2.2451,-2.2658,-2.2566,-2.2044,-2.1741,-2.1497,-2.1248,-2.1192,-2.152,-2.2418,-2.252,-2.252,-2.2447,-2.2653,-2.2434,-2.1757,-2.1853,-2.1721,-2.1393,-2.1586,-2.1702,-2.1702,-2.2173,-2.2494,-2.28,-2.3138,-2.3378,-2.3603,-2.4247,-2.4637,0.0,-1.257,-1.4253,-1.4359,0.0,0.0,0.0,0.0,0.0,0.0,0.0,-0.7901,-0.7901,-0.7995,-0.8061,-0.7994,-0.8615,-0.9533,0.0,-1.1593,0.0,0.0,-1.6967,-1.8833,-1.8636,-2.067,-2.2061,-2.2386,-2.2084,-2.1743,-2.1433,-2.1409,-2.1258,-2.0933,-2.0917,-2.0925,-2.0925,-2.17,-2.1938,-2.1643,-2.1782,-2.1586,-2.0967,-2.0942,-2.1028,-2.1057,-2.0784,-2.0652,-2.0693,-2.0619,-2.0112,-1.9293,-1.9593,-1.9325,-1.8867,-1.8867,-1.8867,-1.8867,-1.8867,-1.8851,-1.8827,-1.9096,-1.9188,-1.9188,-1.9188,-1.9387,-1.9487,-1.9196,-1.9188,-1.9096,-1.8827,-1.8827,-1.8827,-1.8827,-1.892,-1.8917,-1.921,-1.9774,-2.0206,-2.0303,-2.1523,-2.2602,-2.2784,-2.3191,-2.3466,-2.3291,-2.3272,-2.3066,-2.2665,-2.3203,-2.3656,-2.3722,-2.3783,-2.3918,-2.399,-2.3576,-2.3576,-2.429,-2.3617,-2.3404,-2.3886,-2.3205,-2.2788,-2.2739,-2.28,-2.2909,-2.3017,-2.3943,-2.435,-2.4408,-2.5175,-2.5618,-0.8049,0.0,-0.969,-0.9583,-0.9221,-0.8814,0.0,0.0,0.0,0.0,0.0,0.0,0.0,0.0,-0.8126,-0.8585,-0.9033,-0.9862,-1.1441,0.0,0.0,-1.7006,-1.9765,-2.1031,-1.9479,-2.0685,-2.1608,-2.1687,-2.137,-2.1235,-2.1353,-2.1345,-2.1415,-2.1522,-2.1318,-2.1224,-2.1224,-2.1344,-2.1503,-2.1694,-2.1057,-2.0785,-2.0851,-2.0378,-2.02,-2.0167,-2.0014,-2.0256,-2.0704,-1.9874,-1.9768,-1.9981,-1.9325,-1.9167,-1.9248,-1.9248,-1.9248,-1.9248,-1.9248,-1.9151,-1.9096,-1.9188,-1.9096,-1.892,-1.892,-1.892,-1.9012,-1.892,-1.892,-1.892,-1.8827,-1.8827,-1.8912,-1.9538,-1.9621,-1.9837,-2.0474,-2.1276,-2.1919,-2.1901,-2.2677,-2.3471,-2.3738,-2.3791,-2.3732,-2.3643,-2.3622,-2.3764,-2.4021,-2.372,-2.3885,-2.514,-2.4844,-2.4779,-2.5594,-2.4707,-2.4031,-2.3886,-2.4196,-2.4111,-2.3442,-2.3364,-2.3344,-2.3365,-2.3962,-2.4239,-2.4297,-2.4781,-2.5007,-2.5007,-2.5287,-2.5632,-0.7401,-0.7936,-0.8347,-0.8269,-0.8239,-0.8239,0.0,0.0,0.0,0.0,0.0,0.0,0.0,0.0,0.0,0.0,-1.0941,0.0,0.0,0.0,-1.771,-1.8839,-2.0444,-2.1553,-2.1777,-2.2367,-2.2681,-2.2859,-2.252,-2.2409,-2.261,-2.261,-2.261,-2.2811,-2.2538,-2.2038,-2.1121,-2.137,-2.1494,-2.1313,-2.1239,-2.1268,-2.1182,-2.0883,-2.0789,-2.0916,-2.0737,-2.09,-2.1379,-2.0683,-2.0606,-2.0848,-1.9879,-1.9845,-2.0399,-1.9936,-2.013,-2.0491,-2.0491,-2.0373,-2.0247,-1.981,-1.9832,-2.0058,-2.0058,-1.9972,-1.9711,-1.9015,-1.8827,-1.8735,-1.8651,-1.9012,-1.9363,-1.9621,-2.0076,-2.0542,-2.0997,-2.2077,-2.2963,-2.3018,-2.3679,-2.4505,-2.5159,-2.4921,-2.4887,-2.532,-2.5486,-2.5616,-2.5847,-2.5586,-2.5662,-2.6418,-2.596,-2.5861,-2.6396,-2.5697,-2.5127,-2.4927,-2.5083,-2.4962,-2.4351,-2.424,-2.4196,-2.4221,-2.4711,-2.4937,-2.4937,-2.5412,-2.5687,-2.5783,-2.6176,-2.651,-0.7635,-0.8476,-0.916,-0.865,-0.8558,-0.8552,0.0,0.0,0.0,0.0,0.0,0.0,0.0,0.0,0.0,0.0,0.0,0.0,-1.7066,-1.7108,-1.7902,-2.0146,-2.0749,-2.1778,-2.3936,-2.408,-2.4235,-2.4482,-2.429,-2.4088,-2.4187,-2.4187,-2.4159,-2.4104,-2.3957,-2.2939,-2.1148,-2.1691,-2.1662,-2.11,-2.1799,-2.1907,-2.1644,-2.1644,-2.1789,-2.2017,-2.1825,-2.1898,-2.2089,-2.1869,-2.1731,-2.1688,-2.0817,-2.1015,-2.1706,-2.1031,-2.132,-2.1949,-2.1974,-2.1961,-2.1642,-2.0931,-2.1113,-2.1613,-2.1613,-2.1466,-2.1094,-1.9706,-1.935,-1.9257,-1.9087,-1.9803,-2.0511,-2.032,-2.0966,-2.1617,-2.1749,-2.2978,-2.4033,-2.3938,-2.4716,-2.5622,-2.6422,-2.6181,-2.6179,-2.6922,-2.7425,-2.7661,-2.7602,-2.7637,-2.7706,-2.7558,-2.7097,-2.6815,-2.6794,-2.6591,-2.6544,-2.6634,-2.6086,-2.577,-2.562,-2.529,-2.523,-2.5368,-2.5439,-2.555,-2.5702,-2.6125,-2.6472,-2.6669,-2.7167,-2.7539,-0.8137,-1.0297,-1.1818,-0.8757,-0.7949,-0.7895,0.0,0.0,0.0,0.0,0.0,0.0,0.0,0.0,-1.1029,0.0,0.0,-1.8212,0.0,0.0,-2.2777,-2.1733,-2.3003,-2.344,-2.2151,-2.3308,-2.4115,-2.418,-2.4125,-2.4187,-2.4393,-2.4492,-2.4324,-2.4172,-2.3904,-2.3345,-2.2396,-2.2321,-2.208,-2.1838,-2.1423,-2.1318,-2.1494,-2.1494,-2.1434,-2.1185,-2.1643,-2.1897,-2.1915,-2.1779,-2.1896,-2.209,-2.1653,-2.1726,-2.2245,-2.2815,-2.3204,-2.3341,-2.3432,-2.3202,-2.2784,-2.2608,-2.2376,-2.2198,-2.2198,-2.2258,-2.2303,-2.2084,-2.1861,-2.1672,-2.1681,-2.2405,-2.3334,-2.3886,-2.3997,-2.4127,-2.4744,-2.5717,-2.6268,-2.5483,-2.5892,-2.6341,-2.616,-2.6179,-2.6217,-2.6368,-2.7273,-2.8023,-2.8235,-2.8077,-2.8,-2.8208,-2.7591,-2.7234,-2.7403,-2.7339,-2.7523,-2.8051,-2.6945,-2.6109,-2.5756,-2.5743,-2.6118,-2.6944,-2.6891,-2.7261,-2.8068,-2.7624,-2.7408,-2.7408,-2.7524,-2.7575,-0.8748,-0.9807,-1.0882,-1.052,-1.1526,-1.2481,0.0,0.0,0.0,0.0,0.0,0.0,0.0,0.0,-1.5534,-1.9761,0.0,-1.9802,-2.2611,-2.2494,-2.2441,-2.3483,-2.4181,-2.4617,-2.5016,-2.5874,-2.634,-2.6051,-2.5651,-2.5612,-2.6147,-2.5444,-2.5208,-2.5511,-2.4868,-2.4349,-2.3871,-2.3553,-2.3005,-2.2269,-2.2348,-2.2349,-2.2348,-2.2528,-2.2513,-2.252,-2.2809,-2.3063,-2.332,-2.3203,-2.3485,-2.3751,-2.3418,-2.3811,-2.4672,-2.5368,-2.5612,-2.555,-2.4822,-2.469,-2.4808,-2.4108,-2.4144,-2.437,-2.452,-2.4535,-2.445,-2.4127,-2.3617,-2.3056,-2.285,-2.3606,-2.4457,-2.4447,-2.4935,-2.5341,-2.5523,-2.6349,-2.6904,-2.6758,-2.7006,-2.7371,-2.7744,-2.7759,-2.7894,-2.809,-2.8805,-2.9273,-2.9287,-2.895,-2.8762,-2.8808,-2.8274,-2.796,-2.8012,-2.8029,-2.8236,-2.8753,-2.8147,-2.7768,-2.7824,-2.7897,-2.79,-2.791,-2.7845,-2.8055,-2.851,-2.8159,-2.8113,-2.8267,-2.8267,-2.8071,-0.9452,-0.9761,-1.044,-1.2167,0.0,0.0,0.0,0.0,0.0,0.0,0.0,0.0,0.0,-1.6008,0.0,-2.3689,-2.2443,-2.1826,-2.4593,-2.3232,-2.2969,-2.5644,-2.5581,-2.5978,-2.7787,-2.8196,-2.806,-2.7578,-2.7055,-2.6961,-2.7295,-2.6381,-2.602,-2.642,-2.5764,-2.5259,-2.498,-2.4543,-2.3817,-2.2787,-2.3291,-2.3493,-2.3484,-2.368,-2.3991,-2.4252,-2.4252,-2.4512,-2.4867,-2.4878,-2.5114,-2.5477,-2.5114,-2.5749,-2.6986,-2.7558,-2.7745,-2.7502,-2.6322,-2.6267,-2.6547,-2.5544,-2.5624,-2.6228,-2.6288,-2.6243,-2.6084,-2.5664,-2.5159,-2.4594,-2.4195,-2.4861,-2.5473,-2.5195,-2.5717,-2.6308,-2.6115,-2.676,-2.7382,-2.7689,-2.7875,-2.8282,-2.9118,-2.928,-2.9334,-2.9682,-3.0127,-3.0445,-3.0305,-3.0064,-2.9742,-2.9491,-2.9255,-2.9049,-2.8903,-2.8974,-2.9206,-2.9666,-2.9243,-2.9153,-2.9535,-2.9589,-2.9295,-2.8711,-2.8547,-2.8525,-2.854,-2.8577,-2.8681,-2.8837,-2.904,-2.8894,-1.0372,-1.1677,-1.3013,-1.2659,0.0,0.0,0.0,0.0,0.0,0.0,0.0,0.0,0.0,-1.7957,-1.8985,-2.0141,-2.2189,-2.4625,-2.7697,-2.7936,-2.8021,-2.843,-2.8036,-2.7776,-2.7987,-2.7998,-2.7828,-2.7321,-2.7257,-2.7056,-2.6653,-2.6568,-2.6345,-2.5932,-2.5858,-2.5614,-2.5168,-2.4967,-2.4444,-2.3707,-2.3774,-2.4003,-2.4423,-2.4682,-2.5063,-2.5511,-2.5686,-2.5773,-2.586,-2.6055,-2.6303,-2.6454,-2.6249,-2.6889,-2.804,-2.8511,-2.8664,-2.8516,-2.8245,-2.7876,-2.7363,-2.6724,-2.6508,-2.6383,-2.5971,-2.5983,-2.6222,-2.6341,-2.6896,-2.7243,-2.6486,-2.6865,-2.7635,-2.7993,-2.7819,-2.7442,-2.7442,-2.785,-2.8263,-2.8219,-2.835,-2.8642,-2.923,-2.9427,-2.9545,-2.9512,-3.0158,-3.0658,-3.0823,-3.1074,-3.1034,-3.0446,-3.0729,-3.0611,-2.9927,-3.051,-3.1043,-3.1304,-2.9959,-2.9222,-2.9401,-2.9535,-2.9627,-2.9704,-2.9102,-2.8837,-2.8955,-2.9093,-2.9093,-2.9021,-2.9733,-2.9992,-1.0753,-1.213,-1.3756,-1.4063,0.0,0.0,0.0,0.0,0.0,0.0,0.0,0.0,0.0,0.0,-2.295,-2.2172,-2.4514,-2.6943,-2.8444,-2.8477,-2.851,-2.891,-2.8679,-2.8401,-2.8034,-2.8115,-2.8039,-2.7602,-2.6864,-2.6587,-2.6804,-2.6062,-2.5699,-2.6076,-2.5787,-2.5647,-2.5633,-2.5549,-2.538,-2.5126,-2.4775,-2.4765,-2.4935,-2.521,-2.537,-2.5552,-2.5637,-2.5722,-2.5914,-2.5999,-2.6242,-2.6612,-2.7491,-2.8109,-2.8521,-2.9021,-2.8896,-2.8418,-2.8014,-2.7702,-2.7352,-2.6897,-2.6733,-2.6791,-2.6736,-2.6799,-2.684,-2.6466,-2.6622,-2.6915,-2.7313,-2.7639,-2.7878,-2.7872,-2.7914,-2.7913,-2.7985,-2.8134,-2.8444,-2.8963,-2.8928,-2.9032,-2.9528,-2.9665,-2.9688,-2.9688,-3.0276,-3.079,-3.0921,-3.1694,-3.1985,-3.1258,-3.1147,-3.1014,-3.0717,-3.0999,-3.1292,-3.1394,-3.0917,-3.0761,-3.1016,-3.1167,-3.0773,-2.9833,-3.0038,-2.9863,-2.923,-3.0401,-3.0842,-3.0633,-3.1593,-3.1755,-1.1826,-1.2574,-1.3682,0.0,0.0,0.0,0.0,0.0,0.0,0.0,0.0,0.0,0.0,0.0,0.0,0.0,-2.5808,-2.7927,-2.8254,-2.8368,-2.8422,-2.8598,-2.8558,-2.8393,-2.7967,-2.8036,-2.7905,-2.7342,-2.655,-2.6259,-2.6628,-2.5744,-2.553,-2.6194,-2.5806,-2.5717,-2.599,-2.5895,-2.5895,-2.599,-2.5801,-2.5622,-2.5622,-2.5858,-2.6008,-2.6187,-2.6187,-2.6282,-2.6473,-2.6473,-2.6618,-2.6936,-2.8197,-2.8523,-2.8442,-2.8969,-2.868,-2.8019,-2.7572,-2.729,-2.7097,-2.6675,-2.6645,-2.6832,-2.69,-2.69,-2.678,-2.6508,-2.6302,-2.6442,-2.7618,-2.7725,-2.7408,-2.7379,-2.7692,-2.805,-2.816,-2.8377,-2.8735,-2.9236,-2.9367,-2.9377,-2.9764,-2.9934,-3.0075,-3.0266,-3.082,-3.1389,-3.1888,-3.2623,-3.276,-3.2046,-3.1526,-3.1249,-3.1249,-3.1292,-3.1351,-3.1351,-3.1452,-3.1625,-3.1996,-3.2247,-3.1805,-3.06,-3.1226,-3.1109,-3.0223,-3.167,-3.2253,-3.2031,-3.3031,-3.3176,-1.379,-1.3178,0.0,0.0,0.0,0.0,0.0,0.0,0.0,0.0,0.0,-2.2752,-2.321,-2.2475,0.0,-2.3137,-2.5519,-2.7304,-2.7304,-2.7963,-2.8211,-2.7726,-2.7896,-2.79,-2.7715,-2.7672,-2.7374,-2.6617,-2.6627,-2.6409,-2.5928,-2.5895,-2.599,-2.6146,-2.599,-2.5979,-2.624,-2.599,-2.599,-2.624,-2.6479,-2.6539,-2.6539,-2.6779,-2.7193,-2.7555,-2.7555,-2.7555,-2.7555,-2.7555,-2.7555,-2.7697,-2.842,-2.8208,-2.7663,-2.8184,-2.7899,-2.7301,-2.7034,-2.6937,-2.6753,-2.6132,-2.6223,-2.653,-2.626,-2.6097,-2.6018,-2.6427,-2.6264,-2.6172,-2.7457,-2.6985,-2.6351,-2.6936,-2.7479,-2.7913,-2.7902,-2.8523,-2.9056,-2.9138,-2.9487,-2.9792,-2.9792,-3.0152,-3.0633,-3.1288,-3.1729,-3.2593,-3.4095,-3.393,-3.3387,-3.2855,-3.2002,-3.1482,-3.1482,-3.1482,-3.1482,-3.1539,-3.1539,-3.1655,-3.1996,-3.2547,-3.2619,-3.2222,-3.2592,-3.2579,-3.2004,-3.2816,-3.3095,-3.2918,-3.3828,-3.4087,-1.2148,0.0,0.0,0.0,0.0,0.0,0.0,0.0,0.0,0.0,0.0,-2.3992,-2.3629,-2.4418,0.0,-2.3225,-2.5167,-2.6835,-2.6835,-2.727,-2.7597,-2.7455,-2.7768,-2.7876,-2.7488,-2.7445,-2.7194,-2.6671,-2.631,-2.6059,-2.5906,-2.5895,-2.599,-2.6146,-2.6157,-2.6229,-2.6479,-2.6396,-2.6704,-2.7336,-2.7418,-2.7185,-2.6798,-2.7039,-2.7107,-2.7118,-2.7118,-2.7118,-2.7118,-2.7118,-2.7118,-2.7164,-2.7578,-2.7369,-2.6997,-2.7431,-2.7126,-2.6535,-2.6451,-2.6367,-2.6165,-2.5939,-2.5994,-2.6029,-2.586,-2.5847,-2.595,-2.6444,-2.6495,-2.6741,-2.76,-2.7661,-2.7644,-2.815,-2.8262,-2.8423,-2.8669,-2.8952,-2.9205,-2.9517,-2.9945,-3.0228,-3.0228,-3.0921,-3.1609,-3.1802,-3.2876,-3.4081,-3.5335,-3.4379,-3.3543,-3.3622,-3.2389,-3.1482,-3.1482,-3.1482,-3.1739,-3.2216,-3.2272,-3.2231,-3.2135,-3.2641,-3.2762,-3.2374,-3.3272,-3.3306,-3.2356,-3.3806,-3.4401,-3.4202,-3.5172,-3.5571,-1.3991,0.0,0.0,0.0,0.0,0.0,0.0,0.0,0.0,0.0,0.0,-2.5073,-2.4809,-2.538,-2.5473,-2.428,-2.5486,-2.6562,-2.6365,-2.7063,-2.7491,-2.6966,-2.7535,-2.78,-2.7402,-2.7358,-2.732,-2.7334,-2.7016,-2.6928,-2.6928,-2.6928,-2.7021,-2.7196,-2.7103,-2.7185,-2.7441,-2.7348,-2.7568,-2.8039,-2.8131,-2.7983,-2.7684,-2.7846,-2.7926,-2.7753,-2.7753,-2.7753,-2.7753,-2.7429,-2.7278,-2.7219,-2.7054,-2.6735,-2.6512,-2.673,-2.6568,-2.6074,-2.6074,-2.5979,-2.599,-2.6302,-2.6218,-2.6012,-2.6668,-2.6685,-2.6573,-2.7227,-2.737,-2.7452,-2.8255,-2.8426,-2.8386,-2.8472,-2.8588,-2.8843,-2.9046,-2.9387,-2.9725,-2.9984,-3.057,-3.0996,-3.0934,-3.1901,-3.2721,-3.2933,-3.4201,-3.531,-3.5657,-3.4515,-3.3638,-3.3561,-3.2285,-3.164,-3.191,-3.1936,-3.2241,-3.2933,-3.3039,-3.3039,-3.3018,-3.3355,-3.3542,-3.3502,-3.4362,-3.4539,-3.4011,-3.5053,-3.545,-3.5292,-3.5857,-3.6079,0.0,0.0,0.0,0.0,0.0,0.0,0.0,0.0,0.0,-2.7097,0.0,-2.5914,-2.653,-2.5749,-2.5261,-2.5812,-2.6374,-2.6568,-2.6129,-2.7334,-2.7835,-2.6638,-2.74,-2.7922,-2.7702,-2.7656,-2.7856,-2.8383,-2.8426,-2.8426,-2.8426,-2.8426,-2.8518,-2.8791,-2.853,-2.8518,-2.8791,-2.8518,-2.8505,-2.8585,-2.8779,-2.9028,-2.9106,-2.9094,-2.9081,-2.9081,-2.9081,-2.9081,-2.9003,-2.8199,-2.7891,-2.781,-2.7033,-2.6633,-2.6396,-2.6396,-2.6302,-2.6135,-2.6135,-2.6135,-2.6218,-2.7021,-2.6775,-2.6451,-2.8269,-2.8081,-2.7592,-2.8666,-2.8614,-2.8493,-2.9406,-2.9341,-2.8901,-2.8527,-2.8809,-2.9229,-2.9229,-2.9899,-3.0508,-3.0508,-3.1415,-3.2119,-3.2001,-3.3017,-3.4037,-3.4618,-3.5721,-3.6199,-3.5493,-3.4607,-3.3757,-3.3091,-3.2191,-3.1951,-3.2586,-3.2703,-3.3045,-3.3633,-3.3786,-3.4003,-3.4317,-3.4382,-3.4704,-3.5237,-3.5605,-3.5975,-3.6301,-3.6208,-3.6182,-3.6182,-3.6019,-3.5898,0.0,0.0,0.0,0.0,0.0,0.0,0.0,0.0,-2.6081,-2.6359,-2.6724,-2.6966,-2.692,-2.7123,-2.6987,-2.6259,-2.7186,-2.7778,-2.7033,-2.8116,-2.8881,-2.861,-2.9105,-2.9295,-2.8881,-2.8834,-2.869,-2.8383,-2.8426,-2.8426,-2.8426,-2.8426,-2.8426,-2.8518,-2.8426,-2.8426,-2.8518,-2.8573,-2.8954,-2.9679,-2.9845,-3.0406,-3.1198,-2.9781,-2.9015,-2.887,-2.887,-2.887,-2.887,-2.8633,-2.8542,-2.8554,-2.8131,-2.7959,-2.7959,-2.7959,-2.7879,-2.7867,-2.7867,-2.7867,-2.7879,-2.8108,-2.8039,-2.7971,-2.8534,-2.8633,-2.8797,-2.9831,-3.0114,-3.0291,-3.111,-3.1035,-3.0748,-3.0623,-3.0356,-3.0214,-3.0522,-3.1149,-3.1623,-3.1502,-3.2434,-3.3143,-3.3143,-3.4095,-3.5094,-3.5928,-3.6211,-3.6399,-3.6734,-3.5347,-3.4411,-3.4757,-3.3631,-3.2879,-3.3039,-3.3287,-3.3684,-3.4333,-3.4431,-3.4688,-3.527,-3.4894,-3.4958,-3.5515,-3.58,-3.6019,-3.6208,-3.6122,-3.6019,-3.6019,-3.5905,-3.5494,0.0,0.0,0.0,0.0,0.0,0.0,0.0,0.0,-2.7302,-2.7162,-2.7087,-2.7193,-2.769,-2.7891,-2.7871,-2.7589,-2.817,-2.8639,-2.8402,-2.929,-2.987,-2.9462,-2.988,-3.0181,-3.0065,-2.9816,-2.9849,-3.0024,-3.0012,-2.9935,-2.9935,-2.9935,-2.9935,-2.9935,-2.9999,-2.9999,-2.9935,-3.0152,-3.038,-3.0797,-3.0947,-3.1408,-3.1936,-3.0859,-3.0101,-2.9806,-2.9806,-2.9806,-2.9806,-2.9406,-2.925,-2.9172,-2.8597,-2.8426,-2.8426,-2.8426,-2.8426,-2.8426,-2.8426,-2.8493,-2.8639,-2.9045,-2.9045,-2.9032,-2.9986,-3.0037,-3.0101,-3.0957,-3.122,-3.1246,-3.1569,-3.1434,-3.1408,-3.1809,-3.1307,-3.0748,-3.0986,-3.1649,-3.2263,-3.2101,-3.3353,-3.4414,-3.4473,-3.528,-3.5984,-3.6209,-3.623,-3.6178,-3.6146,-3.5273,-3.4762,-3.5036,-3.408,-3.3547,-3.3836,-3.4087,-3.4431,-3.5052,-3.5144,-3.5299,-3.5577,-3.5436,-3.5498,-3.5667,-3.5888,-3.6019,-3.6122,-3.5993,-3.5888,-3.5888,-3.5905,-3.5684,0.0,0.0,0.0,0.0,0.0,0.0,0.0,0.0,-2.8893,-2.8518,-2.7773,-2.7522,-2.8548,-2.8639,-2.8639,-2.8995,-2.9241,-2.9551,-2.9705,-3.0493,-3.0745,-3.0025,-3.0443,-3.0846,-3.0983,-3.0696,-3.0872,-3.1743,-3.1757,-3.1609,-3.1609,-3.1669,-3.1669,-3.1609,-3.1817,-3.1817,-3.1609,-3.1817,-3.189,-3.1683,-3.1963,-3.2082,-3.2128,-3.1909,-3.1556,-3.1198,-3.1198,-3.1198,-3.1123,-3.033,-3.0012,-2.9935,-2.9213,-2.8966,-2.8966,-2.9045,-2.9045,-2.9045,-2.9045,-2.911,-2.9409,-3.0126,-3.005,-3.0037,-3.1542,-3.1616,-3.122,-3.1863,-3.2023,-3.1877,-3.1569,-3.1556,-3.1823,-3.255,-3.2146,-3.1542,-3.1542,-3.2349,-3.3031,-3.2889,-3.424,-3.5379,-3.5583,-3.6096,-3.641,-3.6272,-3.6347,-3.6263,-3.5807,-3.5583,-3.5416,-3.5302,-3.4552,-3.4332,-3.4886,-3.4961,-3.5195,-3.5808,-3.5841,-3.5756,-3.5667,-3.5932,-3.6019,-3.5905,-3.5975,-3.6062,-3.6062,-3.5932,-3.5905,-3.5905,-3.6019,-3.5994,0.0,0.0,0.0,0.0,0.0,0.0,0.0,0.0,-2.9349,0.0,-2.9226,-2.876,-2.8917,-2.9499,-2.9833,-2.9332,-3.038,-3.111,-3.0519,-3.1097,-3.1434,-3.136,-3.1434,-3.1522,-3.1522,-3.1447,-3.1522,-3.1609,-3.1743,-3.1743,-3.1609,-3.1863,-3.1936,-3.1609,-3.1817,-3.1817,-3.1609,-3.1963,-3.2182,-3.2109,-3.2646,-3.2704,-3.2345,-3.2489,-3.2345,-3.1909,-3.1909,-3.1909,-3.1909,-3.1542,-3.132,-3.132,-3.1246,-3.1158,-3.1233,-3.1516,-3.1589,-3.1589,-3.1589,-3.1589,-3.1663,-3.175,-3.169,-3.1643,-3.22,-3.2214,-3.2082,-3.2503,-3.2503,-3.2345,-3.2273,-3.2605,-3.3017,-3.3073,-3.3492,-3.3822,-3.3822,-3.4499,-3.4993,-3.4876,-3.4966,-3.518,-3.5638,-3.5672,-3.5998,-3.6961,-3.7318,-3.7744,-3.8698,-3.7985,-3.7362,-3.717,-3.6599,-3.6259,-3.6323,-3.5795,-3.5847,-3.6741,-3.6263,-3.5975,-3.5932,-3.6276,-3.636,-3.6216,-3.6259,-3.6318,-3.6419,-3.6318,-3.6216,-3.6216,-3.6259,-3.5914,-1.6493,0.0,0.0,0.0,0.0,0.0,0.0,0.0,-3.0359,-3.0283,-3.0516,-3.0745,-3.0683,-3.0859,-3.1035,-3.0908,-3.1482,-3.1877,-3.1809,-3.2055,-3.2228,-3.2228,-3.2155,-3.2082,-3.2228,-3.2023,-3.1963,-3.2009,-3.2023,-3.2036,-3.1963,-3.2096,-3.2155,-3.2082,-3.2155,-3.2155,-3.2082,-3.2214,-3.2372,-3.2503,-3.2704,-3.2846,-3.2945,-3.3016,-3.2717,-3.2128,-3.2128,-3.2128,-3.2055,-3.1909,-3.1909,-3.1909,-3.1909,-3.185,-3.1803,-3.1936,-3.195,-3.1803,-3.1803,-3.1863,-3.2023,-3.2023,-3.2082,-3.2214,-3.2345,-3.2431,-3.2503,-3.2489,-3.2489,-3.2345,-3.23,-3.2761,-3.3297,-3.3644,-3.4245,-3.4846,-3.5204,-3.5285,-3.535,-3.5638,-3.5729,-3.6122,-3.6938,-3.6909,-3.7013,-3.77,-3.7968,-3.8081,-3.8169,-3.8136,-3.8094,-3.797,-3.7695,-3.7539,-3.7539,-3.7279,-3.7132,-3.7182,-3.6884,-3.6551,-3.6191,-3.6461,-3.6585,-3.6544,-3.6444,-3.6402,-3.6402,-3.6343,-3.6301,-3.6301,-3.6402,-3.6229,0.0,0.0,0.0,0.0,0.0,0.0,0.0,0.0,-3.0945,0.0,-3.1137,-3.1951,-3.182,-3.1723,-3.189,-3.2169,-3.2241,-3.2314,-3.2561,-3.2561,-3.2561,-3.2561,-3.2431,-3.2431,-3.2574,-3.2372,-3.2241,-3.2359,-3.23,-3.2241,-3.2182,-3.2314,-3.23,-3.2359,-3.2345,-3.2417,-3.2359,-3.2345,-3.2489,-3.2704,-3.2704,-3.286,-3.3171,-3.3171,-3.2803,-3.2273,-3.2359,-3.2431,-3.2431,-3.22,-3.22,-3.22,-3.2141,-3.2082,-3.1963,-3.2096,-3.2023,-3.1877,-3.1877,-3.195,-3.2096,-3.2096,-3.2214,-3.2417,-3.2417,-3.2618,-3.2761,-3.2431,-3.2618,-3.2832,-3.2516,-3.303,-3.3768,-3.4206,-3.4861,-3.5529,-3.5894,-3.5903,-3.5834,-3.6004,-3.6432,-3.6993,-3.7762,-3.7818,-3.7966,-3.8437,-3.8714,-3.8673,-3.8216,-3.8679,-3.8912,-3.8665,-3.8601,-3.8601,-3.8601,-3.843,-3.8185,-3.7927,-3.7809,-3.7491,-3.7007,-3.7026,-3.7062,-3.7062,-3.6771,-3.6568,-3.6468,-3.6468,-3.6468,-3.6468,-3.6544,-3.6585,0.0,0.0,0.0,0.0,0.0,0.0,0.0,0.0,-3.0555,-2.9886,-3.0582,-3.1341,-3.1341,-3.1802,-3.2241,-3.2359,-3.23,-3.2241,-3.2417,-3.23,-3.2255,-3.2255,-3.2255,-3.2241,-3.2241,-3.2182,-3.2182,-3.2182,-3.2286,-3.2359,-3.2182,-3.2503,-3.2503,-3.2241,-3.2359,-3.2359,-3.2241,-3.2359,-3.2489,-3.2704,-3.2704,-3.2704,-3.2704,-3.2704,-3.2704,-3.2704,-3.3086,-3.3255,-3.3171,-3.2646,-3.2417,-3.2345,-3.2241,-3.2182,-3.2241,-3.2574,-3.2632,-3.2632,-3.2632,-3.2632,-3.2632,-3.2632,-3.2561,-3.2417,-3.2417,-3.2747,-3.3017,-3.2372,-3.3185,-3.4041,-3.3185,-3.3973,-3.4978,-3.4876,-3.5688,-3.6352,-3.6037,-3.6731,-3.7118,-3.6333,-3.6906,-3.7488,-3.7354,-3.7544,-3.8081,-3.9289,-3.9716,-4.0085,-4.0655,-4.075,-4.0444,-3.9628,-3.9542,-3.9542,-3.9542,-3.8809,-3.8734,-3.9612,-3.918,-3.8894,-3.886,-3.8321,-3.8018,-3.8018,-3.7338,-3.6987,-3.697,-3.697,-3.697,-3.697,-3.6829,-3.6771,0.0,0.0,0.0,0.0,0.0,-2.5752,-2.6934,-2.8655,-2.9874,-2.9656,-3.0215,-3.073,-3.073,-3.1517,-3.2255,-3.2228,-3.2241,-3.2241,-3.2228,-3.2241,-3.2182,-3.2182,-3.2182,-3.2182,-3.2182,-3.1829,-3.1612,-3.1612,-3.167,-3.1507,-3.107,-3.1537,-3.1812,-3.1826,-3.1741,-3.186,-3.2182,-3.2241,-3.2359,-3.2489,-3.2489,-3.2561,-3.2704,-3.2704,-3.2704,-3.2704,-3.2846,-3.2931,-3.2931,-3.2704,-3.2561,-3.2561,-3.2574,-3.2431,-3.2359,-3.2489,-3.2431,-3.2372,-3.2372,-3.2372,-3.2372,-3.2372,-3.2632,-3.2875,-3.2875,-3.3353,-3.3837,-3.3644,-3.3851,-3.407,-3.3811,-3.4341,-3.5073,-3.5608,-3.6148,-3.6492,-3.6367,-3.6863,-3.7293,-3.6966,-3.7467,-3.8125,-3.8608,-3.8788,-3.9209,-4.0251,-4.0483,-4.0614,-4.0745,-4.084,-4.0737,-4.0367,-4.0444,-4.0538,-4.0538,-4.0337,-4.0169,-4.013,-3.9957,-3.9617,-3.9213,-3.9,-3.8883,-3.8883,-3.8748,-3.8113,-3.6987,-3.6987,-3.6987,-3.6987,-3.6948,-3.6948,-1.6793,0.0,0.0,0.0,0.0,-2.4125,-2.5792,-2.734,-2.8552,-2.9102,-2.9672,-3.0093,-3.0093,-3.0907,-3.1585,-3.1585,-3.1762,-3.1884,-3.1884,-3.2046,-3.2182,-3.2182,-3.2182,-3.2314,-3.2503,-3.1768,-3.1428,-3.1625,-3.1428,-3.1099,-3.0746,-3.1101,-3.1276,-3.1211,-3.1249,-3.1605,-3.2201,-3.2407,-3.269,-3.303,-3.303,-3.3101,-3.3241,-3.3241,-3.3241,-3.3241,-3.3311,-3.3101,-3.2704,-3.2632,-3.2761,-3.3044,-3.2903,-3.296,-3.3157,-3.3087,-3.296,-3.2903,-3.2903,-3.2903,-3.2903,-3.2903,-3.3241,-3.3561,-3.3561,-3.4109,-3.4581,-3.4327,-3.4528,-3.4743,-3.4476,-3.4942,-3.5608,-3.6274,-3.6708,-3.6997,-3.7058,-3.7484,-3.7769,-3.7546,-3.8408,-3.9263,-3.9612,-3.9834,-4.0186,-4.0823,-4.0888,-4.0888,-4.084,-4.0888,-4.0935,-4.0871,-4.1012,-4.1123,-4.1123,-4.1226,-4.1108,-4.0709,-4.0718,-4.0534,-4.0112,-3.9831,-3.9652,-3.9499,-3.9394,-3.8729,-3.745,-3.7509,-3.7553,-3.7535,-3.721,-3.7069,0.0,0.0,0.0,0.0,0.0,0.0,-2.5161,0.0,-2.6627,-2.8238,-2.9021,-2.9522,-2.9455,-2.9944,-3.0351,-3.0351,-3.0866,-3.133,-3.133,-3.1847,-3.2214,-3.2214,-3.2241,-3.2503,-3.3157,-3.2095,-3.1611,-3.2328,-3.1736,-3.1323,-3.1335,-3.1323,-3.1072,-3.0487,-3.1031,-3.1653,-3.234,-3.289,-3.3602,-3.4283,-3.4298,-3.4312,-3.4312,-3.4312,-3.4312,-3.4312,-3.4528,-3.3919,-3.2761,-3.2561,-3.303,-3.3782,-3.3353,-3.3768,-3.4595,-3.438,-3.4312,-3.4312,-3.4312,-3.4312,-3.4312,-3.4312,-3.4298,-3.4298,-3.4298,-3.4846,-3.527,-3.4409,-3.5139,-3.607,-3.532,-3.58,-3.6616,-3.6938,-3.7417,-3.7921,-3.8222,-3.8656,-3.8697,-3.8008,-3.961,-4.0848,-4.0138,-4.05,-4.0888,-4.0888,-4.0888,-4.0935,-4.1093,-4.1093,-4.1123,-4.1209,-4.1209,-4.1209,-4.1209,-4.1363,-4.1408,-4.1408,-4.156,-4.1648,-4.1648,-4.0945,-4.0389,-3.9994,-3.9297,-3.876,-3.8401,-3.8528,-3.8607,-3.859,-3.7598,-3.7264,-1.6797,0.0,0.0,0.0,0.0,0.0,-2.2382,-2.4702,-2.6633,-2.6845,-2.8112,-2.9155,-2.8896,-2.9316,-2.9734,-2.9734,-3.0623,-3.1332,-3.1332,-3.2241,-3.2976,-3.2976,-3.3428,-3.3782,-3.3973,-3.3278,-3.272,-3.2407,-3.2233,-3.1897,-3.1444,-3.1825,-3.2031,-3.186,-3.2068,-3.2321,-3.2614,-3.3136,-3.3587,-3.3835,-3.4132,-3.4312,-3.4312,-3.4312,-3.4312,-3.4312,-3.4528,-3.4394,-3.4056,-3.3973,-3.4124,-3.4394,-3.4259,-3.4447,-3.4714,-3.4581,-3.4528,-3.4514,-3.438,-3.4312,-3.4312,-3.4312,-3.4647,-3.5124,-3.5124,-3.5529,-3.6006,-3.5991,-3.607,-3.6211,-3.6148,-3.6476,-3.6877,-3.6954,-3.7578,-3.8165,-3.8278,-3.9035,-3.9654,-3.9437,-4.0239,-4.0871,-4.0697,-4.0776,-4.0888,-4.0888,-4.0888,-4.0935,-4.0935,-4.1047,-4.1093,-4.1123,-4.1244,-4.1363,-4.1363,-4.1727,-4.1966,-4.1966,-4.2279,-4.2462,-4.2462,-4.2264,-4.2168,-4.2141,-4.214,-4.1805,-4.1199,-3.9301,-3.8373,-3.8373,-3.8171,-3.8129,0.0,0.0,0.0,0.0,0.0,0.0,-2.2027,-2.3982,-2.5841,-2.6952,-2.8098,-2.8844,-2.8651,-2.9233,-2.9704,-2.9642,-3.0735,-3.1546,-3.134,-3.2234,-3.2898,-3.2898,-3.3231,-3.358,-3.3906,-3.3077,-3.2538,-3.2423,-3.2145,-3.1845,-3.1529,-3.1924,-3.2029,-3.1877,-3.2126,-3.2638,-3.3411,-3.3946,-3.4598,-3.526,-3.5465,-3.5597,-3.5597,-3.5597,-3.5548,-3.5449,-3.5691,-3.5627,-3.5514,-3.5642,-3.5484,-3.5225,-3.5175,-3.5385,-3.5706,-3.5514,-3.5464,-3.54,-3.527,-3.519,-3.519,-3.519,-3.5593,-3.607,-3.5991,-3.6243,-3.6631,-3.6646,-3.66,-3.6538,-3.6677,-3.715,-3.7535,-3.7535,-3.8294,-3.9032,-3.9032,-3.9732,-4.0269,-4.0053,-4.05,-4.0888,-4.0888,-4.0888,-4.0918,-4.0995,-4.1012,-4.1029,-4.1152,-4.1215,-4.1279,-4.1307,-4.1426,-4.1542,-4.1744,-4.2008,-4.2279,-4.2422,-4.2657,-4.2829,-4.2868,-4.2868,-4.2886,-4.2886,-4.3041,-4.2802,-4.2173,-4.0425,-3.9342,-3.893,-3.8962,-3.927,0.0,0.0,0.0,0.0,-1.865,0.0,-2.2713,-2.3509,-2.4524,-2.7355,-2.8162,-2.8257,-2.8257,-2.8954,-2.9551,-2.9397,-3.0819,-3.1792,-3.1494,-3.2028,-3.2436,-3.2421,-3.2494,-3.279,-3.3501,-3.2461,-3.2031,-3.2645,-3.2078,-3.1745,-3.1913,-3.1985,-3.1811,-3.1465,-3.2033,-3.2987,-3.4419,-3.5118,-3.6097,-3.735,-3.737,-3.7417,-3.7417,-3.7417,-3.7254,-3.706,-3.7314,-3.7194,-3.6846,-3.7134,-3.6845,-3.6182,-3.6087,-3.6399,-3.6999,-3.6785,-3.66,-3.6492,-3.6492,-3.6492,-3.6554,-3.6554,-3.6754,-3.6999,-3.6785,-3.6952,-3.7134,-3.6846,-3.6862,-3.7076,-3.7076,-3.7653,-3.8278,-3.8278,-3.9139,-4.0003,-4.0003,-4.0483,-4.071,-4.022,-4.0549,-4.0871,-4.0935,-4.0935,-4.0965,-4.1163,-4.1152,-4.1215,-4.1515,-4.1471,-4.1471,-4.1631,-4.1675,-4.1831,-4.2239,-4.232,-4.2501,-4.2829,-4.2922,-4.3032,-4.3121,-4.3156,-4.3085,-4.2914,-4.2821,-4.2576,-4.2149,-4.1556,-4.0843,-4.0025,-4.0025,-4.0566,0.0,0.0,0.0,0.0,-1.9097,0.0,-2.0363,-2.1875,-2.3271,-2.3973,-2.5355,-2.6328,-2.5928,-2.6554,-2.7054,-2.6916,-2.9,-3.0899,-3.1537,-3.2695,-3.3368,-3.3178,-3.3783,-3.4312,-3.4429,-3.4291,-3.4114,-3.3814,-3.3752,-3.3737,-3.3793,-3.3795,-3.3772,-3.3701,-3.3936,-3.4297,-3.4727,-3.5783,-3.6537,-3.6908,-3.7266,-3.7417,-3.7417,-3.7417,-3.7358,-3.7298,-3.7567,-3.7583,-3.7524,-3.7685,-3.7389,-3.6846,-3.68,-3.6877,-3.6999,-3.6785,-3.6662,-3.6662,-3.6554,-3.6693,-3.6877,-3.6877,-3.7089,-3.7298,-3.7134,-3.7058,-3.6982,-3.6923,-3.7181,-3.7421,-3.7421,-3.7828,-3.8278,-3.8278,-3.9139,-4.0003,-4.0003,-4.0483,-4.0871,-4.0776,-4.0823,-4.0935,-4.1047,-4.1047,-4.1076,-4.1163,-4.1209,-4.1226,-4.1426,-4.1426,-4.1587,-4.2008,-4.2092,-4.2239,-4.2657,-4.2996,-4.3212,-4.3283,-4.3726,-4.4017,-4.4048,-4.4091,-4.4165,-4.4233,-4.3576,-4.3208,-4.3111,-4.1627,-4.1135,-4.1576,-4.1576,-4.1669,0.0,0.0,-1.9115,-1.949,-1.9656,0.0,0.0,-2.2377,-2.3283,-2.4122,-2.5066,-2.5674,-2.5453,-2.6136,-2.6707,-2.651,-2.8867,-3.0438,-2.9704,-3.1828,-3.3435,-3.3255,-3.3677,-3.3951,-3.3911,-3.4006,-3.3975,-3.3646,-3.3669,-3.3723,-3.383,-3.3814,-3.4026,-3.4482,-3.4606,-3.5102,-3.5931,-3.6605,-3.7191,-3.7601,-3.7799,-3.7902,-3.7902,-3.7902,-3.7786,-3.7653,-3.786,-3.7876,-3.77,-3.7876,-3.77,-3.7361,-3.7405,-3.7405,-3.7361,-3.7225,-3.715,-3.7074,-3.6952,-3.7089,-3.721,-3.721,-3.7389,-3.7492,-3.7358,-3.7238,-3.7194,-3.7225,-3.7361,-3.7583,-3.7828,-3.8311,-3.8794,-3.9086,-3.9783,-4.05,-4.0549,-4.0776,-4.1029,-4.1041,-4.1041,-4.1059,-4.1093,-4.1123,-4.1198,-4.1363,-4.1507,-4.1666,-4.1856,-4.2008,-4.2198,-4.2418,-4.2458,-4.2637,-4.3069,-4.3283,-4.3508,-4.3841,-4.4128,-4.4314,-4.4401,-4.4411,-4.4496,-4.4605,-4.3788,-4.3555,-4.395,-4.2682,-4.2235,-4.2602,-4.2602,-4.2772,-2.0082,-1.9565,-1.9759,-2.0055,-2.0245,-2.0832,0.0,0.0,0.0,-2.4702,-2.5017,-2.5017,-2.4964,-2.5644,-2.6111,-2.5836,-2.8171,-2.9301,-2.7308,-3.0169,-3.2332,-3.2017,-3.2767,-3.3093,-3.2651,-3.2793,-3.3008,-3.3187,-3.2898,-3.2919,-3.333,-3.3398,-3.3768,-3.4665,-3.4894,-3.5636,-3.703,-3.7358,-3.7769,-3.8351,-3.8408,-3.8391,-3.8391,-3.8391,-3.8205,-3.796,-3.8107,-3.7992,-3.7759,-3.7876,-3.7876,-3.7817,-3.7817,-3.7759,-3.7642,-3.7642,-3.7551,-3.7417,-3.7417,-3.7417,-3.7476,-3.7492,-3.7567,-3.77,-3.7492,-3.7449,-3.748,-3.748,-3.748,-3.7626,-3.8181,-3.8739,-3.9348,-3.9851,-4.0483,-4.0982,-4.1076,-4.114,-4.1123,-4.1209,-4.1255,-4.1226,-4.1186,-4.1272,-4.1418,-4.1675,-4.1966,-4.2221,-4.2458,-4.2657,-4.279,-4.2808,-4.2788,-4.2995,-4.3474,-4.3526,-4.3744,-4.4255,-4.4314,-4.4401,-4.4487,-4.4515,-4.4524,-4.4551,-4.3885,-4.383,-4.4458,-4.3811,-4.3483,-4.3456,-4.3428,-4.3755,-2.0627,-1.9965,-2.0169,-2.0459,-2.0696,-2.1082,-2.1815,0.0,-2.2233,-2.2673,0.0,-2.289,-2.2795,0.0,0.0,-2.215,-2.432,-2.5938,-2.5468,-2.7766,-2.9105,-2.8081,-3.1004,-3.2488,-3.0964,-3.1262,-3.2051,-3.3355,-3.2241,-3.2117,-3.3578,-3.3642,-3.3978,-3.4665,-3.5358,-3.6078,-3.6934,-3.7673,-3.8157,-3.8221,-3.8351,-3.8391,-3.8391,-3.8391,-3.8335,-3.8164,-3.818,-3.8065,-3.7876,-3.7876,-3.7992,-3.8123,-3.7817,-3.7626,-3.7417,-3.7417,-3.7417,-3.7417,-3.7417,-3.7594,-3.7828,-3.7685,-3.77,-3.77,-3.77,-3.7583,-3.748,-3.748,-3.748,-3.7626,-3.8181,-3.8739,-3.9348,-3.9851,-4.0549,-4.1093,-4.118,-4.1163,-4.1226,-4.1363,-4.138,-4.1363,-4.138,-4.1683,-4.1948,-4.2133,-4.2462,-4.2716,-4.2772,-4.2714,-4.2846,-4.3178,-4.3178,-4.3356,-4.3892,-4.3923,-4.4036,-4.4285,-4.4401,-4.4487,-4.4515,-4.457,-4.4524,-4.4411,-4.4393,-4.4365,-4.4314,-4.4289,-4.4308,-4.4337,-4.428,-4.4279,-2.0382,-2.0849,-2.1792,-2.1229,-2.2179,-2.3144,-2.2494,-2.2399,-2.2491,-2.2598,0.0,0.0,0.0,0.0,0.0,0.0,-2.4403,-2.5485,-2.428,-2.7022,-2.8951,-2.8511,-2.9989,-3.1101,-3.1242,-3.2069,-3.2867,-3.3559,-3.2946,-3.2867,-3.3575,-3.3591,-3.4117,-3.5179,-3.5498,-3.6238,-3.7371,-3.7905,-3.818,-3.818,-3.8351,-3.8351,-3.8278,-3.8278,-3.818,-3.8049,-3.8049,-3.7992,-3.7876,-3.7876,-3.7992,-3.818,-3.8065,-3.7992,-3.7976,-3.7976,-3.7976,-3.7976,-3.7918,-3.7976,-3.8033,-3.7759,-3.77,-3.7759,-3.8001,-3.7985,-3.8042,-3.8399,-3.8511,-3.8662,-3.9246,-3.956,-3.9952,-4.0546,-4.0931,-4.1198,-4.1272,-4.1318,-4.1363,-4.1515,-4.1471,-4.138,-4.138,-4.1813,-4.2115,-4.2074,-4.2657,-4.3087,-4.3087,-4.3301,-4.3511,-4.3631,-4.3697,-4.386,-4.4147,-4.4177,-4.4237,-4.4401,-4.4458,-4.4487,-4.444,-4.4468,-4.444,-4.4344,-4.4373,-4.4344,-4.4285,-4.4344,-4.4373,-4.4373,-4.4373,-4.4266,-2.1472,-2.221,-2.3252,-2.1876,-2.296,-2.4069,-2.3074,-2.297,-2.3086,-2.304,-2.31,0.0,0.0,0.0,-2.2965,0.0,0.0,-2.4954,-2.3603,-2.6004,-2.785,-2.7684,-2.8284,-2.9348,-3.1003,-3.1852,-3.2517,-3.3001,-3.2879,-3.2986,-3.3435,-3.345,-3.4101,-3.5498,-3.5546,-3.6229,-3.7626,-3.7934,-3.8049,-3.8049,-3.8221,-3.8221,-3.8107,-3.8107,-3.7992,-3.7876,-3.7876,-3.7817,-3.7817,-3.7817,-3.7876,-3.8065,-3.8107,-3.8237,-3.8351,-3.8408,-3.8391,-3.8391,-3.8237,-3.8107,-3.7992,-3.7759,-3.7743,-3.7902,-3.8181,-3.8407,-3.8629,-3.9082,-3.9206,-3.9348,-4.0036,-4.0186,-4.0383,-4.1053,-4.1209,-4.1318,-4.1426,-4.1471,-4.1515,-4.1648,-4.1515,-4.138,-4.1363,-4.1796,-4.2157,-4.2139,-4.279,-4.3338,-4.3426,-4.373,-4.3942,-4.3915,-4.4005,-4.4109,-4.4285,-4.4285,-4.4344,-4.4487,-4.4515,-4.4487,-4.4411,-4.4383,-4.4373,-4.4255,-4.4285,-4.4285,-4.4226,-4.4285,-4.4285,-4.4226,-4.4255,-4.4195,-2.4666,-2.4106,-2.4138,-2.2418,-2.2352,-2.2704,-2.2859,-2.3397,-2.3815,-2.3721,-2.3862,-2.4017,-2.3909,-2.346,0.0,0.0,0.0,0.0,0.0,-2.4182,-2.4399,-2.3671,-2.549,-2.7473,-2.9284,-2.9416,-2.9943,-3.1371,-3.1187,-3.1667,-3.323,-3.3309,-3.3941,-3.5347,-3.5394,-3.6058,-3.7464,-3.7658,-3.77,-3.77,-3.7876,-3.7934,-3.7934,-3.7934,-3.7817,-3.77,-3.77,-3.7642,-3.7539,-3.7539,-3.7583,-3.77,-3.7876,-3.8049,-3.8237,-3.8335,-3.8391,-3.8391,-3.8237,-3.8008,-3.77,-3.77,-3.7943,-3.8278,-3.8294,-3.8684,-3.9206,-3.9206,-3.9206,-3.9348,-4.0036,-4.0186,-4.0383,-4.1053,-4.1318,-4.1426,-4.156,-4.1604,-4.1648,-4.178,-4.156,-4.1363,-4.1209,-4.1648,-4.2098,-4.2444,-4.294,-4.3426,-4.3719,-4.3851,-4.3897,-4.3897,-4.3942,-4.4067,-4.4285,-4.4285,-4.4344,-4.4487,-4.4515,-4.4487,-4.4411,-4.4383,-4.4344,-4.4214,-4.4274,-4.4207,-4.4005,-4.4226,-4.4207,-4.4005,-4.4135,-4.4184,-2.6301,-2.7533,-2.8308,-2.5085,-2.5759,-2.6633,-2.4214,-2.3871,-2.4031,-2.3985,-2.4476,-2.4567,-2.3412,-2.3791,0.0,0.0,0.0,0.0,0.0,-2.4625,-2.4751,-2.4558,-2.6083,-2.7482,-2.8201,-2.9268,-3.0386,-3.1518,-3.1833,-3.2364,-3.3245,-3.3398,-3.4048,-3.5347,-3.5586,-3.635,-3.777,-3.8132,-3.8303,-3.8303,-3.8415,-3.8472,-3.8359,-3.8359,-3.8262,-3.8164,-3.8164,-3.8107,-3.8123,-3.8123,-3.8148,-3.8303,-3.8278,-3.8335,-3.8448,-3.8408,-3.8335,-3.8221,-3.7934,-3.7759,-3.7599,-3.7599,-3.7886,-3.839,-3.8794,-3.9279,-3.9817,-4.0303,-4.0468,-4.0549,-4.0913,-4.1007,-4.1053,-4.1408,-4.1498,-4.156,-4.1604,-4.1604,-4.1604,-4.156,-4.1408,-4.1226,-4.1169,-4.13,-4.1692,-4.2266,-4.2772,-4.3232,-4.3634,-4.3846,-4.3992,-4.3992,-4.4188,-4.4354,-4.443,-4.443,-4.443,-4.444,-4.444,-4.4383,-4.4255,-4.4274,-4.4195,-4.4055,-4.4085,-4.4067,-4.4005,-4.4067,-4.4067,-4.4005,-4.4055,-4.4055,-2.8662,-3.0079,-3.0809,-2.721,-2.7908,-2.8575,-2.5354,-2.5003,-2.5269,-2.5,-2.5295,-2.552,-2.5216,-2.4956,0.0,0.0,0.0,0.0,0.0,-2.5123,-2.5262,-2.5323,-2.6118,-2.6928,-2.7574,-2.8709,-3.0014,-3.163,-3.2063,-3.2686,-3.3559,-3.3658,-3.4297,-3.5648,-3.5828,-3.6612,-3.8059,-3.8535,-3.8717,-3.8528,-3.8974,-3.8974,-3.8528,-3.8701,-3.8623,-3.8391,-3.8391,-3.8391,-3.8391,-3.8391,-3.8448,-3.8544,-3.8488,-3.8639,-3.886,-3.8448,-3.8221,-3.7992,-3.8017,-3.7902,-3.7844,-3.8017,-3.8518,-3.9032,-3.9437,-3.9935,-4.0514,-4.0995,-4.1123,-4.1169,-4.1335,-4.138,-4.1426,-4.156,-4.1604,-4.1604,-4.156,-4.1515,-4.1515,-4.1363,-4.1226,-4.1152,-4.1093,-4.1152,-4.1445,-4.2162,-4.2657,-4.3105,-4.36,-4.3929,-4.4116,-4.4116,-4.4354,-4.4515,-4.4515,-4.4487,-4.4458,-4.4411,-4.4383,-4.4314,-4.4214,-4.4184,-4.4284,-4.4513,-4.4153,-4.4153,-4.4482,-4.4153,-4.4005,-4.4005,-4.4005,-4.4036]}]]